              Height (m), 1500.0000, 1650.0000, 1800.0000, 1950.0000, 2100.0000, 2250.0000, 2400.0000, 2550.0000, 2700.0000, 2850.0000, 3000.0000, 3150.0000, 3300.0000, 3450.0000, 3600.0000, 3750.0000, 3900.0000, 4050.0000, 4200.0000, 4350.0000, 4500.0000, 4650.0000, 4800.0000, 4950.0000, 5100.0000, 5250.0000, 5400.0000, 5550.0000, 5700.0000, 5850.0000, 6000.0000, 6150.0000, 6300.0000, 6450.0000, 6600.0000, 6750.0000, 6900.0000, 7050.0000, 7200.0000, 7350.0000, 7500.0000, 7650.0000, 7800.0000, 7950.0000, 8100.0000, 8250.0000, 8400.0000, 8550.0000, 8700.0000, 8850.0000, 9000.0000, 9150.0000, 9300.0000, 9450.0000, 9600.0000, 9750.0000, 9900.0000,10050.0000,10200.0000,10350.0000,10500.0000,10650.0000,10800.0000,10950.0000,11100.0000,
  1-NOV-1996 00:02:33.52,  999.0000,  999.0000,  999.0000,  999.0000,  999.0000,    5.7059,    4.9888,  999.0000,  999.0000,  999.0000,  999.0000,  999.0000,  999.0000,   12.5488,   11.9902,   13.0685,  999.0000,   18.3414,   19.6410,   20.5662,   21.6159,   21.7093,   22.9443,   24.5260,   23.1788,   23.3509,   23.2412,   22.7358,   22.5983,   23.3152,   23.6733,   22.8337,   22.3477,   22.9083,   22.2059,   21.6402,   21.9068,   22.2764,   23.0680,   23.7529,   24.5051,   24.3943,   24.9901,   25.8341,   26.3017,   25.9020,   26.1777,   27.0992,   28.1434,   29.9600,   31.9031,   33.0346,   33.7990,   34.1380,   34.4642,   34.8625,   34.9230,   35.8397,   36.1259,   36.4872,   37.2989,   38.8857,   40.0806,  999.0000,   39.8801,
  1-NOV-1996 00:07:07.69,  999.0000,  999.0000,  999.0000,  999.0000,    5.3148,    6.5346,  999.0000,  999.0000,  999.0000,  999.0000,  999.0000,  999.0000,  999.0000,  999.0000,  999.0000,   15.1503,   16.4951,   18.4980,   20.7150,   22.0776,   21.8898,   22.1135,   22.1422,   21.7631,   22.4227,   22.2493,   22.0437,   22.5629,   23.5559,   23.6113,   23.9040,   23.8677,   22.5334,   22.5473,   23.1510,   23.1597,   22.8331,   23.0585,   23.7263,   23.7065,   24.0737,   24.7860,   25.1399,   25.8778,   27.0830,   26.9983,   27.0820,   27.3525,   27.5475,   29.1279,   31.0361,   32.0994,   33.1041,   33.5963,   33.7292,   34.5862,   35.2058,   35.5487,   35.6297,   36.3673,   37.7872,   39.2794,   39.8248,   40.2872,   40.3546,
  1-NOV-1996 00:11:41.92,   -9.4931,  999.0000,  999.0000,  999.0000,  999.0000,  999.0000,  999.0000,  999.0000,  999.0000,  999.0000,  999.0000,  999.0000,  999.0000,  999.0000,  999.0000,   14.3085,   15.2769,  999.0000,   19.5926,   20.3535,   20.8857,   21.5632,   21.4388,   22.2543,   21.3912,   21.0634,   21.7658,   23.0910,   24.4959,   23.4611,   23.1090,   22.9722,   23.1915,   23.1166,   22.7510,   22.8044,   22.9664,   23.4684,   24.0223,   23.7578,   23.9557,   24.6977,   25.1552,   26.1036,   27.1715,   27.4486,   27.3542,   27.6977,   28.4649,   29.5194,   30.3000,   31.0873,   32.3912,   33.0407,   33.5712,   34.2899,   34.6207,   34.6970,   35.2582,   36.7072,   37.8955,   39.6437,   39.8376,   39.6211,   39.5099,
  1-NOV-1996 00:16:15.78,   -4.6528,  999.0000,  999.0000,  999.0000,  999.0000,  999.0000,  999.0000,  999.0000,  999.0000,  999.0000,  999.0000,  999.0000,  999.0000,  999.0000,   13.2605,   13.8937,  999.0000,   18.5313,   19.6715,   20.4411,   20.8534,  999.0000,   22.7686,   22.2625,   20.4701,   20.3334,   19.9487,   20.5827,   23.8959,   22.5660,   22.7763,   22.5571,   22.9205,   23.0225,   22.5074,   22.4120,   22.7136,   23.0270,   23.2192,   23.6471,   24.3245,   25.3091,   26.2951,   27.3163,   27.6514,   27.9692,   28.7881,   29.5520,   29.9675,   30.4025,   30.0855,   30.9384,   31.7692,   32.5291,   33.4330,   34.5417,   34.2790,   34.3152,   35.9868,   38.2681,   39.0977,   38.9239,   38.6512,   39.1709,   40.0914,
  1-NOV-1996 00:20:49.87,   -4.7282,   -5.0098,  999.0000,  999.0000,  999.0000,  999.0000,  999.0000,  999.0000,  999.0000,  999.0000,  999.0000,   12.8624,   13.8811,  999.0000,  999.0000,  999.0000,   17.4281,   18.1577,   19.0416,   20.1181,   20.9512,  999.0000,   22.5334,   23.1678,   22.1188,   20.6586,   20.7555,   21.2326,   22.8974,   22.9277,   21.9501,   21.4746,   22.0665,   23.1356,   21.8942,   21.4614,   21.7968,   21.9978,   22.3092,   23.4725,   24.2398,   24.8208,   25.8361,   26.2099,   26.1461,   26.7663,   27.6847,   28.3641,   29.5177,   29.7218,   29.9648,   30.9875,   31.8449,   32.3526,   32.9050,   34.1429,   33.8539,   34.4276,   36.5549,   37.8638,   37.9908,   38.1509,   37.6746,   38.2900,   39.1873,
  1-NOV-1996 00:25:23.97,   -4.4331,  999.0000,  999.0000,  999.0000,  999.0000,  999.0000,  999.0000,  999.0000,  999.0000,  999.0000,  999.0000,  999.0000,  999.0000,  999.0000,   13.9433,   15.3537,  999.0000,   17.4419,   17.9420,   18.8627,   20.4350,  999.0000,   22.5020,   23.8639,   23.5047,   22.7346,   21.4657,   22.0098,   23.3973,   24.2107,   22.9402,   21.8502,   22.1222,   22.0604,   21.3188,   21.3506,   21.5106,   21.9124,   22.6259,   23.0295,   24.0252,   24.7357,   25.2565,   25.5843,   26.0985,   26.7652,   27.5468,   28.6192,   29.3884,   30.1851,   30.8590,   31.2408,   32.0378,   32.6879,   33.7470,   34.5476,   34.1575,   35.5231,   37.9970,   38.9046,   38.4586,   37.9061,   37.3822,   37.8313,   38.5237,
  1-NOV-1996 00:29:57.83,   -4.5819,   -3.6175,  999.0000,  999.0000,  999.0000,  999.0000,  999.0000,  999.0000,  999.0000,  999.0000,  999.0000,  999.0000,  999.0000,  999.0000,  999.0000,  999.0000,   17.7660,   18.2988,   19.0942,  999.0000,   22.5633,   23.0919,   23.2102,   23.6411,   22.6681,   21.6569,   21.0318,   21.2012,   22.2432,   22.8652,   22.1195,   21.1946,   22.2176,   21.6527,   20.5708,   19.8545,   20.6327,   21.1681,   22.1921,   23.0997,   23.7623,   24.7429,   25.2724,   25.7797,   26.8972,   27.2542,   27.9307,   28.9608,   29.2315,   29.7566,   30.2430,   31.0806,   32.7121,   33.8814,   34.2327,   34.0507,   35.0618,   35.6614,   36.8215,  999.0000,   36.8944,   35.9764,   36.6953,   37.3435,   37.6160,
  1-NOV-1996 00:34:34.38,  999.0000,  999.0000,  999.0000,  999.0000,  999.0000,  999.0000,    7.5554,    9.0933,    9.7520,    9.9274,  999.0000,  999.0000,   13.0263,   13.9909,   14.6439,   15.0816,   15.6942,  999.0000,  999.0000,  999.0000,   22.7302,   22.3780,   22.7553,   23.4852,   22.0179,   20.9150,   20.3419,   20.7730,   20.7346,   21.3992,   21.9154,   20.4160,   21.1633,   20.9589,   20.3087,   20.4129,   21.3768,   21.6733,   22.4685,   22.9394,   24.3556,  999.0000,   25.1364,   26.0912,   27.1288,   27.3861,   26.4570,  999.0000,   29.1601,   29.5483,   30.0141,   31.1390,   33.0649,   34.9774,   35.2342,   34.6717,   34.7680,   35.8080,   36.5717,   37.1254,   36.6076,   36.7409,   36.9981,   36.6152,   37.0675,
  1-NOV-1996 00:39:09.53,   -5.1987,  999.0000,  999.0000,  999.0000,  999.0000,  999.0000,  999.0000,    7.5920,    7.8755,  999.0000,  999.0000,  999.0000,  999.0000,   13.6556,   14.2554,   15.0649,  999.0000,  999.0000,  999.0000,  999.0000,   23.0188,   23.5983,   24.3012,   22.8357,   21.5275,   20.4858,   19.9054,   21.2964,   21.7154,   21.0755,   20.5095,   19.9494,   20.1976,   20.6073,   20.2838,   20.1534,   21.1529,   21.8844,   22.5326,   22.3468,   24.0318,   24.1288,   25.3222,   26.4503,   26.8174,   24.1897,   27.1615,   27.9480,   29.0306,  999.0000,  999.0000,  999.0000,   33.1804,   34.1774,   34.3431,   33.9262,   34.9811,   37.3875,   37.6214,   37.6110,  999.0000,   37.9168,   38.3082,  999.0000,   37.9942,
  1-NOV-1996 00:43:43.64,   -4.9270,  999.0000,  999.0000,  999.0000,  999.0000,  999.0000,  999.0000,  999.0000,  999.0000,  999.0000,   10.8056,   11.4052,   12.3996,   13.2933,  999.0000,  999.0000,  999.0000,   19.6436,   21.0375,  999.0000,   24.9132,   26.2747,   24.8293,   23.8123,   23.5221,   21.8621,   21.5607,   22.0566,   21.9938,   20.8095,   19.8138,   20.1578,   20.3701,   20.9701,   20.9475,   20.8899,   19.9875,   21.3410,   22.1762,   23.2634,   23.8991,   24.9241,   25.7552,   25.8658,   26.0718,   27.3346,   27.2035,  999.0000,   29.4188,   29.8130,   30.6285,   31.6969,  999.0000,   34.0846,   33.8798,   33.9325,   36.1956,   37.8233,   38.3515,   38.1328,   37.3181,   37.3664,   37.1780,   37.2489,   37.8884,
  1-NOV-1996 00:48:20.15,   -5.1629,  999.0000,  999.0000,    1.2986,    3.4297,  999.0000,    7.4730,    7.7157,    7.9692,  999.0000,  999.0000,  999.0000,  999.0000,  999.0000,   15.3776,   17.2153,   18.6745,   20.3490,   21.9173,   23.1494,   25.3780,   26.4757,   25.0367,   23.8222,   22.6788,   22.5850,   21.8415,   21.4548,   21.3599,   20.5914,   19.4962,   19.6306,   20.4835,   20.4296,   20.1950,   20.3741,   21.1124,   21.1345,   21.8464,   22.8470,   23.7285,   24.9509,   25.3682,   25.2185,   25.7812,   27.1648,   28.1761,   29.4107,   30.1698,   30.5058,   31.4476,   32.7367,   34.0447,   33.6316,   33.7526,   36.0522,   37.2513,   37.3328,   37.8026,   37.4415,   36.7696,   36.9891,   36.4164,   36.4594,   37.4465,
  1-NOV-1996 00:52:54.73,   -3.1510,  999.0000,  999.0000,  999.0000,    4.5372,    6.3095,  999.0000,  999.0000,  999.0000,  999.0000,  999.0000,  999.0000,  999.0000,   14.4134,   15.8483,   17.4439,   19.1074,   20.6199,   21.9265,   24.0587,   26.2728,   26.6472,   25.1188,   22.7917,   22.4184,   22.2260,   22.1087,   22.1411,   20.7939,   19.6121,   19.2038,   19.6994,   21.4652,   21.8137,   20.3360,   20.8354,   21.8954,   21.8967,   21.6826,   22.8412,   24.5867,   25.4522,   25.1752,   25.0991,   26.7314,   28.2237,   28.7603,   28.7485,   29.4228,   30.4897,   31.3872,   32.4956,   32.7998,   33.0846,   35.5087,   35.8727,   35.3137,   36.2286,   36.5595,   36.8473,   38.1870,   38.6489,   37.6434,   37.1681,   37.9643,
  1-NOV-1996 00:57:31.23,   -3.5370,  999.0000,  999.0000,  999.0000,  999.0000,  999.0000,  999.0000,  999.0000,  999.0000,  999.0000,  999.0000,  999.0000,  999.0000,  999.0000,  999.0000,  999.0000,  999.0000,  999.0000,  999.0000,   24.5128,   26.1052,   25.1318,   23.8056,   24.2430,   23.2342,   22.4185,   20.7278,   20.6916,   20.7071,   20.0490,   20.1937,   21.0394,   22.0621,   21.7706,   20.5498,   21.1901,   22.4106,   23.6285,   23.7539,   24.0557,   24.6034,   25.4204,   25.6343,   26.4404,   27.5206,   28.4736,   29.1218,   29.2176,   29.6134,   30.4031,   31.7028,   32.6123,   33.3271,   34.6903,   35.6631,   36.2882,   36.6214,   37.0634,   37.2254,   37.9193,   38.8546,   38.3567,   38.1186,   38.8866,   37.5615,
  1-NOV-1996 01:02:05.42,   -2.4719,   -0.6942,  999.0000,    2.9299,    3.4532,  999.0000,  999.0000,  999.0000,  999.0000,  999.0000,  999.0000,  999.0000,  999.0000,  999.0000,  999.0000,  999.0000,  999.0000,  999.0000,  999.0000,   24.9382,   25.8976,   25.4125,   24.2243,   23.5600,   23.3970,   22.0183,   21.5696,   21.4509,   21.3797,   21.4647,   21.0215,   22.0820,   21.9766,   22.4656,   21.9480,   22.0651,   22.7700,  999.0000,   24.5886,   25.0984,   25.3178,   25.0507,   25.3020,   25.6931,   27.0018,   28.3318,   29.0363,   29.2809,   30.1900,   31.4561,   32.6304,   32.6157,   32.9832,   34.3798,   35.1480,   35.8867,   35.9337,   35.5610,   36.6439,   38.0490,  999.0000,   37.2065,   37.0731,   37.5438,   35.7189,
  1-NOV-1996 01:06:40.18,   -1.3546,    0.7478,    2.2223,  999.0000,  999.0000,  999.0000,  999.0000,  999.0000,  999.0000,  999.0000,  999.0000,  999.0000,  999.0000,   15.3174,   16.0940,  999.0000,  999.0000,  999.0000,  999.0000,   25.5369,   26.4604,   26.0743,   24.5301,   22.6329,   22.8597,   21.9529,   22.1649,   21.7221,   20.9531,   21.2541,   20.7309,   21.3558,   21.3728,   22.3124,   22.3193,   23.2787,   22.6303,   24.0762,   25.6092,   25.9218,   25.6921,   24.5581,   25.0143,   26.1939,   27.9855,   29.3198,   29.6927,   30.3673,   31.0926,   31.5265,   31.7615,   32.9685,   33.3668,   33.7988,   34.4475,   36.1107,   37.0061,   36.3655,   35.5487,   36.5636,  999.0000,  999.0000,  999.0000,   37.6075,   36.4475,
  1-NOV-1996 01:11:13.99,    0.2636,    1.6112,  999.0000,  999.0000,  999.0000,  999.0000,  999.0000,  999.0000,  999.0000,  999.0000,  999.0000,  999.0000,  999.0000,   15.8943,   16.3293,   17.3620,   18.7804,   20.2964,   22.6880,   24.6916,   25.3052,   24.3230,   23.1359,   22.6394,   22.6221,   21.8666,   22.2431,   22.7281,   22.4328,   22.5716,   22.1128,   22.6704,   23.0523,   23.0997,   22.8692,   22.9684,   22.5585,   22.9658,   24.5133,   26.0728,   25.6831,   24.3351,   24.4540,   25.5675,   27.5591,   29.3870,   29.8882,   30.3508,   31.2249,   31.7907,   32.8438,   32.9361,   33.2275,   33.8589,   33.9566,   35.3018,   36.5476,   36.4216,   36.1468,   36.3794,   36.4863,   37.1372,   35.9701,   35.5016,   35.7734,
  1-NOV-1996 01:15:50.46,  999.0000,  999.0000,  999.0000,  999.0000,    4.8263,    5.3698,    6.8299,    8.2326,  999.0000,  999.0000,  999.0000,  999.0000,  999.0000,  999.0000,  999.0000,  999.0000,  999.0000,   19.9001,   21.3425,   22.0731,  999.0000,   22.5397,   22.7146,   22.8732,   22.2784,   21.6699,   21.9689,   21.8812,   21.4382,   21.6688,   22.0603,   22.6515,   22.5313,   24.2470,   24.2783,  999.0000,   22.9624,   24.2246,   25.5656,   26.7490,   25.3302,   24.2106,   24.3800,   25.1706,   27.1815,   28.8312,   29.2275,   29.8324,   30.9444,   32.0520,   32.6661,   32.8861,   33.7440,   34.9092,   35.8330,   36.5526,   38.1639,  999.0000,  999.0000,  999.0000,   36.7889,   37.3589,   36.0869,   35.6293,   35.8077,
  1-NOV-1996 01:20:24.66,   -1.0867,  999.0000,  999.0000,  999.0000,  999.0000,  999.0000,  999.0000,    7.7212,    8.8029,    9.1650,  999.0000,  999.0000,  999.0000,  999.0000,   18.4395,   18.7270,   18.9967,   20.0407,  999.0000,  999.0000,  999.0000,   22.1474,   22.1600,   21.9261,   21.5339,   21.1019,   21.6375,   21.9587,   21.8660,   21.8396,   21.5453,   22.0987,   22.5838,   22.0708,   21.5947,   21.9929,   21.9267,   23.3742,   24.8033,   24.6694,   25.1160,   24.5612,   25.0782,   26.2451,   27.4013,   28.2208,   29.0352,   30.3222,   31.6997,   32.5435,   33.1762,   33.9014,   34.8548,   35.9248,   36.7063,   37.8570,   37.4815,   36.2546,   36.4524,   35.4001,   35.5250,   36.2798,   35.8910,   35.4272,   35.5943,
  1-NOV-1996 01:25:01.28,   -1.0077,  999.0000,  999.0000,  999.0000,  999.0000,  999.0000,  999.0000,  999.0000,  999.0000,  999.0000,  999.0000,  999.0000,  999.0000,   18.3543,   18.8552,   19.0489,   20.1492,  999.0000,   23.1511,   23.6001,   23.4132,   22.3552,   22.2528,   21.5743,   21.7558,   22.0527,   21.9613,   22.0331,   22.4849,   21.3823,   21.4262,   21.0500,   21.9117,   23.1109,   23.6828,   24.2048,   22.7674,   25.2919,   26.1614,   25.0776,   24.2846,   24.0081,   24.5388,   25.5754,   27.1050,   27.8247,   28.0433,   28.6533,   30.3594,   31.7018,   32.0071,   32.7489,   34.3177,   35.5614,   36.1618,   36.6381,   36.0636,   35.8479,  999.0000,   33.8172,   33.7402,   34.1323,   34.1738,   34.4298,   35.3204,
  1-NOV-1996 01:29:35.10,   -1.5386,  999.0000,  999.0000,  999.0000,  999.0000,  999.0000,  999.0000,  999.0000,  999.0000,  999.0000,  999.0000,  999.0000,  999.0000,  999.0000,  999.0000,  999.0000,   23.2240,   24.1804,   24.7748,   24.2790,   23.7983,   22.8596,   22.0662,   21.3922,   21.8670,   22.6946,   21.7337,   21.2101,   22.4917,   21.9813,   21.4660,   21.7653,   22.9415,   24.3075,   23.7119,   23.7196,   25.2908,   27.0792,   28.1175,   25.2923,   24.3743,   24.6387,   25.6203,   27.5041,   29.2205,   29.5887,   29.5518,   29.9757,   31.5349,   32.2480,   32.1941,   33.5094,   34.6889,   34.6217,   35.1047,   36.9342,   36.8315,   35.6515,   35.5404,   35.0856,   34.6698,   34.2712,   35.1911,   35.8974,   37.3601,
  1-NOV-1996 01:34:09.23,  999.0000,  999.0000,    2.6356,    4.2601,  999.0000,  999.0000,  999.0000,  999.0000,  999.0000,  999.0000,  999.0000,  999.0000,  999.0000,  999.0000,  999.0000,  999.0000,   22.7890,   23.9240,   25.1608,   25.5644,   24.5702,   23.3562,  999.0000,   20.8364,   20.7224,   21.2684,   21.2201,   21.4324,   21.4034,   21.4220,   21.4714,   21.0812,   22.0306,   23.1654,   22.9297,   22.9719,   24.0613,   26.7826,   26.6200,   24.8500,   24.2585,   24.4153,   25.2005,   27.3038,   28.7264,   29.0577,   29.3970,   29.8293,   30.9598,   31.6226,   31.7765,   33.6331,   34.8369,   34.9671,   35.0893,   35.7751,   35.7472,   35.5764,   35.5564,   34.7458,   34.3097,   34.9686,   35.6692,   36.8542,   38.3438,
  1-NOV-1996 01:39:30.12,   -0.7398,    0.1084,  999.0000,  999.0000,  999.0000,  999.0000,  999.0000,  999.0000,  999.0000,  999.0000,  999.0000,  999.0000,  999.0000,  999.0000,   19.5369,   20.9384,  999.0000,  999.0000,  999.0000,  999.0000,   23.1046,   22.1048,   21.6438,   20.7973,   20.7310,   21.1070,   21.7289,   22.1309,   21.6973,   20.9441,   19.7951,   20.4899,  999.0000,   23.9556,   23.8399,   23.3350,   25.0277,   27.2255,   27.3579,   26.0231,   24.9648,   25.5794,   27.3714,   28.1807,   29.2712,   30.0910,   30.0760,   29.8530,   30.7984,   32.0499,   33.0336,   34.0881,   34.9577,   35.5332,   35.7685,   35.2121,   34.6641,   34.7463,   34.7115,   34.6879,   34.8767,   34.6031,   33.9811,   35.4708,  999.0000,
  1-NOV-1996 01:44:07.44,  999.0000,  999.0000,  999.0000,  999.0000,  999.0000,    7.4400,    8.0640,  999.0000,    6.9060,    7.8393,   10.3895,   12.3969,   14.7640,   17.1515,   19.4685,   20.2762,   21.0396,   20.5045,   20.9073,   21.8778,   22.2343,   22.1747,   21.6028,   19.7090,   20.3464,   21.0360,   21.6643,   20.2186,   20.7932,   21.0470,   21.9080,   22.9918,   23.3619,   24.5544,   25.1459,   24.3872,   23.2392,   24.4162,   25.5600,   25.4865,   26.1177,   26.5664,   27.4500,   28.7844,   29.6154,   29.1992,   29.4928,   29.2808,   30.1670,   31.7745,   33.0118,   34.1707,   35.4874,   36.3097,   35.9752,   35.4331,   35.2897,   35.1797,   34.0193,   33.7446,   34.8436,   34.2349,   33.7805,   35.3533,   37.5217,
  1-NOV-1996 01:48:43.72,   -0.7631,  999.0000,    4.3969,    5.5759,  999.0000,    8.1408,    9.0737,    9.4466,    9.5068,    9.3551,   10.8346,  999.0000,  999.0000,   17.7517,   18.9026,  999.0000,   21.2877,   21.4960,   22.5182,   23.3211,   23.2572,   22.0477,   22.2859,   21.3152,   21.4885,   22.0507,   22.3241,   21.2020,   20.5121,   20.9076,   20.7967,   21.3822,   21.8293,   23.3948,   24.1350,   24.7310,   25.3096,   25.9027,   26.7625,   27.9653,   28.2523,   28.0837,   28.4539,   29.3426,   29.7699,   29.4038,   29.6592,   30.2570,   30.9914,   31.4342,   33.4501,   34.7427,   36.0697,   36.7826,   36.0201,   35.8485,   35.9808,   35.8196,   34.9098,   34.9489,   33.6677,   33.1088,   34.7346,   37.1029,   39.6598,
  1-NOV-1996 01:53:19.83,  999.0000,  999.0000,    4.1961,    5.6169,    6.8901,    8.7682,    9.9431,    9.9414,   10.4232,   11.3823,  999.0000,  999.0000,  999.0000,  999.0000,  999.0000,  999.0000,  999.0000,  999.0000,   24.9668,   24.3610,   23.1763,   22.3514,   21.9241,   22.0881,   21.6356,   22.5712,   23.2616,   22.2879,   22.1213,   21.3850,   21.4431,   21.7545,   22.6561,   22.6170,   22.7899,   23.8795,   25.0424,   26.0177,   26.5618,   27.5019,   28.1752,   28.6643,   28.5266,   29.0633,   29.4497,   29.8325,   30.4556,   31.2119,   30.9566,   31.3427,   33.2737,   34.5697,   36.1281,   36.1610,   35.5733,   35.6447,  999.0000,  999.0000,  999.0000,   33.2738,   33.3997,   33.7760,   34.6695,   35.7511,   38.3448,
  1-NOV-1996 01:58:29.30,   -1.0296,  999.0000,  999.0000,  999.0000,  999.0000,  999.0000,  999.0000,  999.0000,  999.0000,  999.0000,  999.0000,  999.0000,  999.0000,  999.0000,  999.0000,  999.0000,  999.0000,  999.0000,  999.0000,   22.3676,   21.6196,   20.1496,   20.0766,   21.8316,   21.3111,   22.2316,   23.0500,   22.7641,   21.5133,   21.9218,   22.4116,   22.7157,   22.7088,   22.1539,   22.6582,   23.3574,   25.3523,   26.2019,   26.4764,   27.8343,   27.6497,   27.7216,   28.5756,   29.1426,   29.4495,   29.6050,   30.5322,   30.6435,   30.9201,   32.0338,   33.1007,   34.7771,   36.9513,   37.1243,   36.4603,   36.1579,   35.9591,   35.5108,  999.0000,  999.0000,  999.0000,  999.0000,   33.5567,   34.9563,  999.0000,
  1-NOV-1996 02:03:02.95,   -1.5677,    1.0554,    3.7325,    5.2390,  999.0000,  999.0000,  999.0000,    7.1477,    8.2775,  999.0000,  999.0000,  999.0000,  999.0000,  999.0000,  999.0000,  999.0000,   21.2017,   22.3137,   22.6338,   23.2187,   22.9871,   22.3824,   22.1468,   21.7161,   20.9086,   22.1180,   23.4211,   23.3059,   22.1338,   22.8806,   23.2082,   23.0045,   22.9079,   22.5766,   22.5073,   23.3927,   23.7311,   26.1139,   27.1992,   28.3069,   28.1420,   27.4996,   29.7911,   29.5466,   29.1451,   29.7741,   30.1255,   29.9212,   30.3702,   32.1327,   33.6357,   34.6570,   35.6696,   35.6301,   35.7239,   35.4649,   34.4939,   33.6725,   32.9030,   33.1180,   33.1435,   33.4544,   33.9370,   35.4681,   38.0215,
  1-NOV-1996 02:07:38.55,   -0.5591,    0.6439,  999.0000,  999.0000,  999.0000,  999.0000,  999.0000,  999.0000,  999.0000,  999.0000,  999.0000,  999.0000,  999.0000,  999.0000,  999.0000,  999.0000,   19.1087,   19.4599,   20.9954,  999.0000,   22.0025,   21.4232,  999.0000,   19.2232,   19.3057,   20.0341,   21.5574,   22.2493,  999.0000,   21.8166,   22.1359,   22.7902,   21.9960,   22.1962,   22.7479,   23.9897,   25.4079,   25.6956,   27.1756,   29.1063,   28.3589,   28.1554,   29.4943,   28.9617,   29.2442,   29.8391,   29.7052,   29.4434,   30.8967,   32.6154,   33.8939,   34.6607,   35.6745,   35.0162,   34.5219,   35.0059,   34.2914,   34.0245,   34.1519,  999.0000,   34.8954,   34.9342,   35.0428,  999.0000,   39.8340,
  1-NOV-1996 02:12:14.27,   -1.4432,  999.0000,  999.0000,  999.0000,  999.0000,  999.0000,  999.0000,  999.0000,  999.0000,   12.9605,   13.5598,  999.0000,  999.0000,  999.0000,   16.1858,   17.5287,   19.4030,   20.5836,   21.2180,  999.0000,   21.5674,   21.5698,  999.0000,   20.7514,   19.2597,   19.4391,   20.2602,   22.1613,   22.3236,   21.6787,   21.8137,   22.0056,   21.8890,   22.4876,   23.5435,   24.1706,   25.3086,   25.7607,   26.7398,   28.3916,   28.3382,   28.4956,   29.0866,   28.3694,   29.4508,   30.5713,   30.5227,   29.8887,   31.3118,   33.3147,   34.4952,   36.2709,   37.3975,   36.4127,   36.1351,   35.8243,   35.3162,   35.3481,   35.1053,   34.6600,   34.5575,   34.3027,   36.0196,   38.5059,   39.9467,
  1-NOV-1996 02:16:49.89,  999.0000,   -0.3141,    1.0577,  999.0000,  999.0000,  999.0000,    6.6255,    8.5782,   10.0433,  999.0000,  999.0000,  999.0000,  999.0000,  999.0000,  999.0000,  999.0000,  999.0000,   22.9904,   22.7861,   21.5992,  999.0000,   19.8758,   19.1722,   20.2124,   19.7525,   20.0999,   20.8946,   22.3809,   22.9600,   22.6779,   22.8465,   22.5913,   23.2187,   23.6973,   24.4885,   25.2959,   25.7509,   25.9065,   26.8091,   27.1049,   27.2347,   27.2721,   27.3060,   27.9374,   29.3177,   29.3904,   29.0296,   30.1863,   31.6810,   32.6903,   33.8911,   36.3821,   37.1468,   36.3629,   35.9792,   36.1985,   36.5740,   36.1095,   34.7068,   33.9931,   33.6974,   35.2444,   38.3425,   39.4165,   39.9255,
  1-NOV-1996 02:21:25.61,   -2.0976,   -0.7207,  999.0000,  999.0000,  999.0000,  999.0000,  999.0000,   10.4390,   11.4950,   12.2297,  999.0000,  999.0000,  999.0000,   19.4275,   20.5488,   20.7825,   20.6025,   21.3509,   21.4171,   21.5144,   21.9769,   21.9567,  999.0000,   19.9827,   20.4791,   20.2393,   21.1662,   22.8979,   24.1532,   24.0861,   23.8407,   22.9426,   24.0597,   25.0685,   25.0183,   25.8637,   25.9789,   26.9146,   27.2317,   27.4522,   27.4444,   27.2068,   27.5733,   28.4034,   29.7215,   30.4357,   29.9981,  999.0000,  999.0000,   33.8112,   35.0959,   37.6333,   38.5699,   37.5716,   36.9198,   36.9747,   36.6830,   35.9026,   34.6348,   34.6700,  999.0000,   38.0150,   40.3527,   40.9014,   40.9961,
  1-NOV-1996 02:26:01.84,   -2.4822,  999.0000,  999.0000,    1.9166,    2.0019,  999.0000,  999.0000,  999.0000,  999.0000,  999.0000,  999.0000,  999.0000,  999.0000,  999.0000,  999.0000,   18.8012,   19.0379,  999.0000,  999.0000,  999.0000,  999.0000,  999.0000,   19.6224,   18.5962,  999.0000,   16.9606,   17.9348,   19.1589,   20.5213,   20.7126,   24.2442,   21.2296,   22.6610,   23.2213,   23.6799,   24.4764,   25.5717,   25.8894,   26.3377,   27.4528,   27.8567,   27.9712,   29.1201,   30.2895,   30.8363,   31.4030,   30.8923,   30.8372,   33.0589,   33.7225,   34.3589,   37.0636,   37.7501,   36.9560,   36.6298,   36.6113,   36.0622,   36.2094,   36.2204,   36.3153,   36.7623,   38.7551,   40.7164,   41.5645,   41.7923,
  1-NOV-1996 02:30:35.70,   -0.6946,  999.0000,  999.0000,  999.0000,  999.0000,  999.0000,  999.0000,  999.0000,  999.0000,  999.0000,  999.0000,  999.0000,  999.0000,  999.0000,  999.0000,  999.0000,  999.0000,  999.0000,  999.0000,  999.0000,  999.0000,  999.0000,  999.0000,   21.0642,   22.4453,   23.6078,   24.9200,   25.1910,   25.6318,   24.5007,  999.0000,   25.6675,   25.7522,   26.0419,   26.0648,   27.0196,   27.5767,   27.0110,   28.2979,   28.8813,   29.6190,   29.8203,   30.1108,   30.6944,   31.4754,   32.1126,   31.6428,   31.2743,   33.1021,   33.6095,   33.8971,   35.7548,   37.3685,   36.9307,   36.2206,   36.3741,   36.4479,   36.2381,   36.1829,   35.7289,   35.8462,   36.8629,   38.8975,   39.4275,   41.0841,
  1-NOV-1996 02:35:09.74,   -2.5228,  999.0000,  999.0000,  999.0000,  999.0000,  999.0000,  999.0000,  999.0000,  999.0000,  999.0000,   17.8674,   19.6826,  999.0000,   22.2619,   23.5519,   24.7327,  999.0000,  999.0000,   25.5316,   24.7553,   23.5084,   22.2044,   21.3561,   20.7398,   20.4979,   21.6271,   23.9207,   25.1387,   25.8433,   25.5218,   26.2846,   25.9857,   26.0923,   26.6376,   26.9568,   27.5867,   27.3287,   27.3635,   27.6539,   28.4542,   28.9357,   29.4372,   29.3111,   30.6891,   31.9594,   31.1550,   30.8420,   32.3951,   33.7757,   34.0126,   34.9029,   36.6312,   38.7184,   38.7197,   36.9970,   36.1581,   35.7619,   35.2889,   35.1588,   34.8513,   35.4347,   35.2377,   36.2949,   37.3408,   39.1253,
  1-NOV-1996 02:39:43.51,   -3.8207,  999.0000,  999.0000,  999.0000,  999.0000,  999.0000,   12.0643,   13.4482,   12.5269,  999.0000,  999.0000,  999.0000,  999.0000,  999.0000,  999.0000,  999.0000,  999.0000,  999.0000,  999.0000,  999.0000,   25.0770,   23.6762,  999.0000,  999.0000,  999.0000,   20.7503,   22.0386,   22.4206,   23.2485,   24.1329,   24.7281,   24.7355,   25.3490,   24.4518,   25.3308,   26.1406,   25.9750,   26.1292,   27.0234,   28.3157,   28.2817,   28.1627,   29.0395,   30.2320,   30.0463,   28.8691,   29.6422,   31.5411,   33.2706,   34.0644,   34.2434,   35.4874,   37.2511,   37.3967,   36.3586,   35.8899,   36.1691,   36.3195,   36.1799,   35.6285,   35.1265,   34.9418,   35.5014,   36.7240,   39.2428,
  1-NOV-1996 02:44:23.19,   -3.6121,  999.0000,  999.0000,  999.0000,  999.0000,    7.8847,    8.7965,  999.0000,   10.7595,   11.8489,   13.3151,  999.0000,  999.0000,  999.0000,  999.0000,  999.0000,   20.7178,   20.0554,   20.0154,   19.8696,  999.0000,  999.0000,  999.0000,   21.0517,   21.3092,   21.1851,   21.7984,   22.6041,  999.0000,  999.0000,   25.3279,  999.0000,   25.0657,   24.8888,   25.4781,   25.5651,   26.0592,   26.0861,   27.2240,   28.7716,   30.1081,   28.8268,   29.7551,   29.9237,   29.6991,   29.3915,   30.2504,   32.9835,   35.2160,   35.4359,   35.2501,   36.5863,   38.0361,   38.6183,   38.0928,   36.8964,   36.5191,   36.1159,   36.1701,   36.1453,   35.9463,   35.4753,   36.4414,   38.5623,   39.7798,
  1-NOV-1996 02:48:59.37,   -2.0934,  999.0000,    2.7387,    4.6287,  999.0000,  999.0000,  999.0000,  999.0000,  999.0000,  999.0000,  999.0000,  999.0000,  999.0000,  999.0000,   17.5395,   17.6518,   18.2652,   18.6998,  999.0000,  999.0000,  999.0000,   20.3960,   20.9411,   20.7155,   20.3191,   19.9814,   21.2919,   22.4008,   24.7536,   25.4346,   27.0337,   27.1321,   26.3982,   26.7933,   26.9140,   26.2635,   26.4524,   26.1896,   26.3932,   27.8256,   28.0232,   27.7005,   27.4232,   28.3995,   28.9896,   28.4167,   29.8133,   32.0403,   33.4530,   33.6491,   32.9653,   33.6715,   35.2557,   35.8988,   36.1788,   36.4218,   36.2530,   35.5990,   35.6022,   35.9359,   35.3565,   34.8283,   35.0106,   37.1098,   37.8834,
  1-NOV-1996 02:53:33.62,  999.0000,  999.0000,  999.0000,  999.0000,  999.0000,   11.1449,   12.1422,   13.4327,  999.0000,  999.0000,  999.0000,  999.0000,  999.0000,  999.0000,  999.0000,   17.5703,   17.8081,   16.9341,  999.0000,  999.0000,  999.0000,  999.0000,  999.0000,   19.9039,   19.1965,   20.6522,   20.9173,   22.1508,   22.7100,   21.8741,   22.2001,   23.6827,   25.1248,   26.1614,   25.9255,   25.6272,   25.9458,   25.6299,   26.9735,   28.6450,   28.3411,   27.7866,   28.4996,   29.0464,   29.3173,   30.8185,  999.0000,  999.0000,   34.7920,   33.5215,   33.0969,   35.0087,   36.7963,   37.3458,   37.3942,   37.3435,   36.3478,   35.3730,   35.1509,   34.7991,   34.2529,   34.7086,   35.2870,   36.8133,   38.1252,
  1-NOV-1996 02:58:09.53,  999.0000,  999.0000,  999.0000,  999.0000,  999.0000,  999.0000,  999.0000,  999.0000,  999.0000,  999.0000,  999.0000,  999.0000,  999.0000,  999.0000,  999.0000,  999.0000,  999.0000,  999.0000,  999.0000,   19.1047,   20.0074,  999.0000,   21.9111,   22.0820,   21.3258,   22.1850,   21.7607,   20.7792,   19.5273,   19.4477,   20.5826,   22.2330,   23.3102,   24.7117,   25.9556,   26.0057,   25.3805,   24.7757,   25.7785,   27.4833,   27.9013,   28.0227,   28.5618,   29.0477,   29.7419,   31.7020,   32.3494,   32.9682,   34.5578,   33.5384,   33.1425,   35.6162,   36.4512,   36.4428,   36.4520,   36.4350,   36.0757,   35.9863,   36.0016,   35.5066,   34.6469,   34.6945,   36.1040,  999.0000,  999.0000,
  1-NOV-1996 03:02:43.53,   -1.8723,  999.0000,    4.2362,    5.7577,  999.0000,  999.0000,  999.0000,  999.0000,  999.0000,   13.7958,   14.2175,  999.0000,  999.0000,  999.0000,  999.0000,  999.0000,  999.0000,   19.1486,   19.5701,   19.7002,  999.0000,   21.5488,   21.4678,   17.4583,   16.2208,   15.9475,   19.8495,   16.8460,   17.5671,   18.7170,  999.0000,  999.0000,   24.3357,   23.9533,   24.6844,   24.1048,   22.4127,   23.1159,   25.4376,   26.3139,   26.5299,   27.6366,   28.0337,   27.9924,   29.3104,   31.1687,   31.4381,   32.2041,   34.5460,   34.3527,   33.4431,   34.9482,   35.7956,   35.1757,   34.6700,   34.3486,   34.1457,   34.8824,   35.4600,   35.8909,  999.0000,   35.5417,   36.7844,   37.9039,   39.7307,
  1-NOV-1996 03:07:17.33,   -4.1359,  999.0000,  999.0000,  999.0000,  999.0000,  999.0000,  999.0000,  999.0000,  999.0000,  999.0000,  999.0000,  999.0000,  999.0000,  999.0000,  999.0000,   16.6112,   18.6669,   19.4304,  999.0000,   21.1646,   21.0344,   20.5296,  999.0000,   19.2766,   18.2501,   19.1667,   17.9831,   20.5203,   19.9979,   20.8814,   22.0056,   22.6060,   23.7623,   24.0312,   24.2763,   24.6053,   24.5319,   24.6649,   26.4216,   27.3356,   28.0580,   28.8618,   28.2818,   28.6020,   30.8168,   32.0229,   32.0640,   32.8701,   34.2135,   33.5971,   33.0468,   34.0799,   35.5642,   35.1579,   34.0426,   33.8996,   33.5392,   33.9187,   34.6997,   35.0893,   34.2791,   34.3671,   36.6205,   38.5970,   40.0368,
  1-NOV-1996 03:11:51.79,   -7.9591,  999.0000,  999.0000,  999.0000,  999.0000,  999.0000,  999.0000,  999.0000,  999.0000,  999.0000,  999.0000,  999.0000,  999.0000,  999.0000,  999.0000,  999.0000,  999.0000,   19.9968,   20.3575,   20.6378,   19.8525,   18.9443,   18.2951,   17.5888,   17.3200,   16.5421,   15.3429,   17.3722,   18.9069,   21.5120,   23.6607,   25.5245,   25.1555,   25.7332,   26.4126,   26.7931,   26.6530,   28.1232,   29.2394,   29.4702,   30.4999,   30.3577,   29.9583,   31.0056,   32.7189,   30.7032,   30.5928,   32.9542,   33.7664,   32.9985,   33.2814,   34.4828,   34.7773,   34.3862,   33.9635,   33.7317,   34.1722,   34.6191,   34.9981,   35.5549,   35.3454,   34.7746,   36.1274,   38.2144,   39.4338,
  1-NOV-1996 03:16:29.69,   -5.2029,   -2.4099,   -0.6548,    0.9544,  999.0000,  999.0000,    8.3030,   10.0300,  999.0000,  999.0000,  999.0000,  999.0000,  999.0000,  999.0000,  999.0000,  999.0000,   21.4475,   20.0643,  999.0000,   19.2107,   19.7703,   19.8847,   19.6016,   18.1995,   18.3325,   17.5735,   17.6337,   19.8110,   22.6647,   24.3509,   24.5683,   25.7243,   26.0941,   26.8837,   26.0590,   27.5091,   29.4078,   30.8374,   30.7509,   30.6106,   31.2648,   30.3879,   30.6818,   33.0573,   33.7612,   31.8348,   33.9236,   34.2607,   33.3525,   33.3279,   33.1675,   35.2095,   34.8706,   33.8053,   34.1192,   34.0498,   33.9256,   34.4715,   35.0094,   35.1859,   34.9223,   35.0868,   36.9193,   39.5703,   41.3298,
  1-NOV-1996 03:21:08.10,   -5.6184,  999.0000,  999.0000,  999.0000,  999.0000,  999.0000,  999.0000,  999.0000,  999.0000,  999.0000,  999.0000,  999.0000,  999.0000,  999.0000,  999.0000,  999.0000,  999.0000,  999.0000,   21.0294,   22.2202,   22.1347,  999.0000,  999.0000,   20.0369,   18.7634,   17.5996,   16.3377,  999.0000,   18.3055,   19.2576,   20.9236,   22.6273,   23.2462,   24.0494,   25.1665,   26.4040,   27.8696,   29.6356,   31.1494,   31.9980,   31.9082,   31.2792,   32.8545,   35.1362,   36.3356,   35.6029,   34.5662,   35.2597,   34.7200,   34.7459,   35.7187,   36.2763,   34.8383,   33.6078,   34.1454,   34.1698,   33.8628,   34.5856,   34.7671,   34.7591,   34.6697,   35.9112,   38.6138,   40.1851,  999.0000,
  1-NOV-1996 03:25:44.90,   -3.7272,  999.0000,  999.0000,  999.0000,  999.0000,  999.0000,  999.0000,  999.0000,  999.0000,  999.0000,  999.0000,  999.0000,  999.0000,  999.0000,  999.0000,  999.0000,  999.0000,  999.0000,  999.0000,  999.0000,  999.0000,   21.1310,   20.0911,   16.3915,   16.6467,   17.3084,   16.3161,   18.0902,   17.5104,   17.5835,   18.5024,   19.4426,   20.8355,   22.0379,   22.4788,   22.5898,   23.1536,   25.3115,   27.1455,   28.3924,   31.1906,   32.5175,  999.0000,   31.7587,   32.2976,   33.1486,  999.0000,  999.0000,   32.7966,   32.6928,   34.3564,   35.1040,   35.2429,   35.3169,   35.7475,   35.3062,   34.9329,   34.8125,   34.8849,   35.2212,  999.0000,   37.2364,   38.2085,   40.7463,  999.0000,
  1-NOV-1996 03:30:18.86,  999.0000,  999.0000,  999.0000,  999.0000,  999.0000,  999.0000,  999.0000,  999.0000,  999.0000,  999.0000,  999.0000,  999.0000,  999.0000,  999.0000,  999.0000,  999.0000,  999.0000,  999.0000,  999.0000,  999.0000,  999.0000,  999.0000,   16.5802,   12.2908,   12.5798,   13.6677,   14.0523,   18.4259,   16.8199,   18.3759,   18.8173,   19.5386,   21.2651,   22.5353,   23.1752,   23.2715,   24.0809,   24.3680,   23.7441,   24.0394,   26.6319,   27.2675,   27.7268,   28.1308,  999.0000,   31.4882,   32.2024,   32.2575,   32.3486,   34.4701,   35.9423,   35.7879,   36.0084,  999.0000,  999.0000,   36.1250,   35.5572,   35.5428,   35.3082,   34.5223,   33.9223,   35.9754,   37.6842,   39.4184,  999.0000,
  1-NOV-1996 03:34:52.70,  999.0000,  999.0000,  999.0000,  999.0000,  999.0000,  999.0000,  999.0000,  999.0000,  999.0000,  999.0000,  999.0000,  999.0000,  999.0000,  999.0000,  999.0000,  999.0000,  999.0000,  999.0000,  999.0000,   19.9595,   18.8531,   18.6754,   19.2209,   16.6993,   16.2911,   15.9039,   15.2925,   16.3323,   16.1952,   19.8012,   17.5906,   18.1849,   18.3960,   19.2297,   19.3632,   18.7341,   19.8798,   21.3422,   23.3971,   24.3847,   24.8810,   25.9952,   28.3304,   30.0796,   31.7029,   31.1134,   32.9311,   33.0639,   31.3470,   32.6385,   34.9342,   34.8227,   34.2240,   34.7197,   35.8457,   36.4881,   36.1591,   35.9527,   36.5074,   36.6037,   35.2422,   36.2625,   37.2509,  999.0000,  999.0000,
  1-NOV-1996 03:39:27.20,   -2.5685,   -1.5218,  999.0000,  999.0000,  999.0000,  999.0000,  999.0000,  999.0000,  999.0000,  999.0000,  999.0000,  999.0000,  999.0000,  999.0000,  999.0000,   22.4311,   21.5520,   20.3581,   19.2134,   19.0179,   18.3699,   18.0488,   17.8185,   17.2564,   17.8130,   18.6554,   19.5333,   19.3924,   18.5890,   18.4841,   17.7226,  999.0000,   18.0085,   18.5395,   17.1454,   16.9237,   18.3690,   20.5081,   23.3666,   25.3296,   26.7031,   28.9763,   31.2799,   32.4439,   32.2147,   34.6245,   35.1916,   33.8747,   34.1427,   36.2201,   37.6419,   37.5267,   37.7024,   37.7715,   37.4943,   37.6819,   38.0676,   38.4160,   38.6617,   38.1798,   38.4108,   39.2123,   39.2821,   42.0744,   42.0925,
  1-NOV-1996 03:44:03.75,   -1.5123,  999.0000,  999.0000,  999.0000,  999.0000,  999.0000,  999.0000,  999.0000,  999.0000,  999.0000,  999.0000,  999.0000,  999.0000,  999.0000,  999.0000,  999.0000,  999.0000,  999.0000,   21.1859,   20.5702,   19.9459,   19.7435,   20.1758,   20.0561,   19.9435,   20.8418,   21.9883,   22.4725,   21.8681,   20.1860,   18.9654,   18.6408,   19.3697,   19.8982,   20.4961,   20.3980,   21.5585,   21.0178,   20.3788,   21.8933,   23.6580,   25.0086,   26.6354,   28.0533,   28.5222,   31.1441,   31.8953,   31.1514,   32.0792,   33.6368,   34.5339,   34.5873,   34.8916,   35.6105,   35.5531,   35.6727,   35.9222,   35.9035,   36.8309,   37.2296,   37.0648,   38.5532,   38.4825,  999.0000,  999.0000,
  1-NOV-1996 03:48:40.46,   -0.6537,  999.0000,  999.0000,  999.0000,  999.0000,  999.0000,  999.0000,  999.0000,  999.0000,  999.0000,  999.0000,  999.0000,  999.0000,  999.0000,  999.0000,  999.0000,  999.0000,  999.0000,   19.0987,   17.7376,   17.7017,   18.4151,   17.8150,   17.3569,   17.8739,   19.3408,   20.3408,   20.7795,   20.5227,   18.3677,   16.8917,   16.1379,   17.1067,   19.6876,  999.0000,   21.0350,   20.7950,   21.8446,   23.8526,   25.8144,   27.8332,   29.1447,   30.8091,   31.1325,   30.3301,   31.2716,   33.0615,   33.1579,   34.8504,   35.9020,   36.5918,   37.1834,   36.5615,   36.0877,   36.0039,   36.1395,   35.8351,   35.9932,   36.8423,   36.5684,   36.3486,   37.9656,   39.0880,   39.9933,  999.0000,
  1-NOV-1996 03:53:14.68,   -1.3831,  999.0000,  999.0000,  999.0000,  999.0000,  999.0000,  999.0000,  999.0000,  999.0000,  999.0000,  999.0000,  999.0000,  999.0000,  999.0000,  999.0000,  999.0000,  999.0000,   22.4518,   21.2499,   19.2052,   19.2801,   19.9313,  999.0000,  999.0000,   21.4335,   21.6432,   22.7011,   22.9342,  999.0000,   20.6490,   20.3065,   19.7700,   20.4863,   22.7896,   24.7929,   18.1125,   24.8130,   25.0356,   26.0291,   26.9416,   27.6989,   28.7782,   29.9293,   29.4773,   28.7475,   30.6092,   32.1103,   32.1160,   33.2000,   34.3338,   34.9112,   35.1792,   35.0300,   35.1403,   35.4488,   35.4415,   35.5675,   36.1240,   35.9620,   35.9554,   35.9869,   36.8122,   38.4171,   39.5743,  999.0000,
  1-NOV-1996 03:58:32.32,   -2.5627,  999.0000,  999.0000,  999.0000,  999.0000,  999.0000,  999.0000,  999.0000,  999.0000,  999.0000,   21.6514,   21.7459,  999.0000,  999.0000,  999.0000,  999.0000,  999.0000,  999.0000,  999.0000,  999.0000,   18.9832,   18.3589,   17.7788,   17.4057,   19.0968,   19.6993,   20.8495,   21.0398,   20.0618,   19.3318,   19.1670,   21.0971,   22.1476,   23.8409,   24.1385,   24.5897,   23.0515,   24.7560,   26.4741,   26.9010,   27.0695,   28.3085,   28.6144,   27.2712,   28.4292,   30.8309,   31.0743,   30.8018,   32.0505,   33.3088,   34.1419,   34.3476,   34.0191,   33.8217,   34.1103,   34.4515,   35.2931,   35.0288,   35.3266,   33.5787,   33.9500,   34.7656,   36.4334,   38.1048,  999.0000,
  1-NOV-1996 04:03:03.40,   -0.6945,  999.0000,  999.0000,  999.0000,  999.0000,  999.0000,  999.0000,  999.0000,  999.0000,  999.0000,  999.0000,  999.0000,  999.0000,  999.0000,  999.0000,  999.0000,  999.0000,  999.0000,  999.0000,  999.0000,  999.0000,  999.0000,   18.4617,   16.5571,   17.3872,   17.3047,   18.0857,   18.5500,   19.2049,   20.5539,   21.2869,   21.6249,   20.7129,   25.4037,   24.1598,   23.2749,   23.1058,   26.7132,   28.2113,   27.6794,   27.9392,   27.6950,   27.4401,   27.3455,   27.4897,   29.9005,   31.7847,   31.0992,   30.8944,   33.1003,   34.3474,   33.7150,   33.4738,   33.0549,   33.4326,   34.3216,   34.7704,   35.3384,   36.2436,   34.8384,   34.1450,   34.4916,   36.3437,   37.4626,  999.0000,
  1-NOV-1996 04:07:32.61,   -0.6014,  999.0000,  999.0000,  999.0000,  999.0000,  999.0000,  999.0000,  999.0000,  999.0000,  999.0000,  999.0000,  999.0000,  999.0000,  999.0000,  999.0000,  999.0000,  999.0000,  999.0000,  999.0000,  999.0000,  999.0000,  999.0000,   19.2890,   17.3962,   16.8449,   17.8701,   17.3857,   19.0795,   19.9948,   21.5433,   21.7609,   20.9603,  999.0000,  999.0000,   23.1205,   23.5729,   23.2235,   25.6678,   27.3974,   28.4629,   29.0284,   27.9602,  999.0000,   27.2700,   28.4670,   29.4247,  999.0000,   30.3999,  999.0000,   32.4841,   33.7188,   33.4093,   33.2392,   33.2735,   33.4549,   33.9955,  999.0000,  999.0000,  999.0000,  999.0000,  999.0000,  999.0000,  999.0000,  999.0000,  999.0000,
  1-NOV-1996 04:12:01.68,  999.0000,  999.0000,  999.0000,  999.0000,  999.0000,  999.0000,  999.0000,  999.0000,  999.0000,  999.0000,  999.0000,  999.0000,  999.0000,  999.0000,  999.0000,  999.0000,   27.0776,   26.7518,  999.0000,  999.0000,   22.9970,   22.6666,   21.3184,   21.2379,   19.9439,   19.1387,   18.4569,   19.0187,   20.2157,   21.4320,   21.9710,   20.8659,   20.1544,   22.2182,   23.5639,   24.1590,   25.7558,   25.8666,   26.8781,   28.6370,   28.8427,   27.5947,   28.0818,   28.1864,   29.0098,   31.1812,   32.1339,  999.0000,  999.0000,   33.6740,   33.9974,   34.0429,   34.0690,  999.0000,   33.7954,   34.1457,   34.4292,   34.6938,   34.3835,   33.6923,   33.1534,   33.8199,   36.0019,  999.0000,   38.1158,
  1-NOV-1996 04:16:31.86,  999.0000,  999.0000,  999.0000,  999.0000,  999.0000,  999.0000,  999.0000,  999.0000,  999.0000,  999.0000,  999.0000,  999.0000,  999.0000,  999.0000,  999.0000,  999.0000,  999.0000,  999.0000,  999.0000,  999.0000,  999.0000,  999.0000,  999.0000,   16.7912,   16.9972,  999.0000,   17.2785,   18.2648,   20.0857,   20.9391,   22.1062,   21.8434,   23.1149,  999.0000,  999.0000,   25.7567,   25.1795,   26.6331,   28.7815,  999.0000,  999.0000,  999.0000,   27.4613,   26.6408,   28.2180,  999.0000,   30.1873,   31.2929,   33.3187,   33.9009,   34.0204,   33.8549,   34.0328,   34.1048,   34.4930,   34.5690,   34.1464,   33.3745,   33.4399,   33.6750,   33.1565,   34.1752,   36.3457,   38.8530,   39.1804,
  1-NOV-1996 04:21:01.70,  999.0000,  999.0000,  999.0000,  999.0000,  999.0000,  999.0000,  999.0000,  999.0000,  999.0000,  999.0000,  999.0000,  999.0000,  999.0000,   24.4285,   24.8126,   24.8999,   23.7034,  999.0000,  999.0000,   20.0963,   19.9067,   20.6738,   21.7319,   20.9521,   20.7510,   20.7883,   21.8668,   23.3338,   23.8536,   23.8515,   23.8317,   23.9070,  999.0000,   23.6848,   24.9044,   26.5307,   26.5288,   27.4303,   28.7145,   28.6483,   27.9581,   27.8172,   26.8972,   27.7751,   29.5702,   31.0857,   31.0697,   32.8016,   34.3889,   34.2485,   34.0347,   33.9757,   33.9190,   33.4810,   33.2171,   32.7317,   32.9218,   33.0822,   32.9944,   33.2357,   32.4421,   33.0782,   35.2747,  999.0000,   38.7406,
  1-NOV-1996 04:25:31.66,    1.2973,  999.0000,  999.0000,  999.0000,  999.0000,  999.0000,  999.0000,  999.0000,  999.0000,  999.0000,  999.0000,  999.0000,  999.0000,  999.0000,  999.0000,   24.8517,   24.7879,  999.0000,   23.4355,   22.8176,   22.0295,   21.7683,   21.7438,   19.3653,   19.2840,   19.3857,   20.2050,   21.5137,   22.0306,   23.2640,   22.6715,  999.0000,  999.0000,   24.5729,   25.5887,   26.0304,   28.0567,   29.0371,   29.6249,   28.8595,   27.9921,   26.3324,  999.0000,   28.9146,   31.2134,   31.0514,   31.7328,   33.7622,   35.0924,   35.9904,   35.2411,   34.2575,   34.1911,   34.5869,   34.5833,   34.6455,   34.9592,   34.6014,   33.8173,  999.0000,   33.8842,   33.8473,   35.2940,   37.7604,   38.4251,
  1-NOV-1996 04:30:00.94,  999.0000,  999.0000,  999.0000,  999.0000,  999.0000,  999.0000,  999.0000,  999.0000,  999.0000,  999.0000,  999.0000,  999.0000,  999.0000,  999.0000,  999.0000,  999.0000,  999.0000,  999.0000,  999.0000,  999.0000,   19.9434,   19.0891,   19.1306,   19.7787,   20.2211,   20.7050,   22.1700,   23.2558,   23.5839,   24.4366,   24.5458,   25.6321,  999.0000,   25.0278,   25.7731,   26.2316,   27.9526,   29.1644,   28.8101,   27.8264,   26.4459,   26.5473,   27.0459,   28.7872,   29.6671,   29.3713,   31.0372,   32.8500,   34.4955,   35.0205,   31.9443,   31.8917,   32.3737,   32.6467,   32.5927,   32.4270,   32.3401,   32.5218,   32.6676,   32.6785,   32.9421,   32.5200,   34.0437,   36.7895,   37.4423,
  1-NOV-1996 04:34:31.00,    3.6866,  999.0000,  999.0000,  999.0000,  999.0000,  999.0000,  999.0000,  999.0000,  999.0000,  999.0000,  999.0000,  999.0000,  999.0000,  999.0000,  999.0000,  999.0000,   23.5804,   22.6544,   21.7259,   20.0938,   19.7679,   19.1254,   19.8110,   20.0304,   20.9847,   21.0853,   21.7740,   22.2102,   23.1825,   22.7377,  999.0000,  999.0000,  999.0000,   25.3160,   25.9174,   26.8342,   27.3579,   28.0153,   28.1450,   27.3122,   25.7606,   25.4877,   26.8052,   28.9155,   29.5929,   29.4805,   31.2739,   32.6034,   32.5086,   32.5973,   32.1874,   32.1895,   31.6714,   31.2945,   31.7379,   32.2559,   32.1818,   32.0427,   31.8551,   31.7438,   31.7079,   31.8531,   33.6360,   35.5954,  999.0000,
  1-NOV-1996 04:39:00.37,    3.0089,    5.0452,    6.5984,    8.2236,  999.0000,  999.0000,  999.0000,  999.0000,   15.0338,   15.4364,  999.0000,  999.0000,  999.0000,   18.6149,   18.7660,  999.0000,  999.0000,  999.0000,  999.0000,   18.6529,   18.3706,   18.4889,   19.0620,   18.4659,   19.6509,   21.3428,   22.2023,   22.6216,   21.3488,   20.3671,   20.2131,  999.0000,   22.3825,   24.8835,   25.0050,   26.7004,   27.1522,   27.5539,   27.7196,   27.3035,   26.2414,   25.9175,   26.5716,   28.2534,   29.3961,   30.0408,   31.1754,   32.4942,   32.8692,   32.6913,   32.3267,   31.6744,   31.5770,   31.5640,   31.6830,   31.3018,   30.4613,   30.8243,   30.8093,   30.5074,   31.1389,   31.2995,   32.5152,   34.1338,   36.2269,
  1-NOV-1996 04:43:30.33,    3.0510,  999.0000,  999.0000,  999.0000,  999.0000,  999.0000,  999.0000,  999.0000,  999.0000,  999.0000,  999.0000,  999.0000,  999.0000,  999.0000,  999.0000,  999.0000,   22.1773,   21.4151,   20.9613,  999.0000,   19.6147,   20.4764,   20.5435,   19.8769,   21.3082,   22.6232,   22.5442,   22.6103,   21.6914,   20.3120,   19.9382,  999.0000,   23.1457,   24.7534,   24.3997,   24.3481,   25.1648,   25.9105,   25.7826,   25.8513,   25.0501,   25.6296,   25.5143,   26.5442,   28.5740,   28.8964,   28.9814,   31.8075,   33.1904,   32.6157,   31.6261,   31.1200,   30.4531,   30.3354,   30.3506,   30.2344,   31.1646,   32.1207,   32.0430,   32.2935,   32.8721,   32.2210,   32.8241,   34.5557,   35.6460,
  1-NOV-1996 04:48:01.23,    4.0104,  999.0000,  999.0000,  999.0000,  999.0000,  999.0000,  999.0000,  999.0000,  999.0000,  999.0000,  999.0000,  999.0000,  999.0000,  999.0000,  999.0000,   21.7189,   21.2924,  999.0000,   21.2080,   20.4544,   19.8630,  999.0000,   20.8072,   19.8837,   20.5008,   21.8430,   21.9742,   22.2807,   22.2632,   20.9078,   20.8507,   23.5790,   25.2373,   25.4506,   24.7307,   24.5276,   25.5906,   26.1510,   25.9530,   25.8391,   25.2114,   25.9193,   26.4694,   27.7706,   28.4558,   28.1522,   29.8418,   31.6813,   32.9504,   33.5821,   33.1365,   32.3882,   31.8173,   32.2933,   32.0174,   30.9272,   31.0704,   31.6529,   32.3239,   33.1852,   33.7770,   33.0730,   33.6595,   35.9557,   36.1421,
  1-NOV-1996 04:52:30.69,    3.2743,    6.3524,    8.9014,   10.2728,  999.0000,  999.0000,  999.0000,  999.0000,  999.0000,  999.0000,  999.0000,  999.0000,  999.0000,   16.5406,   17.6060,  999.0000,   20.5635,   20.1994,   20.1167,   20.1850,   20.9472,   20.0380,  999.0000,   19.8824,   19.7388,   20.7404,   20.9350,   21.1816,   21.5218,   21.8161,   22.8496,   24.7676,   26.3286,   29.4447,   24.6013,   24.1195,   25.7864,   26.1433,   26.2116,   25.2536,   25.3255,   25.5123,   25.3303,   26.9397,   28.2750,   28.9279,   30.1668,   31.0906,   32.2719,   33.8480,   33.8115,   32.6693,   32.4991,   32.4534,   31.8278,   31.4754,   31.6969,   32.0448,   32.2979,   32.8705,   32.4936,   32.5895,   34.6825,  999.0000,   37.7598,
  1-NOV-1996 04:57:00.10,   -0.6010,  999.0000,  999.0000,  999.0000,  999.0000,  999.0000,  999.0000,  999.0000,  999.0000,  999.0000,  999.0000,  999.0000,  999.0000,  999.0000,  999.0000,  999.0000,  999.0000,  999.0000,   21.3140,   20.8374,  999.0000,  999.0000,  999.0000,   19.6102,   19.4485,   19.7863,   19.8650,   20.3956,   20.8088,   21.4671,   22.6717,   24.7451,   26.7396,  999.0000,   25.0450,   23.8604,   24.8710,   25.1518,   25.7100,   25.1160,   24.4470,   24.6705,   25.4244,   25.9946,   26.8773,   28.2655,   28.9822,   29.7556,   30.9894,   32.4941,   31.9581,   31.3360,   30.9806,   30.8722,   31.1294,   31.0081,  999.0000,  999.0000,   32.1588,   31.5188,   31.0118,   31.4921,  999.0000,   34.8516,   35.7922,
  1-NOV-1996 05:01:29.66,   -1.4599,  999.0000,  999.0000,  999.0000,  999.0000,  999.0000,  999.0000,  999.0000,  999.0000,  999.0000,  999.0000,  999.0000,  999.0000,  999.0000,  999.0000,  999.0000,  999.0000,  999.0000,   21.8324,   21.9662,   21.6643,  999.0000,  999.0000,   18.8172,   18.8811,   20.2101,   19.7530,   20.0967,   21.1732,   22.2924,   24.3957,  999.0000,  999.0000,  999.0000,   26.9707,  999.0000,   24.1746,   24.2445,   25.0607,   25.0412,   24.9266,   25.4050,   25.4742,   26.1243,   27.5498,   28.7442,   29.8137,   30.2580,   31.6878,   32.9363,   32.3912,  999.0000,  999.0000,   32.0538,   32.1465,   31.6539,   31.4827,   31.6190,   31.5636,   31.3740,   31.5307,   31.9056,   33.4222,   34.4690,   34.9373,
  1-NOV-1996 05:05:59.72,   -1.1160,  999.0000,  999.0000,  999.0000,  999.0000,   13.0273,   13.4242,   13.9441,  999.0000,  999.0000,  999.0000,  999.0000,  999.0000,  999.0000,  999.0000,  999.0000,  999.0000,  999.0000,  999.0000,  999.0000,  999.0000,  999.0000,  999.0000,   17.9102,   19.0390,   20.8114,   19.9370,   20.2413,   21.4089,   22.8324,  999.0000,   25.9035,  999.0000,  999.0000,   26.3718,  999.0000,   23.9750,   24.5691,   25.1758,   25.5104,   25.6225,   25.2648,   25.5342,   25.5700,   26.6899,   28.5104,   29.7771,   30.5539,   31.4879,   32.2851,   32.2287,   31.4797,   30.5686,   30.5650,   30.3104,   30.4117,   31.0966,   31.6889,   32.0606,   32.1810,   32.5228,   32.4657,   33.7748,   35.8909,   36.6559,
  1-NOV-1996 05:10:29.69,   -0.8646,  999.0000,  999.0000,  999.0000,  999.0000,  999.0000,  999.0000,   15.8382,   16.3184,   16.3094,   16.2653,  999.0000,  999.0000,  999.0000,  999.0000,  999.0000,  999.0000,  999.0000,  999.0000,  999.0000,  999.0000,  999.0000,  999.0000,  999.0000,   18.2576,   19.3743,   20.8845,   21.2128,   21.7071,   23.0152,  999.0000,   22.7754,   23.2666,   25.2407,   26.0630,   25.7044,   24.9182,   24.3184,   24.2727,   23.7466,   23.9138,   24.1040,   23.9689,   25.1865,   25.6600,   27.1208,   28.3906,   29.4872,   31.0321,   31.7991,  999.0000,  999.0000,   30.1419,   29.7630,   30.0943,   30.7645,   31.6510,   32.0976,   31.5996,   31.0777,   31.4742,  999.0000,   34.4820,   35.6631,   37.4152,
  1-NOV-1996 05:15:01.01,   -1.4535,  999.0000,  999.0000,  999.0000,  999.0000,   10.6244,   11.1273,  999.0000,  999.0000,  999.0000,  999.0000,  999.0000,  999.0000,  999.0000,  999.0000,  999.0000,  999.0000,  999.0000,  999.0000,  999.0000,  999.0000,  999.0000,  999.0000,   13.3954,   15.3444,   15.6255,   18.5664,   22.1110,  999.0000,  999.0000,   29.6094,   29.5014,   29.8327,   29.4337,  999.0000,   26.3757,   27.7495,   29.1062,   29.2876,  999.0000,   27.5736,   27.4922,   27.1527,   24.9205,   28.6732,   29.7113,   30.7089,  999.0000,  999.0000,   32.3282,   31.3294,   31.4049,   31.4228,   31.6320,   31.5987,   32.2541,   33.0804,   32.6654,   31.6008,   31.8406,   32.5380,   33.1462,   34.1382,   35.7115,   38.1801,
  1-NOV-1996 05:19:32.23,   -0.0953,  999.0000,  999.0000,  999.0000,  999.0000,  999.0000,  999.0000,  999.0000,  999.0000,  999.0000,  999.0000,  999.0000,  999.0000,  999.0000,  999.0000,  999.0000,  999.0000,  999.0000,  999.0000,  999.0000,  999.0000,  999.0000,  999.0000,   13.0993,   14.7725,   15.9031,   17.0313,   19.8653,   20.6851,   19.8953,   22.3592,   22.6990,  999.0000,  999.0000,   21.2384,   21.3992,   22.3923,   23.5517,   23.8395,   24.0708,   26.0429,   26.8491,   28.0028,   29.4885,   30.6429,  999.0000,  999.0000,   31.1851,   32.2040,   32.4664,   32.5441,   32.6887,  999.0000,  999.0000,   32.1841,   32.7512,   33.8119,   34.4492,   34.1992,   34.1243,   33.4397,   33.5054,   35.8504,   36.3386,   38.4981,
  1-NOV-1996 05:24:03.53,  999.0000,  999.0000,  999.0000,  999.0000,  999.0000,  999.0000,  999.0000,  999.0000,  999.0000,  999.0000,  999.0000,  999.0000,  999.0000,  999.0000,  999.0000,  999.0000,  999.0000,  999.0000,  999.0000,  999.0000,  999.0000,  999.0000,  999.0000,   17.5845,  999.0000,  999.0000,  999.0000,   13.8205,   14.6571,   14.2467,   15.5899,   15.7585,   16.2088,   16.8718,   16.4420,   17.7894,   19.1677,   19.9629,   20.5333,   21.6408,   21.9070,   21.7351,  999.0000,   25.9789,   26.8459,  999.0000,  999.0000,   31.4430,   33.2684,   33.5613,   33.7655,   33.3569,   32.7286,   33.6188,   33.9370,   33.6432,   33.7323,   33.8057,   33.9156,   35.0482,   35.2064,   36.2211,   37.8365,   37.4521,  999.0000,
  1-NOV-1996 05:28:33.08,  999.0000,  999.0000,  999.0000,  999.0000,  999.0000,  999.0000,  999.0000,  999.0000,  999.0000,  999.0000,  999.0000,  999.0000,  999.0000,  999.0000,  999.0000,  999.0000,  999.0000,  999.0000,  999.0000,  999.0000,  999.0000,  999.0000,  999.0000,  999.0000,   16.9106,   21.6502,   22.5167,   21.6834,   21.3755,   20.7110,  999.0000,   16.2376,   16.2116,   16.5874,   17.2391,   17.9205,  999.0000,  999.0000,   16.0131,   16.5885,   18.1808,  999.0000,  999.0000,  999.0000,   21.1928,   20.3041,   21.7261,   25.4873,   27.0954,   28.5579,   30.3907,   30.9074,   30.5813,   30.6014,   30.9397,   31.6737,   31.9061,   31.8797,   31.8181,   32.6314,   33.1283,   34.7593,  999.0000,  999.0000,   37.6040,
  1-NOV-1996 05:33:02.70,  999.0000,  999.0000,  999.0000,  999.0000,  999.0000,   15.2728,   15.7734,  999.0000,  999.0000,  999.0000,  999.0000,  999.0000,  999.0000,  999.0000,  999.0000,  999.0000,  999.0000,  999.0000,  999.0000,  999.0000,  999.0000,  999.0000,  999.0000,   17.7495,   18.5042,   19.7659,   20.7841,   20.7599,  999.0000,   19.5240,   17.5470,   16.3188,   14.5828,   14.3750,   16.1011,   17.3293,  999.0000,   17.1946,   17.1765,   16.6230,   15.7202,   16.1069,   18.8643,   22.0798,   23.0119,  999.0000,   25.1417,   26.5359,   27.2017,   28.9353,   30.4739,   30.9383,   31.3074,   31.7757,   31.8244,   32.0380,   32.4162,   32.9492,   33.4681,   33.0652,   32.4661,   33.8864,  999.0000,   36.0144,   37.1653,
  1-NOV-1996 05:37:32.02,   -0.2818,  999.0000,  999.0000,  999.0000,  999.0000,  999.0000,  999.0000,  999.0000,  999.0000,  999.0000,  999.0000,  999.0000,  999.0000,  999.0000,  999.0000,  999.0000,  999.0000,  999.0000,  999.0000,  999.0000,  999.0000,  999.0000,  999.0000,   17.2354,   17.9267,   19.5647,   20.7973,   22.2728,   22.0147,   20.2579,   19.0317,  999.0000,   15.9575,   16.4747,   16.7875,   17.5228,   18.6238,   19.7737,   20.0331,   19.8576,   20.4363,   21.7354,   23.2010,   26.2908,   27.9955,   29.0109,   29.6130,   30.5865,   31.0938,   31.3440,   31.2981,   32.4516,   33.6892,   33.7254,   33.0141,   33.3177,   33.6643,   34.1600,   34.7852,   34.3529,   33.3519,   34.2507,   37.7918,   37.9309,   39.7677,
  1-NOV-1996 05:42:02.84,    0.3848,  999.0000,  999.0000,  999.0000,  999.0000,  999.0000,  999.0000,  999.0000,  999.0000,  999.0000,  999.0000,  999.0000,  999.0000,  999.0000,  999.0000,  999.0000,  999.0000,  999.0000,  999.0000,  999.0000,  999.0000,  999.0000,  999.0000,   15.0133,   16.6678,   18.6164,   19.2244,   19.2934,   20.3510,   21.6389,   22.6092,   21.3539,  999.0000,  999.0000,  999.0000,  999.0000,  999.0000,   13.7287,   13.4868,   13.8237,   14.7839,   16.5024,   16.9002,   18.2125,   20.0115,  999.0000,  999.0000,   24.5096,   25.4015,   26.3714,   27.9070,   29.4106,   30.4901,   30.4832,   30.3962,   31.0080,   31.6274,   31.5281,   31.3332,   31.5305,   30.6135,   31.7213,   34.5415,   35.5187,   37.4133,
  1-NOV-1996 05:46:32.03,  999.0000,  999.0000,  999.0000,  999.0000,  999.0000,  999.0000,  999.0000,  999.0000,  999.0000,  999.0000,  999.0000,  999.0000,  999.0000,  999.0000,  999.0000,  999.0000,   17.3128,   18.0896,  999.0000,  999.0000,  999.0000,  999.0000,  999.0000,   12.3172,   12.4583,   13.2190,   14.3628,   14.6640,   15.3577,   15.1671,  999.0000,  999.0000,  999.0000,   23.4286,   22.8675,   21.3634,   18.5062,   17.0451,   16.6449,   17.2269,   17.4851,   17.9076,   19.2096,   21.3811,   23.4920,   25.6617,  999.0000,   26.7458,   27.8370,   28.5539,   29.7178,   30.8918,   31.3741,   31.0970,   31.3982,   31.4992,   31.1282,   31.2041,   31.4829,   31.4799,   30.7512,   31.3332,   33.8565,   34.4273,   36.4924,
  1-NOV-1996 05:51:01.99,    0.4222,    4.0972,    7.4609,  999.0000,  999.0000,  999.0000,  999.0000,  999.0000,  999.0000,  999.0000,  999.0000,  999.0000,  999.0000,  999.0000,  999.0000,  999.0000,  999.0000,  999.0000,  999.0000,  999.0000,  999.0000,  999.0000,  999.0000,   14.0985,   15.4469,   16.0900,   17.2578,   17.5227,   17.6816,   18.2608,   20.6917,   21.7266,   21.5825,   22.5536,   22.4774,   22.3550,  999.0000,   18.2862,   17.9348,   18.4537,   18.7014,   19.7418,   22.2722,   24.6129,   25.4652,   26.4542,   27.0966,   27.7761,   28.0015,   28.3473,   29.2389,   30.5842,   31.8632,   32.1314,   31.6490,   31.3479,   31.3545,   31.0987,   31.3937,  999.0000,   30.5400,   31.7668,  999.0000,  999.0000,   38.7877,
  1-NOV-1996 05:55:31.68,    0.9208,    4.2682,    7.5660,  999.0000,  999.0000,  999.0000,  999.0000,  999.0000,  999.0000,   16.4657,   16.4509,  999.0000,  999.0000,  999.0000,  999.0000,   19.0578,   17.9662,  999.0000,  999.0000,  999.0000,  999.0000,  999.0000,  999.0000,   14.1036,   14.8861,   15.7803,   16.7897,   17.9753,   19.2045,   21.0355,   22.5845,   23.3656,   22.7749,   22.5097,   23.2622,   22.7349,   20.3138,   18.7452,   18.4196,   19.4740,   20.2622,   22.5302,   24.8170,   25.1354,   25.9919,   26.9115,   27.0001,   27.2773,   27.5470,  999.0000,  999.0000,   31.9798,   33.1458,   33.4083,   32.8042,   31.7932,   31.8364,   31.7291,   31.7200,   31.6563,   31.2399,   32.0273,   34.1189,  999.0000,  999.0000,
  1-NOV-1996 06:00:01.25,   -0.3347,    2.6443,    5.6842,  999.0000,  999.0000,  999.0000,  999.0000,  999.0000,  999.0000,  999.0000,  999.0000,  999.0000,  999.0000,  999.0000,  999.0000,  999.0000,  999.0000,  999.0000,  999.0000,  999.0000,  999.0000,  999.0000,  999.0000,   12.5678,   13.5296,   14.5947,   16.1534,   18.6356,   20.6494,   21.2421,   23.1043,   25.1732,   25.2063,  999.0000,   24.3849,   24.3107,  999.0000,   18.2475,   19.3086,   20.0722,   22.0288,   24.7406,   26.2946,   26.8969,   27.8150,   27.7769,   27.2478,   27.2785,   27.9009,   29.4042,   30.0602,   31.7820,   32.5352,  999.0000,  999.0000,   31.4961,   32.1796,   32.7059,   32.6889,   32.4534,   32.1221,   33.1203,  999.0000,  999.0000,  999.0000,
  1-NOV-1996 06:04:30.50,   -1.6226,    1.2586,    4.5003,  999.0000,  999.0000,  999.0000,  999.0000,  999.0000,  999.0000,  999.0000,  999.0000,   15.5241,   15.5414,  999.0000,  999.0000,  999.0000,  999.0000,  999.0000,  999.0000,  999.0000,  999.0000,  999.0000,  999.0000,   13.7355,   13.5083,   14.3314,   16.6482,   18.2668,   20.1571,   21.8277,   22.5285,   23.7225,   23.3749,   22.2741,   23.7373,  999.0000,   20.6704,  999.0000,   18.4949,   18.8384,   21.0059,   24.2481,   25.7730,   26.3329,   26.8506,   26.0519,   25.5069,   26.9868,   28.6936,   29.0947,   29.6350,   31.8934,   31.9398,   31.6321,   32.4500,   32.4276,   32.1745,   32.3847,   32.6652,   32.9647,   32.9865,   33.5509,   34.8842,   37.1340,   40.4268,
  1-NOV-1996 06:09:00.11,   -0.2599,    2.5252,    5.7476,  999.0000,  999.0000,  999.0000,  999.0000,  999.0000,  999.0000,  999.0000,  999.0000,  999.0000,  999.0000,  999.0000,   16.2472,   16.2963,  999.0000,  999.0000,  999.0000,  999.0000,  999.0000,  999.0000,  999.0000,   13.5441,   12.9112,   14.8061,   17.1400,   19.2054,   21.3625,   22.8381,   22.5079,   23.2396,   23.5632,   23.3146,   22.4791,   22.8701,  999.0000,   18.1955,   18.4596,   18.9368,   20.1600,   23.4031,   25.5822,   25.9860,   25.6316,   25.4090,  999.0000,   26.9204,   28.8075,   30.0765,   31.3582,   32.7597,   33.6013,   35.1031,  999.0000,  999.0000,   32.6230,   33.1031,   32.9340,   32.4994,   32.4313,   33.2893,   35.6831,   38.5696,   40.8920,
  1-NOV-1996 06:13:29.58,    2.0275,  999.0000,  999.0000,  999.0000,  999.0000,  999.0000,  999.0000,  999.0000,  999.0000,  999.0000,  999.0000,  999.0000,  999.0000,  999.0000,  999.0000,  999.0000,  999.0000,  999.0000,  999.0000,  999.0000,  999.0000,  999.0000,  999.0000,   14.3129,   14.7454,   16.7297,   18.3401,   20.0087,   21.4029,   22.1793,   23.0630,  999.0000,   22.4334,   23.1261,   21.6655,   21.7325,   20.0504,   18.4461,   18.7984,   19.2328,   21.5577,   24.7000,   26.8008,   27.3212,   26.6090,   25.8259,   26.1275,  999.0000,  999.0000,   31.7448,   33.1190,   34.7285,   36.0288,   35.9131,   34.4386,   33.7599,   33.3170,   33.2139,   33.3553,   32.9629,   33.5092,   35.2432,   36.4133,   39.3298,   39.7026,
  1-NOV-1996 06:17:59.21,    1.7084,  999.0000,  999.0000,  999.0000,  999.0000,  999.0000,  999.0000,  999.0000,  999.0000,  999.0000,  999.0000,  999.0000,  999.0000,  999.0000,   16.2971,   16.3373,   18.2588,  999.0000,  999.0000,  999.0000,  999.0000,  999.0000,  999.0000,   16.1894,   17.6785,   18.3858,   19.5225,   21.3158,   22.5216,   22.8201,   23.8988,   23.7605,   22.1944,   23.0245,   21.5084,   20.6065,   19.3390,   18.8152,   18.6815,   20.0599,   23.0944,   25.6835,   26.4277,   26.7692,   26.4110,   25.3751,   25.9833,   28.2755,   30.6227,   32.0359,  999.0000,  999.0000,   34.2599,   32.8694,   32.8521,   32.6963,   32.7616,   33.6134,   34.1566,   35.4490,  999.0000,   38.3396,  999.0000,  999.0000,  999.0000,
  1-NOV-1996 06:22:28.77,    1.3595,  999.0000,   11.4584,   13.0376,  999.0000,  999.0000,  999.0000,  999.0000,  999.0000,  999.0000,  999.0000,  999.0000,  999.0000,  999.0000,  999.0000,  999.0000,  999.0000,  999.0000,  999.0000,  999.0000,  999.0000,  999.0000,  999.0000,   15.1258,   16.1559,   18.3342,   20.5292,   20.3589,   20.5720,   21.0994,   22.8424,   23.5609,   23.8459,   22.7682,  999.0000,   20.9568,   19.6344,   19.3458,   19.6431,   21.1351,   24.2031,   25.9876,   26.1135,   26.6197,   26.5850,   25.5919,   26.2472,   28.2693,   29.5650,   31.1301,   32.6926,   35.3571,   35.2527,   33.4168,   31.3353,   30.4192,   31.5104,   32.5567,   33.5572,   35.4626,   36.5509,  999.0000,   36.9124,   37.1545,   38.8323,
  1-NOV-1996 06:26:59.62,    1.1227,  999.0000,  999.0000,  999.0000,  999.0000,  999.0000,  999.0000,  999.0000,  999.0000,  999.0000,  999.0000,   15.8717,   15.7812,   15.9012,  999.0000,  999.0000,  999.0000,  999.0000,  999.0000,  999.0000,  999.0000,  999.0000,  999.0000,   16.1143,   16.8878,   18.8647,   20.2532,   19.7269,   19.9260,   20.1439,   21.4433,   22.3125,   22.1566,   22.2411,   22.6517,   21.8336,   19.4545,   19.4461,  999.0000,  999.0000,   24.1211,   25.3252,   25.5606,   26.5932,   27.1855,   26.7603,   26.5646,   27.8076,   28.9577,   29.9360,   30.9959,  999.0000,   34.0109,   31.2279,   30.5619,   30.4169,   31.0181,   32.6734,   35.0946,   35.2560,   36.9924,   38.0535,   36.9066,   37.6066,   40.1263,
  1-NOV-1996 06:31:31.51,    2.2299,    7.1037,  999.0000,  999.0000,  999.0000,  999.0000,  999.0000,  999.0000,  999.0000,  999.0000,  999.0000,  999.0000,  999.0000,  999.0000,  999.0000,  999.0000,  999.0000,  999.0000,  999.0000,  999.0000,  999.0000,  999.0000,  999.0000,   16.1801,   16.6935,   17.6860,   18.8708,   20.4041,   20.0149,   21.8519,   21.9178,   21.9155,   20.3444,   20.3305,   21.5871,   20.8262,   19.4867,   18.4837,   19.8515,   23.7573,   25.4508,   25.8240,   26.4111,   27.7245,   28.8512,   28.1619,   26.9872,  999.0000,  999.0000,   29.1455,   30.5354,  999.0000,   34.2891,   32.1052,   31.4385,   31.1155,   31.0316,   33.0149,   34.0155,   34.8254,  999.0000,   37.4960,   37.1737,   39.2545,  999.0000,
  1-NOV-1996 06:36:01.54,    0.3709,  999.0000,  999.0000,   12.9322,   13.9159,  999.0000,  999.0000,  999.0000,  999.0000,  999.0000,  999.0000,  999.0000,  999.0000,  999.0000,  999.0000,  999.0000,  999.0000,  999.0000,  999.0000,  999.0000,  999.0000,  999.0000,  999.0000,   17.2909,   18.1972,   19.2844,   18.9737,   20.2681,   21.5513,   21.1066,   22.0784,   22.3237,  999.0000,   21.4062,   21.2137,   20.6962,   18.6145,  999.0000,   20.9679,   24.5028,   26.1027,   25.9010,   26.6363,   26.9269,   26.8021,   25.9201,   27.1485,   29.1793,   29.7735,   29.4229,   30.2949,   33.1760,   33.3973,   31.5310,   31.2071,   31.3527,   32.2253,   34.3399,   34.2793,   34.5798,   36.6781,   36.5180,   36.0804,   37.7309,  999.0000,
  1-NOV-1996 06:40:30.80,  999.0000,  999.0000,  999.0000,  999.0000,  999.0000,  999.0000,  999.0000,  999.0000,  999.0000,  999.0000,  999.0000,   14.1407,   14.1666,  999.0000,   15.4677,   15.7721,   15.6335,  999.0000,  999.0000,  999.0000,  999.0000,   16.6351,   16.8382,   17.7958,   18.6117,   18.0868,   18.7375,  999.0000,   21.5970,   22.2310,  999.0000,   22.9917,   22.8500,   22.7691,   22.6680,   22.3963,  999.0000,   20.2448,  999.0000,  999.0000,   27.0143,   26.7890,   26.9444,   27.3118,   26.0468,  999.0000,  999.0000,  999.0000,  999.0000,  999.0000,   32.3454,   33.4205,   33.4815,   32.7792,   32.2759,   30.9895,   30.8661,   32.7846,  999.0000,   34.3165,   35.5297,   35.4501,   36.1549,   37.1102,  999.0000,
  1-NOV-1996 06:45:00.01,    3.6403,  999.0000,  999.0000,  999.0000,  999.0000,  999.0000,  999.0000,  999.0000,  999.0000,  999.0000,  999.0000,  999.0000,  999.0000,  999.0000,  999.0000,  999.0000,  999.0000,  999.0000,  999.0000,  999.0000,  999.0000,  999.0000,  999.0000,   17.7806,   17.9785,   17.8551,   18.5093,   19.5052,   21.3019,   21.9736,  999.0000,  999.0000,  999.0000,   23.7661,   23.1517,   22.2787,   21.1267,   22.3617,   24.0246,   25.3599,   26.1403,   26.2272,   26.5672,   26.7688,  999.0000,   24.9710,   26.5884,   27.5010,   29.3399,   31.9146,   32.4150,   31.5046,   31.3344,   31.5704,   32.6542,   33.9239,   33.7716,   33.7470,   34.2301,   33.6160,   34.1764,   35.4802,   36.2764,   37.6595,  999.0000,
  1-NOV-1996 06:49:29.61,    4.1226,  999.0000,   10.8910,   12.7490,   13.5450,  999.0000,  999.0000,  999.0000,  999.0000,  999.0000,  999.0000,  999.0000,  999.0000,  999.0000,  999.0000,  999.0000,  999.0000,  999.0000,  999.0000,  999.0000,  999.0000,  999.0000,  999.0000,   18.1989,   18.1839,   18.3660,   18.8503,   19.4887,   20.3684,   21.2675,  999.0000,   22.1074,   22.5549,   23.2190,   23.0243,   21.8029,   21.9282,   22.5993,   23.8112,   24.7879,   25.7042,   26.5576,   27.4956,   27.3412,   26.4817,   26.0425,   27.0096,   27.5420,   28.9864,   31.7150,   32.4025,   30.8187,   31.2458,   32.6623,   33.7648,   34.4616,   35.0719,   34.2170,  999.0000,   33.7762,   34.0402,   35.4862,   35.4374,   36.9729,  999.0000,
  1-NOV-1996 06:54:00.49,    4.3578,    6.8377,    9.7685,   12.2891,   13.8143,  999.0000,  999.0000,  999.0000,  999.0000,  999.0000,  999.0000,  999.0000,  999.0000,  999.0000,  999.0000,  999.0000,  999.0000,  999.0000,  999.0000,  999.0000,  999.0000,  999.0000,  999.0000,   17.8559,   18.0084,   19.5146,   21.3135,  999.0000,   22.5420,   22.2801,   22.7043,   22.1337,   23.1669,  999.0000,  999.0000,  999.0000,   22.1308,   22.2220,   23.1487,   24.5023,   26.0369,   25.8861,   25.8924,   26.2014,   25.9087,   25.0954,   25.8601,   26.4282,   28.3346,   31.4790,   32.0657,   30.7808,   31.4331,   33.4459,   34.6218,   34.0412,   34.3628,   34.0927,   33.5711,   33.3059,   33.6638,   34.4010,   34.6904,   36.8105,   38.3876,
  1-NOV-1996 06:58:30.29,  999.0000,  999.0000,  999.0000,  999.0000,  999.0000,  999.0000,  999.0000,  999.0000,  999.0000,  999.0000,  999.0000,  999.0000,  999.0000,  999.0000,  999.0000,  999.0000,  999.0000,  999.0000,  999.0000,  999.0000,  999.0000,  999.0000,  999.0000,   18.0873,   19.7603,   19.8079,   19.0604,   16.7359,   17.5112,  999.0000,  999.0000,   22.0345,   22.4145,   21.7830,   21.7780,   23.2812,   22.9969,  999.0000,   24.0539,   25.7081,   27.3071,   26.6017,   25.8488,   26.7271,  999.0000,  999.0000,  999.0000,  999.0000,  999.0000,  999.0000,   32.4883,   31.2480,  999.0000,  999.0000,  999.0000,   35.0006,  999.0000,  999.0000,   33.1698,  999.0000,   35.0196,   34.2367,   35.4296,   36.2727,  999.0000,
  1-NOV-1996 07:03:00.02,  999.0000,  999.0000,  999.0000,  999.0000,  999.0000,  999.0000,  999.0000,  999.0000,  999.0000,  999.0000,  999.0000,  999.0000,  999.0000,  999.0000,  999.0000,  999.0000,  999.0000,  999.0000,  999.0000,  999.0000,  999.0000,  999.0000,  999.0000,   19.7286,   19.6395,   19.4160,   20.8305,   20.5282,   20.0439,   20.4379,   19.5855,   20.9212,   22.7779,   22.9061,   22.3822,   22.7496,  999.0000,   24.0846,   25.9066,   27.4428,   27.2394,   26.2629,   24.9039,  999.0000,   23.9311,   24.7279,   25.1943,   25.9474,   28.0849,   30.6911,   32.2549,   31.9198,   32.4140,   33.5304,   33.9110,   35.0238,   34.6328,   34.3253,   35.1810,  999.0000,   34.4221,   33.9195,   34.8080,  999.0000,  999.0000,
  1-NOV-1996 07:07:29.91,  999.0000,   12.8102,   12.5203,  999.0000,  999.0000,  999.0000,  999.0000,  999.0000,  999.0000,  999.0000,  999.0000,  999.0000,  999.0000,  999.0000,  999.0000,  999.0000,  999.0000,  999.0000,  999.0000,  999.0000,  999.0000,  999.0000,  999.0000,   20.6288,   19.1137,   18.4229,   19.5985,   20.5931,   19.6269,   20.1892,   21.9684,   23.4673,   23.5427,   22.8446,  999.0000,   22.3966,   23.5901,   24.9157,   26.7658,  999.0000,   26.9125,   26.6217,   26.4709,   26.2744,   24.8407,   25.0298,   25.1554,   25.4904,   27.2679,   30.3645,   32.1907,   32.3014,   32.9073,   33.5200,   34.5099,   35.1046,   34.9391,   35.1035,   34.7415,   34.6678,   34.2588,   33.8703,   34.7483,   35.9298,   37.7296,
  1-NOV-1996 07:11:59.28,    9.3868,   10.5436,   11.4400,  999.0000,  999.0000,  999.0000,  999.0000,  999.0000,  999.0000,  999.0000,  999.0000,  999.0000,  999.0000,  999.0000,  999.0000,  999.0000,  999.0000,  999.0000,  999.0000,  999.0000,  999.0000,  999.0000,  999.0000,   19.8325,   19.8798,   19.7101,   19.8020,   19.1504,   19.5019,  999.0000,   22.9646,   23.7709,   23.2085,  999.0000,   23.9599,   24.8762,   26.8501,   28.3030,   28.5674,   28.9444,   27.6089,   26.4303,   25.7815,   25.5857,   24.9962,  999.0000,   25.2726,  999.0000,   27.8518,   31.2817,   32.5956,   33.0354,   33.8728,   35.3218,   36.4440,   36.1708,   35.2508,   35.1832,   35.0734,   34.7839,   35.1784,   34.2449,   35.1540,   36.0717,   37.5091,
  1-NOV-1996 07:16:28.48,    6.9508,  999.0000,  999.0000,  999.0000,  999.0000,  999.0000,  999.0000,  999.0000,  999.0000,  999.0000,  999.0000,  999.0000,  999.0000,  999.0000,  999.0000,  999.0000,  999.0000,  999.0000,  999.0000,  999.0000,  999.0000,  999.0000,  999.0000,   18.8399,   18.3012,   18.0839,   18.1949,   18.1968,   19.7576,   22.9695,   25.2197,  999.0000,   24.5254,   24.2973,   26.1520,   27.5772,   28.6784,   29.7838,   30.2373,   29.3372,   28.4746,   26.8863,   26.1189,   26.2657,   25.3606,   25.8169,   25.8788,   26.1477,   28.8187,   32.0744,   32.6598,   32.9118,   34.7797,   35.4311,   35.5295,   35.8347,   35.2538,   35.3253,   35.7260,   35.8071,   35.2059,  999.0000,   36.3528,   36.7626,  999.0000,
  1-NOV-1996 07:20:58.30,    8.1708,   10.5427,   11.5084,  999.0000,  999.0000,   13.4353,   13.6019,  999.0000,  999.0000,  999.0000,  999.0000,  999.0000,  999.0000,  999.0000,  999.0000,  999.0000,  999.0000,  999.0000,  999.0000,  999.0000,  999.0000,  999.0000,  999.0000,   20.1882,   19.0820,   19.0588,   18.7563,  999.0000,   21.2459,   24.0075,   25.4518,  999.0000,  999.0000,   23.3389,   25.0341,   26.0677,   27.4820,   29.2807,   28.7457,   28.1078,   27.7470,  999.0000,   26.5178,   25.0889,   24.5401,   25.1069,   25.2406,   26.9557,   30.1351,   32.5144,   33.1421,   33.0767,   34.0107,   35.3250,   35.3642,  999.0000,  999.0000,   35.0945,   35.9323,   35.3490,   35.2618,   35.7406,   35.8311,   37.4084,   39.9569,
  1-NOV-1996 07:25:27.78,    9.7481,   10.5182,  999.0000,   14.5698,   15.8626,  999.0000,  999.0000,  999.0000,  999.0000,  999.0000,  999.0000,  999.0000,  999.0000,  999.0000,  999.0000,  999.0000,  999.0000,  999.0000,  999.0000,  999.0000,  999.0000,  999.0000,  999.0000,   18.5383,   18.1305,   17.8320,   18.5732,  999.0000,   23.5046,   25.5807,   26.6552,   25.6483,   23.6004,   23.8322,   24.6686,   26.1588,   28.0828,  999.0000,   28.7494,   27.2318,   26.6456,   26.5913,   25.4708,   24.5421,   23.9337,   24.3654,   25.3552,   28.2217,   31.1093,   32.7556,   33.0259,   32.9404,   33.4554,   34.5489,  999.0000,  999.0000,   36.2262,   36.3336,   35.9047,   35.0786,   36.3240,   36.2299,   36.3346,   38.5250,   41.1763,
  1-NOV-1996 07:29:56.85,    8.4245,  999.0000,   11.8504,   12.5487,  999.0000,  999.0000,  999.0000,  999.0000,  999.0000,  999.0000,  999.0000,  999.0000,  999.0000,  999.0000,  999.0000,  999.0000,  999.0000,  999.0000,  999.0000,  999.0000,  999.0000,  999.0000,  999.0000,   17.0443,   17.7704,   18.0467,  999.0000,   21.9196,  999.0000,   25.0145,   25.3936,   25.8489,   23.7089,   23.0475,   24.3290,   25.0151,   27.7245,   30.9469,  999.0000,  999.0000,  999.0000,   25.9218,  999.0000,   23.7303,   22.6567,   23.5089,   24.8756,   27.8521,   31.0749,   32.5976,   32.1355,   32.4499,   33.0361,   34.5012,   34.8460,   34.7231,   35.6046,   36.4393,   35.2241,   33.9158,   35.3372,   36.1692,   36.2418,   38.0743,  999.0000,
  1-NOV-1996 07:34:26.31,    8.4906,   11.0206,   12.3920,   12.4136,  999.0000,  999.0000,   13.6550,   13.7788,   13.8175,  999.0000,  999.0000,  999.0000,  999.0000,  999.0000,  999.0000,  999.0000,  999.0000,  999.0000,  999.0000,  999.0000,  999.0000,  999.0000,  999.0000,   18.3251,   19.3996,   19.9710,  999.0000,  999.0000,  999.0000,  999.0000,  999.0000,   26.1372,   24.3776,   24.2893,   24.9568,   26.2660,  999.0000,   30.6199,   30.0334,   27.4214,   25.6643,   25.5200,   24.8135,   23.3581,   23.3643,   23.8304,   25.1591,   27.6666,   30.9897,   32.2656,   32.3093,   33.2257,   33.7770,   34.4650,   34.9395,   35.3901,   35.5238,   35.5963,   35.4259,   35.8961,   36.5071,   36.3071,   36.8050,   38.8157,   39.0210,
  1-NOV-1996 07:38:56.36,    9.0613,  999.0000,  999.0000,  999.0000,  999.0000,  999.0000,  999.0000,  999.0000,  999.0000,  999.0000,  999.0000,  999.0000,  999.0000,  999.0000,  999.0000,  999.0000,  999.0000,  999.0000,  999.0000,  999.0000,  999.0000,  999.0000,  999.0000,  999.0000,   21.6695,   21.3925,   22.9229,   24.2521,   25.4662,   25.6357,   26.3897,   25.0497,   23.8566,   24.8182,   25.4792,   27.5981,   29.4803,   30.5695,   29.3982,   28.5499,   27.0776,   25.4182,   25.1132,   24.7181,   24.0665,   24.1498,   25.3694,   27.8627,   31.3369,   33.2005,   33.0925,   33.5924,   34.7889,   35.3714,   35.7564,   37.2877,   37.0667,   35.7845,   35.0024,   35.4083,   37.0835,   36.7529,   37.2196,   38.6571,   40.2623,
  1-NOV-1996 07:43:26.28,    9.1571,  999.0000,  999.0000,  999.0000,  999.0000,  999.0000,  999.0000,  999.0000,  999.0000,  999.0000,  999.0000,  999.0000,  999.0000,  999.0000,  999.0000,  999.0000,  999.0000,  999.0000,  999.0000,  999.0000,  999.0000,  999.0000,  999.0000,   20.8772,   22.5591,   22.6895,   23.6590,   26.0018,   27.0917,   27.1713,   27.1749,   26.4804,   25.2068,   25.1726,  999.0000,   27.5484,   29.3642,   31.2399,   30.9996,   29.4787,   28.9523,   27.9841,   27.3947,   26.9575,   25.8533,   25.2285,   25.2265,  999.0000,  999.0000,   33.0500,   34.4046,   34.7341,   34.4397,  999.0000,  999.0000,  999.0000,   35.4898,   35.2593,   34.9135,   34.6073,   35.6432,   35.7447,   36.3622,   37.9150,   39.8899,
  1-NOV-1996 07:47:55.71,    9.1999,   11.6449,   12.1698,   11.8856,  999.0000,  999.0000,   15.5009,   16.0430,   16.8620,  999.0000,  999.0000,  999.0000,  999.0000,  999.0000,  999.0000,  999.0000,  999.0000,  999.0000,  999.0000,  999.0000,  999.0000,  999.0000,  999.0000,  999.0000,   24.1923,   21.9683,   23.4667,   25.3437,   26.9017,  999.0000,  999.0000,   24.8755,   24.9810,   25.7040,   26.3677,   26.4785,   28.0627,   30.1878,   30.9051,   29.7264,   29.4362,   29.7173,   28.9353,   27.4647,   25.3479,   24.3988,   24.3978,   26.9424,   30.0368,   32.5605,   34.3814,   35.0003,   35.0341,   35.8133,   36.0008,   36.1801,   36.1805,   36.0337,   34.8821,   34.6543,   35.2955,   36.3144,   37.1205,   38.2219,   40.5174,
  1-NOV-1996 07:52:25.74,  999.0000,  999.0000,  999.0000,  999.0000,  999.0000,  999.0000,   13.2757,   14.6635,  999.0000,  999.0000,  999.0000,  999.0000,  999.0000,  999.0000,  999.0000,  999.0000,  999.0000,  999.0000,  999.0000,  999.0000,  999.0000,  999.0000,  999.0000,   21.5726,   21.8555,   23.3421,   25.0447,   26.7303,   27.9616,   26.7950,   25.6522,  999.0000,   25.6067,   26.3424,   26.0534,   26.0023,   27.7988,   29.4537,   30.2031,   29.4374,   29.0523,   28.8628,   28.7589,   26.3757,  999.0000,   24.6601,   25.7946,   28.4083,   30.5038,   32.1305,   33.9543,   34.8913,   34.6248,   35.0697,  999.0000,  999.0000,   36.8805,   36.0502,   34.4538,   34.6856,   35.2161,   35.6767,   37.2621,   38.1645,   39.8531,
  1-NOV-1996 07:56:55.17,    8.2691,    9.8621,   10.8877,   11.6229,   11.4978,  999.0000,  999.0000,  999.0000,  999.0000,  999.0000,  999.0000,  999.0000,  999.0000,  999.0000,  999.0000,  999.0000,  999.0000,  999.0000,  999.0000,  999.0000,  999.0000,  999.0000,   21.8032,   21.4775,   22.0616,  999.0000,  999.0000,   28.4414,   28.1677,   28.2591,   26.5189,   26.1143,   26.9941,   27.3871,   26.8075,   27.0159,   28.5345,   29.7154,   30.1472,   29.2778,   29.0565,   28.1632,   28.0140,   26.0800,   24.7365,   24.7901,   26.3132,   28.5931,   30.2877,   31.9162,   33.4285,   34.9897,   34.7813,   34.4497,   35.5278,   36.7982,   36.9558,   35.5431,  999.0000,  999.0000,  999.0000,  999.0000,  999.0000,  999.0000,  999.0000,
  1-NOV-1996 08:01:24.43,    7.3038,  999.0000,   10.3275,   11.5639,  999.0000,  999.0000,  999.0000,  999.0000,  999.0000,  999.0000,  999.0000,  999.0000,  999.0000,  999.0000,  999.0000,  999.0000,  999.0000,  999.0000,  999.0000,  999.0000,  999.0000,   22.0296,   21.4209,   22.6125,   23.2831,   26.6513,  999.0000,   30.0909,   30.1539,   30.1439,   29.2964,   27.9570,   27.6723,   27.4159,   27.4157,   27.3220,   28.4779,   29.2793,   30.1321,   29.6135,   28.3162,   28.5963,   28.3820,   26.3324,   24.2045,   24.6597,   26.1283,   29.1307,   30.7215,   32.2580,   33.8262,   35.0770,   35.4350,   35.7050,   37.3582,   37.9202,   36.8427,   35.7867,   35.9062,   35.6366,   35.7943,   36.6215,   37.5873,   39.0903,   40.4639,
  1-NOV-1996 08:05:54.23,    8.1181,    9.0232,    9.8658,   10.7816,  999.0000,  999.0000,  999.0000,  999.0000,  999.0000,  999.0000,  999.0000,  999.0000,  999.0000,  999.0000,  999.0000,  999.0000,  999.0000,  999.0000,  999.0000,  999.0000,  999.0000,  999.0000,  999.0000,   23.0961,   24.1590,  999.0000,   27.6625,   28.5828,   28.6103,   29.5542,   29.4179,   27.8841,   27.0912,   26.6449,   27.9119,  999.0000,   28.9263,   28.9733,   30.3846,   30.1259,   28.8931,   28.8617,  999.0000,  999.0000,   24.8051,   24.8907,   27.0060,   29.8756,   32.3583,   33.7367,   34.3860,  999.0000,  999.0000,   36.5213,   38.0650,   37.9158,   36.5363,   35.8768,   35.7566,   35.2788,   34.9352,   35.2198,  999.0000,  999.0000,  999.0000,
  1-NOV-1996 08:10:23.31,    7.8991,    8.6279,  999.0000,  999.0000,  999.0000,  999.0000,  999.0000,  999.0000,  999.0000,  999.0000,  999.0000,  999.0000,  999.0000,  999.0000,  999.0000,  999.0000,  999.0000,  999.0000,  999.0000,  999.0000,  999.0000,  999.0000,  999.0000,   24.4554,   26.2207,   27.8480,   29.1809,  999.0000,   31.1316,   29.9904,   29.0832,   27.2311,   26.0891,   26.3887,   27.8589,  999.0000,   28.1129,   28.5117,   30.2993,   30.7965,   29.5899,  999.0000,   28.1364,   27.0710,   25.5729,   24.3674,   25.0229,   27.8778,   30.7256,   32.6818,   34.6130,   35.8933,   36.3298,   37.6807,   38.0888,   36.8777,   37.3494,   36.8554,   35.7508,  999.0000,  999.0000,  999.0000,  999.0000,  999.0000,  999.0000,
  1-NOV-1996 08:14:52.44,   10.7547,   10.9539,   11.0499,   11.6354,  999.0000,  999.0000,  999.0000,  999.0000,  999.0000,  999.0000,  999.0000,  999.0000,  999.0000,  999.0000,  999.0000,  999.0000,  999.0000,  999.0000,  999.0000,  999.0000,  999.0000,   24.4363,  999.0000,   24.5057,   26.3008,   27.8445,   28.3547,   29.8413,  999.0000,   28.9043,   27.3303,   25.6588,   24.8694,   26.4082,   27.1398,   26.7611,  999.0000,   29.1315,   29.6226,  999.0000,   30.8813,   30.2403,   29.6066,   28.7702,   27.7275,   26.1700,  999.0000,   27.0961,   29.8653,   31.9617,   33.5666,   34.9082,   36.5382,   37.2302,   36.2991,   36.6410,   37.1881,   36.4984,   35.7748,   34.6442,   34.2517,   35.6846,   37.8667,  999.0000,  999.0000,
  1-NOV-1996 08:19:21.80,    9.0156,  999.0000,   11.3010,   11.8988,  999.0000,  999.0000,  999.0000,  999.0000,  999.0000,  999.0000,  999.0000,  999.0000,  999.0000,  999.0000,  999.0000,  999.0000,  999.0000,  999.0000,  999.0000,  999.0000,  999.0000,  999.0000,  999.0000,   25.3854,   27.2079,  999.0000,   29.3500,   30.9086,   31.1483,  999.0000,  999.0000,   25.8959,   25.7279,  999.0000,  999.0000,  999.0000,  999.0000,  999.0000,  999.0000,  999.0000,  999.0000,  999.0000,  999.0000,  999.0000,  999.0000,  999.0000,  999.0000,  999.0000,  999.0000,  999.0000,  999.0000,  999.0000,  999.0000,  999.0000,  999.0000,  999.0000,  999.0000,  999.0000,  999.0000,  999.0000,  999.0000,   34.0407,  999.0000,  999.0000,  999.0000,
  1-NOV-1996 08:23:51.91,   10.6346,  999.0000,   12.6148,   12.3778,  999.0000,  999.0000,  999.0000,   15.8236,   16.2690,  999.0000,  999.0000,  999.0000,  999.0000,  999.0000,  999.0000,  999.0000,  999.0000,  999.0000,  999.0000,  999.0000,  999.0000,  999.0000,  999.0000,   25.1044,   26.3701,  999.0000,   28.5504,   29.4012,  999.0000,   28.0068,  999.0000,  999.0000,   24.8921,   25.9254,   27.0822,   29.5594,   31.0266,   30.8600,   31.9661,   33.4054,   33.0004,   31.8845,   31.3622,   29.6830,   27.8674,   26.3684,   26.4304,   27.6656,   29.9282,   32.0308,   34.0425,   35.6975,   36.9897,   36.5533,   36.2896,   37.6021,   37.1738,   36.6333,   36.3298,   35.8900,   35.2344,   35.6316,   38.6078,   40.9211,   42.6126,
  1-NOV-1996 08:28:22.43,   10.0497,    9.4683,   10.1191,   11.4185,  999.0000,  999.0000,  999.0000,  999.0000,  999.0000,  999.0000,  999.0000,  999.0000,   17.1105,   17.0886,  999.0000,  999.0000,  999.0000,  999.0000,  999.0000,  999.0000,  999.0000,  999.0000,  999.0000,   26.4151,   27.1552,   28.9902,   29.2447,   29.1423,   29.6141,   28.0670,   26.0892,   26.3902,   26.3783,   26.1872,  999.0000,  999.0000,  999.0000,   31.6219,   32.6056,   33.4445,   32.7618,   31.3783,   30.5556,   28.6970,   27.4764,   26.4682,   25.9073,   26.3445,   28.0899,   29.6605,   31.6685,   34.0741,   36.1061,   36.2307,   36.2137,   37.1762,  999.0000,  999.0000,  999.0000,   35.4805,   34.8190,   35.7985,   38.3236,   40.3394,   41.7358,
  1-NOV-1996 08:32:51.78,   10.5264,  999.0000,  999.0000,  999.0000,  999.0000,  999.0000,  999.0000,  999.0000,  999.0000,  999.0000,  999.0000,  999.0000,  999.0000,  999.0000,  999.0000,  999.0000,  999.0000,  999.0000,  999.0000,  999.0000,  999.0000,  999.0000,  999.0000,  999.0000,   28.0568,   28.4506,   29.0165,   28.1012,   28.0282,   28.0403,   27.1782,   26.7999,   26.5981,   27.6995,   27.2577,   28.7337,   30.3582,   31.0639,   32.4591,   32.1399,   31.4889,   30.8028,   28.7036,   27.7503,   25.9461,   25.3152,   25.3916,   25.4376,   26.9197,   29.4681,   31.9926,   34.6928,   35.9253,   36.2099,   36.8022,   37.5758,   37.8483,   37.9560,   38.4424,   36.4662,   35.9230,   37.8322,   40.0576,  999.0000,  999.0000,
  1-NOV-1996 08:37:22.33,   10.7935,  999.0000,  999.0000,  999.0000,  999.0000,  999.0000,  999.0000,  999.0000,  999.0000,  999.0000,  999.0000,  999.0000,  999.0000,  999.0000,   17.0536,   17.8407,   19.2079,   19.9280,   20.7237,  999.0000,  999.0000,  999.0000,  999.0000,   27.8498,   27.6236,   27.6376,   29.4882,   29.4433,   28.3973,   28.6896,   27.7631,   28.5166,   28.1117,   28.6546,   29.0305,   30.5105,   31.5174,   32.4577,   33.0128,   31.8473,   31.9255,   30.5823,   28.4451,   27.4321,   26.4905,   25.0675,   25.8036,   26.1194,   26.8017,   28.3377,   31.2250,   34.2416,   35.4537,   35.7923,   36.9766,   37.4433,   36.7367,   37.1857,  999.0000,   37.4798,   36.1138,   37.3525,   39.2980,   40.8785,  999.0000,
  1-NOV-1996 08:41:51.91,   12.7739,   12.5745,  999.0000,  999.0000,  999.0000,  999.0000,  999.0000,  999.0000,  999.0000,  999.0000,  999.0000,  999.0000,  999.0000,  999.0000,  999.0000,   19.2331,   20.4242,  999.0000,  999.0000,  999.0000,  999.0000,  999.0000,  999.0000,   27.5325,  999.0000,   27.0005,   27.7764,   28.5183,   27.6072,   28.0896,   27.9070,   28.1646,   29.7371,   31.2692,   33.1103,   33.9838,   34.0693,   35.0048,   34.9948,   34.1991,   32.5293,   29.8984,   28.9526,   28.1247,   27.4625,   26.7866,  999.0000,  999.0000,  999.0000,   30.9540,   33.4579,   35.3445,   36.0024,   36.3956,   37.6903,   37.1768,   36.9449,   38.1494,   38.0907,   36.6956,   36.5397,   38.0959,   39.3985,   40.5333,  999.0000,
  1-NOV-1996 08:46:21.67,   14.6610,   13.3194,   13.6116,   15.3305,   16.6044,   16.4519,  999.0000,  999.0000,   16.7143,   16.7920,   16.4278,   16.3969,  999.0000,  999.0000,  999.0000,   20.3254,   20.8635,  999.0000,  999.0000,  999.0000,  999.0000,  999.0000,  999.0000,   30.1255,   30.3775,   29.0830,   29.5069,   28.3822,   28.6024,   30.9581,   30.4343,   28.3228,   28.5600,   30.8619,   31.3856,   32.4037,   32.6664,   33.4496,   33.5250,   33.4150,   31.8700,   29.9487,  999.0000,   28.7384,   28.3259,   27.0202,   27.1132,   27.3993,   28.6796,   31.5206,   34.3464,   35.8422,   35.5519,   35.4354,   37.4529,   37.7683,   37.9233,   38.6639,   37.5364,  999.0000,  999.0000,   38.1547,   39.4016,   39.3529,   40.2738,
  1-NOV-1996 08:50:52.40,   10.8575,   10.7032,   10.5669,   11.5056,  999.0000,  999.0000,  999.0000,  999.0000,  999.0000,  999.0000,  999.0000,  999.0000,  999.0000,  999.0000,  999.0000,  999.0000,  999.0000,  999.0000,  999.0000,  999.0000,  999.0000,  999.0000,  999.0000,  999.0000,  999.0000,  999.0000,   30.2384,   30.1738,   29.9861,   30.4539,   31.0045,  999.0000,   31.0752,   33.2997,   32.7905,   33.0418,  999.0000,   34.4996,   33.9105,   34.1285,   33.0148,   30.0359,   29.7583,   29.0363,   28.7231,   27.5970,   28.1386,   28.4195,   29.0641,   31.4198,   33.4550,   34.5968,  999.0000,  999.0000,   35.2209,   37.0476,  999.0000,  999.0000,   35.8014,   34.1416,   34.6924,   36.2626,   38.2912,   39.6701,   39.6565,
  1-NOV-1996 08:55:22.61,   11.0631,   12.0218,   12.9666,   12.2272,  999.0000,  999.0000,  999.0000,  999.0000,  999.0000,  999.0000,  999.0000,  999.0000,  999.0000,  999.0000,  999.0000,  999.0000,  999.0000,  999.0000,  999.0000,  999.0000,  999.0000,  999.0000,  999.0000,  999.0000,   27.8471,   28.1682,  999.0000,   27.9197,   28.5275,   28.1815,   29.0663,   29.2632,  999.0000,   33.0491,   32.5092,   33.3421,   31.9681,   32.0565,   33.2089,   32.7344,   31.5397,   30.3975,   29.8454,   28.8322,   28.1702,   28.5461,   29.9435,   30.7522,   32.7242,   34.6208,   34.3341,   33.6740,   34.4431,   36.9348,   37.6624,   37.8304,   37.4378,   36.9149,   36.2636,   35.1880,   35.1606,   37.0426,   39.2535,   39.3950,   39.6043,
  1-NOV-1996 09:00:45.57,   10.1364,   10.8227,  999.0000,   12.4499,   11.7995,  999.0000,  999.0000,  999.0000,  999.0000,  999.0000,  999.0000,  999.0000,  999.0000,  999.0000,  999.0000,  999.0000,  999.0000,  999.0000,  999.0000,  999.0000,  999.0000,  999.0000,  999.0000,  999.0000,   31.0047,   30.5395,   28.3275,   29.3010,   29.3999,   28.8215,   29.3277,   31.0429,   34.2300,   35.0033,   34.7618,   34.4624,   33.7140,   31.8652,   32.3994,   33.0748,   32.9123,  999.0000,   30.8897,   30.2481,   29.9393,   29.7798,   30.2180,   31.5483,   34.3470,   35.7197,   34.6941,   34.5713,   36.0080,   36.9973,   37.0282,   37.9796,   36.8459,   36.0890,   37.2680,   37.6565,   37.5955,   39.0414,   40.6349,   40.9571,   40.5074,
  1-NOV-1996 09:05:20.22,   10.9521,   11.5203,  999.0000,  999.0000,  999.0000,  999.0000,  999.0000,  999.0000,  999.0000,  999.0000,  999.0000,  999.0000,  999.0000,  999.0000,  999.0000,  999.0000,  999.0000,  999.0000,  999.0000,  999.0000,  999.0000,  999.0000,  999.0000,   26.7263,   28.8127,  999.0000,  999.0000,   27.8903,   28.1748,   27.3576,   26.7413,   28.7420,   31.4488,   33.5156,   33.7517,   33.4387,   32.6741,  999.0000,  999.0000,  999.0000,   33.1468,   32.0258,   31.3505,   31.3425,   31.3876,   30.7107,   30.3878,  999.0000,  999.0000,   36.0837,   35.4828,   36.2191,   38.8091,   39.4195,   39.0529,   39.8692,   38.9210,   38.1074,   38.4899,   40.3715,   40.1966,  999.0000,   40.4147,   41.7892,   40.4789,
  1-NOV-1996 09:09:56.29,  999.0000,  999.0000,  999.0000,  999.0000,  999.0000,  999.0000,  999.0000,  999.0000,  999.0000,  999.0000,  999.0000,  999.0000,  999.0000,  999.0000,  999.0000,  999.0000,  999.0000,  999.0000,  999.0000,  999.0000,  999.0000,  999.0000,  999.0000,  999.0000,  999.0000,   28.5088,   27.4628,   27.8853,   28.5616,   27.0592,   26.6612,   28.4818,   30.3198,   32.3629,  999.0000,   32.6371,   31.9473,   32.4928,   31.6499,   31.4735,   32.6577,   32.5853,   30.9568,   31.2038,   31.2975,   30.8519,   31.2216,   32.4713,   34.1571,   37.3892,   37.8203,   37.3993,   38.7823,   39.1385,   39.7395,   40.1221,   39.6040,   39.0772,   39.0467,   40.3160,  999.0000,   41.0210,   39.9631,  999.0000,  999.0000,
  1-NOV-1996 09:14:30.10,  999.0000,  999.0000,  999.0000,  999.0000,  999.0000,  999.0000,  999.0000,  999.0000,  999.0000,  999.0000,  999.0000,  999.0000,  999.0000,  999.0000,   21.5853,   21.0847,   21.4752,   22.3490,  999.0000,  999.0000,  999.0000,  999.0000,  999.0000,   26.6674,   28.0524,   27.1205,   27.4312,   28.1920,   27.2470,  999.0000,  999.0000,   29.1317,   30.4065,   32.3550,   33.2044,   32.4247,   32.2428,   31.7371,   32.3204,   32.9309,   32.8292,   32.3156,  999.0000,   32.4441,   33.3381,   33.1991,   33.0696,   33.4445,  999.0000,  999.0000,   37.2634,   37.0109,   39.0913,   39.4631,   40.0678,   39.9258,   39.1881,   39.2960,   39.2322,   40.7598,   41.6124,   41.5279,   40.9629,   40.1858,   40.1884,
  1-NOV-1996 09:19:06.17,   10.8269,   11.2833,   12.6418,   14.0574,  999.0000,  999.0000,  999.0000,  999.0000,  999.0000,  999.0000,  999.0000,  999.0000,  999.0000,  999.0000,   20.3040,   20.2984,  999.0000,  999.0000,  999.0000,  999.0000,  999.0000,  999.0000,  999.0000,   28.4402,   29.8660,   28.6527,   26.9045,   27.4889,   27.9988,   28.6072,   28.1325,   29.2123,   29.3458,   31.6993,   32.8193,   32.0372,   31.4374,   31.9871,   32.8042,  999.0000,   32.8622,   32.3106,   33.3800,   33.8108,   33.1882,   32.7484,   32.5340,   33.4190,   36.0580,   37.2161,   36.1072,   36.8575,   38.8350,   38.6494,   39.0392,   40.6873,   40.3478,   39.2013,   38.3883,  999.0000,   41.8515,   42.7214,   42.3513,   42.2688,  999.0000,
  1-NOV-1996 09:23:42.53,   10.6937,   12.2521,   13.3702,   13.7176,  999.0000,  999.0000,  999.0000,  999.0000,   20.0416,   20.4016,  999.0000,  999.0000,  999.0000,  999.0000,  999.0000,  999.0000,  999.0000,  999.0000,  999.0000,  999.0000,  999.0000,  999.0000,  999.0000,  999.0000,   29.0789,   27.6582,   25.9515,   26.8005,   26.5156,   27.8083,   28.0397,   29.2118,   29.8479,   31.0317,   31.3545,   31.2252,   31.8298,   31.9672,   31.9607,   31.8415,   31.6251,   32.0582,   32.9448,   33.2318,   33.8426,   33.6252,   32.5536,   33.5431,   36.2004,   37.3921,   36.5110,   37.1470,   38.1226,   38.1712,   39.2485,  999.0000,   40.0458,   39.6962,   39.3361,   41.6222,   42.8499,  999.0000,   43.7149,   43.6194,   43.9470,
  1-NOV-1996 09:28:18.22,   10.6213,   11.8492,  999.0000,  999.0000,  999.0000,  999.0000,  999.0000,  999.0000,  999.0000,  999.0000,  999.0000,  999.0000,  999.0000,  999.0000,  999.0000,  999.0000,  999.0000,  999.0000,  999.0000,  999.0000,  999.0000,  999.0000,  999.0000,  999.0000,  999.0000,   27.5169,   26.6700,   26.7056,   27.3361,   27.5914,   28.9299,   29.4639,   30.1934,   31.0832,   31.0082,  999.0000,   32.3411,   33.0516,   33.3689,   33.9048,   33.3651,  999.0000,   33.6799,  999.0000,   33.7242,   33.8783,   34.4143,   35.5582,   37.4134,   37.1249,   37.2737,   38.3416,   38.1189,   38.6685,   39.6113,   39.9102,   39.8959,   39.7621,   39.6580,   41.3486,  999.0000,  999.0000,   43.4743,   43.7604,  999.0000,
  1-NOV-1996 09:32:52.12,   10.3574,   10.7040,  999.0000,  999.0000,   17.9615,   18.1968,   18.3162,  999.0000,  999.0000,  999.0000,  999.0000,  999.0000,  999.0000,  999.0000,  999.0000,  999.0000,  999.0000,  999.0000,   22.6954,   23.1317,  999.0000,  999.0000,  999.0000,   28.7332,   28.8184,   26.8037,   25.3925,   25.6179,   26.4658,   26.4471,   27.8933,   28.7530,   29.7677,   31.5404,   31.3504,   31.7152,   31.6969,   32.3905,   33.1842,   32.9900,   32.5414,   31.7183,   33.7942,   34.7582,  999.0000,   33.3485,   33.8888,   35.4341,   36.4768,   35.9014,   36.9429,   37.6481,   37.1296,   37.6231,   38.8377,   38.5458,   38.9377,   38.4884,   38.3987,   39.4288,  999.0000,  999.0000,   41.7452,   41.9654,   42.7117,
  1-NOV-1996 09:37:25.92,   10.3326,  999.0000,  999.0000,  999.0000,  999.0000,  999.0000,  999.0000,  999.0000,  999.0000,  999.0000,  999.0000,   20.7864,   21.6171,  999.0000,  999.0000,  999.0000,  999.0000,  999.0000,  999.0000,  999.0000,  999.0000,  999.0000,  999.0000,  999.0000,   26.8965,   24.9129,   26.1971,   26.2286,   24.3546,   23.2836,  999.0000,  999.0000,  999.0000,  999.0000,  999.0000,   29.6649,   30.8818,   32.0073,  999.0000,   31.9428,   30.8830,   31.4139,  999.0000,   33.5830,   31.5379,   32.0095,   33.0410,   34.8528,   36.0455,   36.0932,   35.8877,   35.8607,   37.5709,  999.0000,   37.7111,   38.0624,   38.6994,   38.3965,   39.0735,  999.0000,   39.9328,  999.0000,   42.9950,   43.1907,   42.5731,
  1-NOV-1996 09:42:02.13,  999.0000,  999.0000,  999.0000,  999.0000,  999.0000,   18.6521,   18.9771,  999.0000,  999.0000,  999.0000,  999.0000,  999.0000,   20.8619,   21.0722,  999.0000,  999.0000,  999.0000,  999.0000,  999.0000,  999.0000,  999.0000,  999.0000,  999.0000,   25.1403,   24.8955,  999.0000,   25.0508,   26.1017,   25.9644,   25.4222,   26.7911,   28.7408,   30.4721,   31.2441,   31.5370,   30.5486,   31.0100,   32.4476,   32.8991,   32.5641,   31.7885,   31.7772,   33.5240,   34.0432,   31.9035,   32.0690,   34.2851,   35.9290,   36.1191,   36.0357,   36.3600,   36.4513,   37.5087,   37.7485,   38.2140,   38.2331,   38.2678,   38.9431,   40.4704,  999.0000,   41.5363,   42.4631,   42.0348,   42.0827,   42.8688,
  1-NOV-1996 09:46:36.12,    7.8617,  999.0000,  999.0000,   16.8079,   18.5604,  999.0000,  999.0000,  999.0000,  999.0000,  999.0000,  999.0000,  999.0000,  999.0000,  999.0000,  999.0000,  999.0000,  999.0000,  999.0000,  999.0000,  999.0000,  999.0000,  999.0000,  999.0000,   27.0496,   25.7858,   26.2776,   25.5964,   26.2967,   25.3608,   25.5487,   26.9454,   28.4888,   30.4534,   31.8826,   32.2451,   31.6584,   32.0103,   33.3633,   33.9266,   32.4055,   31.8344,   32.5631,   33.0729,   32.8996,   32.6219,   33.2909,   34.4421,   35.8809,   35.2017,   35.9511,   36.0802,   36.4631,   37.7839,   38.1413,   38.4011,   38.0660,   37.7607,  999.0000,  999.0000,  999.0000,   42.2980,   42.6258,   42.1067,   42.4936,   42.0380,
  1-NOV-1996 09:51:12.03,    8.5088,  999.0000,  999.0000,  999.0000,  999.0000,  999.0000,  999.0000,  999.0000,   16.4197,   16.3929,   16.3631,  999.0000,  999.0000,  999.0000,  999.0000,  999.0000,  999.0000,  999.0000,  999.0000,  999.0000,  999.0000,   25.1239,   26.2430,   28.1284,   26.5015,   26.1814,   26.2904,   25.9110,   26.2016,   26.7856,   28.0977,   29.8796,   31.9755,   32.4528,   33.3514,   34.7077,   34.3925,   35.2732,   35.0120,   33.6540,   33.6092,   33.7919,   33.6390,   33.6762,   33.8658,   35.3025,   35.9587,   36.1112,   35.8865,   36.8010,   36.9479,   36.6984,   37.6591,   38.0127,   38.0722,   38.4576,   38.4180,   38.6487,   39.8947,   39.6334,   40.9940,   42.1714,   43.5256,   43.9078,  999.0000,
  1-NOV-1996 09:55:48.94,   12.3081,   13.4262,   14.4313,  999.0000,  999.0000,  999.0000,  999.0000,  999.0000,  999.0000,  999.0000,  999.0000,  999.0000,  999.0000,  999.0000,  999.0000,  999.0000,  999.0000,  999.0000,  999.0000,  999.0000,  999.0000,  999.0000,  999.0000,   26.5937,   26.5479,   25.4543,   26.3387,   26.5211,   27.2220,   27.4881,   27.7486,   29.2573,   29.8724,   30.6330,   32.4988,   32.9145,   33.9547,   33.3957,   33.0260,   32.7478,   32.4569,   32.6621,   32.7223,   33.2701,   33.9692,   34.8711,   35.1744,   34.5688,   35.6716,   35.8868,   35.4044,   36.7859,   37.4097,   37.2407,   37.8870,   38.4857,   39.4151,   39.8173,   40.3759,   39.7833,   40.8233,   42.3159,  999.0000,   43.6517,  999.0000,
  1-NOV-1996 10:00:22.82,   12.0785,  999.0000,   16.4540,   17.7193,  999.0000,  999.0000,  999.0000,  999.0000,  999.0000,  999.0000,  999.0000,  999.0000,  999.0000,  999.0000,  999.0000,  999.0000,  999.0000,  999.0000,  999.0000,  999.0000,  999.0000,  999.0000,  999.0000,   27.8289,   26.5155,   26.4978,   27.3493,   27.5899,   27.0511,   28.2010,   27.6484,   29.1199,   29.3840,   30.0265,   31.9487,   33.0365,   33.5569,   33.5510,   33.3282,   33.0942,   31.8630,   31.6751,   32.9997,   33.7705,   34.7115,   35.0297,   35.2135,   34.8835,   35.0590,   35.8404,   35.7725,   36.9081,   37.2192,   37.3309,   37.7338,   38.7543,   39.9158,   40.5544,   40.3881,  999.0000,   41.5238,   42.7329,  999.0000,  999.0000,  999.0000,
  1-NOV-1996 10:04:56.47,   12.2180,   13.3943,   14.3901,   15.6665,  999.0000,  999.0000,  999.0000,  999.0000,  999.0000,  999.0000,  999.0000,  999.0000,  999.0000,  999.0000,  999.0000,  999.0000,  999.0000,  999.0000,  999.0000,  999.0000,  999.0000,  999.0000,  999.0000,   25.0037,   24.0636,  999.0000,  999.0000,   24.4179,  999.0000,  999.0000,   26.3578,   28.5040,   29.3658,   30.7233,  999.0000,  999.0000,  999.0000,  999.0000,   32.6892,   33.1845,   31.6237,   30.9573,   32.0883,   33.9058,   35.4168,   35.1147,   35.1902,   35.8541,   34.8969,   34.2403,   35.1205,   35.8832,   37.6018,   37.9808,   37.8856,   38.7685,   39.3714,   38.3442,   38.0707,   37.9057,  999.0000,  999.0000,  999.0000,  999.0000,  999.0000,
  1-NOV-1996 10:09:30.25,   11.5997,   13.0744,   14.5773,   15.0223,   15.5123,   15.8234,   16.0027,   16.0424,   16.6074,  999.0000,  999.0000,  999.0000,  999.0000,  999.0000,  999.0000,  999.0000,  999.0000,  999.0000,  999.0000,  999.0000,  999.0000,  999.0000,  999.0000,   29.0632,   27.8969,   29.1475,   28.6382,   27.9987,  999.0000,   28.5341,   29.4124,   30.1226,   31.2385,   31.9960,   33.6365,   34.1375,   34.0014,   33.2320,   32.3182,   34.3146,   32.4800,   32.3623,   33.7303,   34.6470,   36.3407,   36.7826,   35.4843,   35.8987,   35.6917,   35.3866,   36.5325,   36.7648,   37.7927,   38.0993,   37.8574,   38.8287,   40.0517,   39.7041,   39.3952,   40.0751,   42.7560,   43.5323,   43.0629,  999.0000,   43.1455,
  1-NOV-1996 10:14:03.75,   12.3393,   14.2080,   15.4837,   16.0980,   16.7817,   17.2943,   17.8303,  999.0000,  999.0000,  999.0000,  999.0000,  999.0000,  999.0000,  999.0000,  999.0000,  999.0000,  999.0000,  999.0000,  999.0000,   24.6577,   24.3614,  999.0000,  999.0000,   27.7539,   28.0905,   27.4129,   26.4984,   27.1140,   27.3596,   28.7882,   28.5157,   29.6207,   31.4866,   31.4416,   32.3403,   33.3758,   33.3571,   31.9259,   32.9119,   33.7719,   32.8613,   33.5927,   34.4911,   34.9998,   35.2466,   36.3936,   35.5711,   35.5985,   36.0543,   36.5155,   37.4659,   37.5140,   37.8225,   38.3690,   36.8743,   37.6460,   39.5065,   39.4431,   39.5668,   40.7789,   42.3677,   43.9867,   43.8757,   43.9991,   43.7782,
  1-NOV-1996 10:18:38.22,   11.0500,   13.0214,   14.6727,   15.8865,  999.0000,  999.0000,  999.0000,  999.0000,  999.0000,  999.0000,  999.0000,  999.0000,  999.0000,  999.0000,  999.0000,   21.2142,   22.0955,  999.0000,  999.0000,  999.0000,  999.0000,  999.0000,  999.0000,   27.9019,   28.2145,   27.9109,   26.9362,   27.5424,   27.3980,   28.4628,   27.9216,   28.9469,   29.6765,   30.9565,   30.9018,   32.9604,   33.9461,  999.0000,   32.5479,   33.1815,   33.4394,   33.4521,   33.8633,   35.2881,   36.6422,   36.9187,  999.0000,  999.0000,  999.0000,   35.9183,   36.0400,  999.0000,  999.0000,   37.9334,   37.2838,   39.0112,   40.2274,   39.8944,   39.7308,   41.1690,   42.2550,   43.5152,   42.0456,   42.2252,  999.0000,
  1-NOV-1996 10:23:14.81,   10.8591,  999.0000,   14.8793,   15.5007,   15.4654,   15.8540,   15.8133,   16.0590,   16.9345,   17.4849,  999.0000,  999.0000,  999.0000,  999.0000,  999.0000,  999.0000,  999.0000,  999.0000,  999.0000,  999.0000,  999.0000,  999.0000,  999.0000,   26.9349,   27.4256,   26.4856,   27.2473,   28.2277,   28.0072,   27.8402,   28.5582,   28.2250,   29.1013,   30.8827,   32.4813,   33.4528,  999.0000,   32.5200,   32.7214,   33.5587,   34.0368,   34.1710,   35.5520,   36.2074,   37.7486,  999.0000,   35.7988,   35.6141,   36.2360,   35.5789,   36.3675,   37.6993,   37.2640,   37.7661,   38.8989,   40.1339,   40.3614,   40.7383,   41.0596,   43.2161,   44.5674,   44.3646,   44.1933,   43.0422,   42.5584,
  1-NOV-1996 10:27:51.29,   12.2869,  999.0000,   14.6034,   14.8151,   15.0712,   15.9822,  999.0000,   16.3178,   16.2684,   16.4372,   16.4315,  999.0000,  999.0000,  999.0000,  999.0000,  999.0000,  999.0000,   22.4368,   23.9783,   25.0115,  999.0000,  999.0000,  999.0000,   27.7050,   26.7096,   26.2388,   27.8457,   28.1281,   28.5583,   28.4004,  999.0000,   29.1087,   29.5045,   30.2297,   32.0900,   33.3027,   34.0332,   33.0585,   33.0765,   33.6901,   34.0300,   35.3359,   35.2878,   35.8603,   36.2637,   35.9805,   35.3520,   35.1106,   34.9109,   34.5703,   35.5120,   36.6054,   36.3499,   37.5690,   37.7764,   38.0880,   38.8107,   39.9132,   39.7488,   40.8772,   42.3770,  999.0000,  999.0000,  999.0000,  999.0000,
  1-NOV-1996 10:32:25.40,   11.4861,   12.4910,   13.9483,   15.3979,   16.0384,  999.0000,  999.0000,  999.0000,  999.0000,  999.0000,  999.0000,  999.0000,  999.0000,  999.0000,  999.0000,  999.0000,  999.0000,  999.0000,  999.0000,  999.0000,  999.0000,  999.0000,  999.0000,  999.0000,  999.0000,   26.4840,   27.7972,   27.9150,   27.8828,   27.5670,   28.5212,   30.1949,   29.7015,   30.1959,   31.7352,  999.0000,   34.0589,   33.8337,   34.0501,   34.1275,   34.2765,   34.8329,   35.7561,   36.6916,   37.6235,   36.5129,   34.9139,   35.2053,   34.9901,   34.8566,   35.4109,   35.9410,   37.0485,   37.9168,   37.7678,   38.0359,   38.6298,   39.8017,   39.4122,   40.3395,   42.8202,   44.0588,  999.0000,  999.0000,  999.0000,
  1-NOV-1996 10:37:35.50,   13.1374,  999.0000,   13.5272,   14.0122,   15.2740,   16.5164,  999.0000,   16.5121,   16.4125,  999.0000,  999.0000,  999.0000,  999.0000,  999.0000,  999.0000,  999.0000,  999.0000,  999.0000,  999.0000,  999.0000,  999.0000,  999.0000,  999.0000,   27.0511,   26.7738,   27.8011,   28.0188,   28.9724,   28.4741,   29.2014,   29.7085,   30.6376,   31.6604,   32.3136,   31.6285,   31.8550,   33.9696,   33.4304,   33.5933,   34.4262,   35.3625,   36.2652,   37.4853,   38.1204,  999.0000,   35.8211,   34.2236,   34.9062,   35.1368,   36.2216,   35.9962,   35.7072,   37.5164,   38.5444,   38.6200,   38.7187,   39.3798,   39.8807,   38.8959,   40.3849,   42.7934,   43.6260,   43.7435,  999.0000,  999.0000,
  1-NOV-1996 10:42:09.44,   11.6753,   12.6302,   13.4366,   14.5527,  999.0000,   17.5441,   17.4581,  999.0000,   16.4151,   17.9149,  999.0000,  999.0000,  999.0000,  999.0000,  999.0000,  999.0000,  999.0000,  999.0000,  999.0000,  999.0000,  999.0000,  999.0000,  999.0000,  999.0000,  999.0000,  999.0000,   27.8304,   27.2328,   28.2075,   27.5253,   28.5628,  999.0000,   32.0823,  999.0000,   31.4556,   31.0928,   32.7560,   32.5371,   31.9154,   33.1529,   34.5131,   35.1480,   35.7404,   37.1880,   37.7795,   36.6698,   34.6758,   33.7930,   34.3272,   34.8404,   35.1914,   35.3021,   35.8961,   36.7151,   37.8070,   38.3934,   38.9230,   39.0524,   39.5124,  999.0000,  999.0000,   42.8884,   43.3497,   42.4442,   41.8799,
  1-NOV-1996 10:46:47.20,   10.6648,   11.8774,   12.0318,   13.5170,  999.0000,  999.0000,   16.1649,   16.3272,   16.2363,   16.5282,  999.0000,  999.0000,  999.0000,  999.0000,  999.0000,  999.0000,  999.0000,  999.0000,  999.0000,  999.0000,  999.0000,  999.0000,  999.0000,   25.9508,   27.4038,   27.4361,   26.6927,   26.1670,   26.4407,   27.3418,   29.2476,   30.3852,   31.6987,   31.6259,   31.1571,   30.3024,   31.4741,   31.9119,   31.5022,   32.0962,   33.5526,   34.5392,   34.6237,   36.7106,  999.0000,   36.8165,   33.8158,   33.3367,   33.8781,   34.8255,   35.8253,   35.4703,   35.8180,   37.0525,   37.3541,   37.7436,   38.9200,   39.8022,   40.4543,   42.1748,   43.5001,   44.5032,   45.5708,  999.0000,  999.0000,
  1-NOV-1996 10:51:21.27,   11.3838,   12.2927,   12.8125,   14.3116,   16.3486,   16.1988,   16.2819,   16.3108,  999.0000,  999.0000,  999.0000,  999.0000,  999.0000,  999.0000,  999.0000,  999.0000,  999.0000,  999.0000,  999.0000,  999.0000,  999.0000,  999.0000,  999.0000,   26.1263,   27.1272,   25.9340,   25.7765,   27.0403,   27.6971,   27.8856,   29.3213,   30.1798,   32.4015,   33.1437,   31.7347,  999.0000,   33.1093,   31.9605,   31.8662,  999.0000,  999.0000,   34.0185,   35.5929,   38.8403,  999.0000,   36.8698,   34.0498,   33.8420,  999.0000,   35.0389,   35.5568,   35.6871,   35.7684,   36.9331,   38.4607,   38.9797,   38.7602,   39.5828,   40.8255,   42.4450,   43.5153,  999.0000,  999.0000,  999.0000,   41.3635,
  1-NOV-1996 10:55:57.83,   12.0074,   12.6125,   13.8351,   15.1864,   16.4400,  999.0000,   16.4273,   16.2946,  999.0000,  999.0000,  999.0000,  999.0000,  999.0000,  999.0000,  999.0000,  999.0000,  999.0000,  999.0000,  999.0000,  999.0000,  999.0000,  999.0000,  999.0000,   25.5733,   26.8959,   26.0928,   25.5228,   27.0691,   27.7173,   28.4102,   28.6226,   29.7270,   31.6212,   33.0161,   32.7520,   32.7451,   32.8688,   32.0352,   32.5456,   33.1357,  999.0000,   33.3984,   35.1351,   38.3754,  999.0000,   36.7206,   34.4014,   33.8753,   33.8126,   35.0601,   35.4062,   34.9633,   35.8481,   36.8882,   37.6132,   38.3573,   38.3699,   38.4691,   39.3540,   41.2063,  999.0000,   41.9791,   41.2816,  999.0000,  999.0000,
  1-NOV-1996 11:00:33.67,   11.9813,   12.7523,  999.0000,   15.8502,   16.2394,   16.1810,  999.0000,  999.0000,  999.0000,  999.0000,  999.0000,  999.0000,  999.0000,  999.0000,  999.0000,  999.0000,  999.0000,  999.0000,  999.0000,  999.0000,  999.0000,  999.0000,  999.0000,   26.5645,   28.1832,   27.6317,   26.8231,  999.0000,   28.5786,   28.7455,   29.6197,   30.9255,   31.3379,   32.3461,   33.3773,   33.9366,   33.8929,   33.2021,   33.0206,   32.9412,   32.8894,   32.9504,   34.7859,   36.9863,   37.6291,   36.1792,   34.3483,   33.9998,   34.2626,   34.7142,   35.4338,   35.5270,   37.2032,   37.9841,   38.3664,   39.7442,   39.3370,   39.2021,   40.1331,   41.1558,   42.9001,   43.0414,   43.8147,  999.0000,  999.0000,
  1-NOV-1996 11:05:07.27,   13.5389,  999.0000,  999.0000,   16.5108,   16.6005,   16.3743,  999.0000,  999.0000,  999.0000,  999.0000,  999.0000,  999.0000,  999.0000,  999.0000,  999.0000,  999.0000,  999.0000,  999.0000,  999.0000,  999.0000,  999.0000,  999.0000,  999.0000,   27.4721,   28.1452,   27.1295,   27.4893,   27.1291,   28.2676,   28.4916,   29.0602,   30.6294,   31.0035,   32.0302,   33.7581,   34.2178,   34.3292,   34.4064,   34.3538,   32.7315,   31.7450,   32.7308,   34.7090,   36.6755,   37.3668,   35.4356,   33.9323,  999.0000,   34.0689,   33.2462,   34.3429,   35.1505,   35.4433,   36.6445,  999.0000,  999.0000,   38.0198,   38.9607,   39.8114,   41.8021,   42.2699,   43.4393,  999.0000,  999.0000,  999.0000,
  1-NOV-1996 11:09:43.41,   14.2440,  999.0000,  999.0000,  999.0000,   16.8474,   16.6109,   16.2888,  999.0000,  999.0000,  999.0000,  999.0000,  999.0000,  999.0000,  999.0000,  999.0000,  999.0000,  999.0000,  999.0000,  999.0000,  999.0000,  999.0000,  999.0000,  999.0000,   28.1601,   29.2881,   27.8688,   28.0912,   27.5269,   28.9696,   29.6291,   29.2250,   29.8888,   31.8097,   32.9501,   34.7208,   35.5580,   36.2522,   34.9100,   35.4312,   34.0032,  999.0000,   31.2533,   32.8616,  999.0000,  999.0000,   36.1928,   35.0547,   35.3368,   35.1078,   34.3170,   35.9298,   36.7009,   37.0541,   39.0366,   39.6878,   39.4996,   40.2581,   39.9175,   40.2270,   42.7080,   43.3461,  999.0000,  999.0000,  999.0000,  999.0000,
  1-NOV-1996 11:14:17.36,   16.1035,   16.9918,   17.3746,   17.8777,   17.7026,   16.9422,  999.0000,  999.0000,  999.0000,  999.0000,  999.0000,  999.0000,  999.0000,  999.0000,  999.0000,   24.4700,   24.9417,  999.0000,  999.0000,  999.0000,  999.0000,  999.0000,  999.0000,  999.0000,   28.9619,   28.1660,   27.9209,   27.7627,   28.2935,   29.0158,   27.9498,  999.0000,   30.2021,   31.6044,   32.4760,   32.7167,   34.5642,   35.5225,  999.0000,   33.3454,   31.9748,   32.2650,   34.2225,  999.0000,   38.0866,   36.6170,   36.6089,   35.3394,   34.3285,   35.3859,   36.2166,   37.0401,   37.4110,   38.7699,   38.7242,   38.4648,   40.9495,   41.0561,   42.2136,  999.0000,  999.0000,  999.0000,  999.0000,  999.0000,  999.0000,
  1-NOV-1996 11:18:50.95,   16.2553,   17.4868,   17.5333,   17.6901,  999.0000,   16.6968,   16.3771,  999.0000,  999.0000,  999.0000,   21.1657,   22.1184,  999.0000,  999.0000,  999.0000,  999.0000,  999.0000,  999.0000,  999.0000,  999.0000,  999.0000,  999.0000,  999.0000,   27.4466,   28.8934,   27.5668,   28.2285,   27.9120,   27.9211,   28.2370,   28.1826,   29.2991,   30.2228,   30.9648,   31.6954,   32.3251,   34.6045,   35.6450,   34.5845,   34.1324,   32.7052,   32.8614,   34.7181,   36.5132,   38.0005,   37.1028,   36.3581,   35.6004,   34.4144,   35.9501,   36.7008,   36.3306,   37.3878,   38.6376,   38.7719,   40.0945,   40.8225,   40.7751,   42.6154,   43.8672,  999.0000,  999.0000,  999.0000,  999.0000,  999.0000,
  1-NOV-1996 11:23:24.86,   16.2115,  999.0000,   17.1876,   17.2193,   17.4847,   17.7784,  999.0000,  999.0000,  999.0000,  999.0000,  999.0000,  999.0000,  999.0000,  999.0000,  999.0000,  999.0000,  999.0000,  999.0000,  999.0000,  999.0000,  999.0000,  999.0000,  999.0000,   27.4370,   27.4601,   26.8720,   27.8045,   27.9097,   28.3764,   27.4869,   28.5557,   29.7153,  999.0000,   30.8774,   32.2473,  999.0000,   34.0303,  999.0000,   34.1004,   33.5047,   32.0718,   32.8531,   34.8982,   37.2164,  999.0000,   37.0882,   36.4554,   36.0540,  999.0000,   36.4326,   36.7490,   36.4096,   37.0915,   38.3903,   39.0862,   39.9128,   39.9567,   40.1837,   43.1539,   42.7657,  999.0000,  999.0000,  999.0000,  999.0000,  999.0000,
  1-NOV-1996 11:27:58.84,   17.5278,  999.0000,  999.0000,  999.0000,   18.7444,   18.5634,  999.0000,  999.0000,  999.0000,  999.0000,  999.0000,  999.0000,  999.0000,  999.0000,  999.0000,  999.0000,  999.0000,  999.0000,  999.0000,  999.0000,  999.0000,  999.0000,  999.0000,  999.0000,   28.1257,   27.1738,   28.5592,   28.4778,   28.5397,   27.8035,   28.8526,   29.9443,   30.6581,   32.5515,   33.4046,  999.0000,   33.9625,   35.3212,   34.3243,   32.9624,   32.6885,   33.8392,   35.4832,   37.8421,   39.0380,   37.3697,   37.8120,   37.7786,   37.3865,   37.7398,   37.8511,   37.4719,   38.4533,   39.3614,   40.5909,   41.3471,   41.4885,   41.2874,  999.0000,   43.3583,   44.3581,  999.0000,  999.0000,  999.0000,  999.0000,
  1-NOV-1996 11:32:34.61,   17.6148,   18.4083,  999.0000,   18.9488,   19.2871,   19.4492,  999.0000,  999.0000,  999.0000,  999.0000,  999.0000,  999.0000,  999.0000,  999.0000,  999.0000,  999.0000,  999.0000,  999.0000,  999.0000,  999.0000,  999.0000,  999.0000,  999.0000,   26.5162,   25.8539,   27.6790,   28.5672,   29.2727,   29.3169,   28.3827,  999.0000,   30.3372,   31.5556,   32.4451,   32.6306,   31.8149,   31.9193,   34.0859,  999.0000,  999.0000,   32.4745,   33.4950,   34.6695,   36.9108,  999.0000,   38.3644,   36.9582,   37.3488,   37.8629,   38.3645,   38.5105,   38.4391,   38.8984,   40.4771,   41.8422,   41.2298,  999.0000,  999.0000,  999.0000,  999.0000,  999.0000,  999.0000,  999.0000,  999.0000,  999.0000,
  1-NOV-1996 11:37:10.49,   16.3552,   17.6404,  999.0000,  999.0000,  999.0000,  999.0000,  999.0000,  999.0000,  999.0000,  999.0000,  999.0000,  999.0000,  999.0000,  999.0000,  999.0000,  999.0000,  999.0000,  999.0000,  999.0000,  999.0000,  999.0000,  999.0000,  999.0000,   27.1707,   26.2841,   27.3336,   27.5474,   28.5002,   29.3583,   28.5062,   28.8717,   30.7870,   31.6832,   32.4772,   32.3055,   32.0812,   32.6490,   34.0280,   35.8914,   35.0876,   32.6769,   32.9514,   34.5924,   36.9443,   38.2243,   38.9570,   38.6121,   37.6557,   37.2034,   38.4313,   38.9956,   38.8121,   39.9581,   42.4662,   42.5167,   41.3171,   40.1828,   41.8329,  999.0000,  999.0000,   44.4845,   44.6605,   46.0092,   45.8043,  999.0000,
  1-NOV-1996 11:41:46.70,   17.7811,   18.1961,  999.0000,   18.7546,   18.5807,   18.2283,   18.8374,   19.2518,  999.0000,  999.0000,  999.0000,  999.0000,  999.0000,  999.0000,  999.0000,  999.0000,  999.0000,  999.0000,  999.0000,  999.0000,  999.0000,  999.0000,  999.0000,   27.1277,   28.0013,   27.8707,   28.1799,   29.2771,  999.0000,   30.2481,   31.4575,   32.0497,   33.2681,   34.2892,   33.3305,  999.0000,   34.6736,   35.6888,   36.3101,   34.7202,  999.0000,   34.9620,   36.9706,   38.3622,   39.0249,   39.2062,   38.8659,   38.5497,   38.7089,   38.8155,   39.8015,   39.8667,   39.8559,   41.2503,   42.4219,   42.2011,  999.0000,  999.0000,  999.0000,  999.0000,   43.7655,   43.3606,   44.7346,  999.0000,  999.0000,
  1-NOV-1996 11:46:22.41,   18.5800,  999.0000,  999.0000,  999.0000,  999.0000,  999.0000,  999.0000,  999.0000,  999.0000,  999.0000,  999.0000,  999.0000,  999.0000,  999.0000,  999.0000,  999.0000,   23.6118,   23.4537,   23.2448,  999.0000,  999.0000,  999.0000,   26.2171,   27.8878,   27.9691,   29.0622,   29.6983,   30.1345,   30.3989,   31.2713,   31.8837,   31.5642,   32.0730,   33.3553,   33.3575,   32.7373,   33.6717,   34.1299,   34.0470,   34.3558,   33.4449,   34.8787,   37.3647,   38.9997,   39.5869,   39.5269,   38.9003,   39.1502,   39.8320,   39.8745,   40.5642,   40.8844,   39.9283,   40.1313,   41.4883,   42.0330,   40.6737,   41.7153,  999.0000,  999.0000,   43.4627,   42.6301,  999.0000,  999.0000,  999.0000,
  1-NOV-1996 11:50:56.73,   17.7581,   17.7976,   18.3019,  999.0000,   18.9831,   18.7568,  999.0000,  999.0000,  999.0000,  999.0000,  999.0000,  999.0000,  999.0000,  999.0000,  999.0000,  999.0000,  999.0000,  999.0000,  999.0000,  999.0000,  999.0000,  999.0000,  999.0000,   27.1257,   27.0271,   28.5441,   30.2888,   29.1940,   29.5564,   29.6838,   30.8070,   31.5542,   31.3856,   32.1984,   32.0939,   32.3077,   32.9288,   33.1181,   33.6055,   33.2381,   33.4300,   35.3585,   36.4317,   37.3207,   39.3503,   39.8477,   39.0414,   39.8638,   40.2545,   40.1740,   40.3973,   39.6736,   40.0816,   40.0235,   40.5687,   41.2893,   40.5279,   40.9776,  999.0000,   44.0473,   43.7757,  999.0000,  999.0000,  999.0000,  999.0000,
  1-NOV-1996 11:55:31.41,   17.3364,   18.4144,   19.5078,   20.1780,   20.0110,   19.5779,   19.7592,  999.0000,  999.0000,  999.0000,  999.0000,  999.0000,  999.0000,  999.0000,  999.0000,  999.0000,  999.0000,  999.0000,  999.0000,  999.0000,  999.0000,  999.0000,  999.0000,   27.2262,   28.1187,   28.1917,   29.4766,   30.1439,   29.6892,   30.2383,   30.4014,   30.5836,   32.2548,   32.4351,   33.6427,   33.3647,   34.0077,   34.0620,   34.3147,   33.0670,   33.5317,   35.4453,   37.2473,   37.9601,   39.9477,   41.3245,   42.3491,   42.1366,   41.4685,   41.5167,   41.0619,   40.8228,   41.0861,   41.1613,   41.2594,   41.7988,   40.6272,   40.8118,   44.1797,  999.0000,  999.0000,  999.0000,   44.2149,   45.0158,   44.5170,
  1-NOV-1996 12:00:05.56,   17.2032,   17.6046,  999.0000,   20.7109,   20.0266,  999.0000,  999.0000,  999.0000,  999.0000,  999.0000,  999.0000,  999.0000,  999.0000,  999.0000,  999.0000,  999.0000,  999.0000,  999.0000,  999.0000,  999.0000,  999.0000,  999.0000,  999.0000,   27.3706,   27.9551,   27.7982,   29.0218,   30.1904,   29.0501,   29.5095,   29.3730,   31.4543,   32.0717,   32.1779,   33.1550,   32.8678,   33.7338,   34.3294,   34.2969,   33.3402,   33.6549,   35.5316,   36.7755,   37.3018,   40.5024,   42.2233,   42.5768,   42.0907,   41.9115,   41.1419,   40.8929,   41.2835,   41.4259,   41.5542,   41.4179,   41.7410,   41.5276,   41.1264,  999.0000,   43.6716,   42.8540,   42.0473,  999.0000,  999.0000,  999.0000,
  1-NOV-1996 12:04:39.22,   18.5600,  999.0000,  999.0000,  999.0000,  999.0000,  999.0000,  999.0000,  999.0000,  999.0000,  999.0000,  999.0000,  999.0000,  999.0000,  999.0000,  999.0000,  999.0000,  999.0000,  999.0000,  999.0000,  999.0000,  999.0000,  999.0000,   27.0407,   27.5447,   27.3457,   28.1907,   28.9964,   30.7281,   29.7087,   30.8683,   31.1301,   31.7730,   32.8407,   32.2437,   33.6540,   33.0324,   33.8221,   34.9534,   34.4194,  999.0000,   34.1486,   35.1623,   35.6421,   37.4899,   40.0496,   41.7091,   41.4114,   41.5065,   41.0904,   40.9186,   40.6810,   40.5882,   40.3430,   41.0780,   42.7457,   42.2583,   41.7775,   41.1053,   43.2365,  999.0000,   45.3344,  999.0000,  999.0000,  999.0000,   41.9123,
  1-NOV-1996 12:09:15.29,   18.8402,   19.1432,   19.4080,   20.1705,   20.4665,   20.2046,  999.0000,  999.0000,  999.0000,  999.0000,  999.0000,  999.0000,  999.0000,  999.0000,  999.0000,  999.0000,  999.0000,   26.6066,   26.8784,   27.2119,   27.4566,   27.4559,   27.6387,   27.5968,   27.7306,   27.7524,   28.7177,   29.3715,   29.5237,   29.8823,   30.5649,   32.3462,   32.6075,   32.2156,   33.1744,   33.7207,   33.6952,   33.9477,   34.9129,  999.0000,   34.9647,   36.7227,   38.0669,   39.5975,   41.3643,   40.7372,   40.3923,   41.1031,   41.8059,   41.7847,   40.7879,   40.8931,   41.5604,   41.3445,   42.4473,   41.9981,   41.6949,   40.8795,   42.5581,  999.0000,  999.0000,  999.0000,  999.0000,  999.0000,   43.9308,
  1-NOV-1996 12:13:51.17,   18.2189,  999.0000,  999.0000,  999.0000,  999.0000,  999.0000,  999.0000,  999.0000,  999.0000,  999.0000,  999.0000,  999.0000,  999.0000,  999.0000,  999.0000,   25.2313,   25.6864,  999.0000,  999.0000,   27.4854,   27.2077,   26.6539,   27.1861,   27.1112,   27.2211,   26.8390,   28.5921,   28.3837,  999.0000,   31.4464,   31.9288,   31.3710,   32.7319,   32.6852,   33.5460,   33.2936,   33.4735,   34.4604,   34.9856,   34.0764,   35.4063,   37.2574,   38.3679,   40.4824,   40.6286,   40.0889,   39.9582,   40.5528,   41.3718,   41.2308,   40.8397,   40.7808,   41.0402,   41.5071,   41.7031,   40.9588,   42.0236,  999.0000,  999.0000,   45.7214,   46.1555,  999.0000,  999.0000,  999.0000,   43.4317,
  1-NOV-1996 12:18:25.20,   16.7572,  999.0000,   19.5155,   19.9040,  999.0000,  999.0000,  999.0000,  999.0000,  999.0000,  999.0000,  999.0000,  999.0000,  999.0000,  999.0000,  999.0000,  999.0000,  999.0000,  999.0000,  999.0000,  999.0000,   26.8157,   27.3354,  999.0000,   26.7047,   26.5339,   27.0024,   27.5473,   28.2769,   30.0664,   30.1945,   30.9694,   31.1944,   31.9070,   31.4244,   32.9504,   33.2786,   33.1964,   34.0751,   33.9542,   34.2338,   35.1098,   36.6471,   38.8490,   40.6023,   40.8887,   40.8216,   40.6124,   41.3519,   41.7863,   40.8711,  999.0000,  999.0000,  999.0000,  999.0000,   42.0402,   41.3281,   41.2651,   40.4857,  999.0000,   44.1781,  999.0000,   42.5341,   43.1182,   43.2252,   42.9503,
  1-NOV-1996 12:23:33.31,   17.5971,   18.7555,   19.0766,   19.3478,  999.0000,  999.0000,  999.0000,  999.0000,  999.0000,  999.0000,  999.0000,  999.0000,  999.0000,  999.0000,  999.0000,  999.0000,  999.0000,  999.0000,  999.0000,  999.0000,  999.0000,  999.0000,  999.0000,   26.0928,   27.2503,   27.7945,   28.1917,   29.4146,   30.0072,   29.8783,   30.4242,   30.4168,   30.5824,   32.1325,   33.2367,   33.3965,   34.5835,   34.9782,   34.9878,   34.1866,   34.5269,   36.3331,   39.0221,   39.9454,   40.4171,   40.0615,   39.9056,   40.5247,   41.3262,   41.5796,   41.6677,   41.3160,   41.4347,   41.2640,   41.9138,   41.9103,   40.3792,   41.5637,   43.4400,   44.1381,  999.0000,  999.0000,   42.3967,   43.8272,  999.0000,
  1-NOV-1996 12:28:07.19,   19.5936,   19.6692,  999.0000,  999.0000,  999.0000,  999.0000,  999.0000,  999.0000,  999.0000,  999.0000,  999.0000,  999.0000,  999.0000,  999.0000,   23.5417,   24.3563,  999.0000,  999.0000,  999.0000,  999.0000,  999.0000,  999.0000,  999.0000,   26.4552,   27.6338,   28.9934,   29.5145,   30.6610,   30.7993,   30.4897,   32.1726,   31.4595,   31.3156,   32.2490,   33.7051,   33.2142,   34.4039,   35.2829,   34.9820,   34.1386,   34.7547,   37.3606,   39.9135,   40.8383,   41.5801,   41.5399,   41.2101,   41.3818,   41.9336,   42.6242,   42.3115,   42.3464,   42.1548,   42.0245,   42.6043,   43.3626,   41.3214,   42.0323,  999.0000,   44.5085,   44.1168,   42.8553,   42.5837,   44.1398,   43.5410,
  1-NOV-1996 12:32:43.32,   19.1321,   18.9852,   19.4271,   20.1975,  999.0000,  999.0000,  999.0000,  999.0000,  999.0000,  999.0000,  999.0000,  999.0000,  999.0000,  999.0000,  999.0000,  999.0000,  999.0000,  999.0000,  999.0000,  999.0000,  999.0000,  999.0000,   27.3317,   27.7032,   28.8833,   29.4761,   30.0048,   31.2449,   31.1371,   31.8105,   32.0533,   32.0898,   32.7036,   33.6026,   33.3956,   34.6063,   35.1126,   35.5509,   35.9198,   34.7715,   36.2075,   38.9856,   40.8174,   41.0072,   40.9566,   40.8018,   41.1749,   41.7606,   42.3087,   42.3947,   42.5968,   42.9548,   43.5202,   42.3302,   41.6224,   42.4625,   40.9354,   42.0509,   43.8091,   44.8093,   43.3010,  999.0000,   43.9645,   44.2743,   44.9872,
  1-NOV-1996 12:37:17.00,   16.8008,   18.3080,   18.6415,   18.5667,   18.7678,  999.0000,  999.0000,  999.0000,  999.0000,  999.0000,  999.0000,  999.0000,  999.0000,  999.0000,  999.0000,  999.0000,  999.0000,  999.0000,  999.0000,  999.0000,  999.0000,  999.0000,  999.0000,  999.0000,  999.0000,   28.5739,   29.2249,   30.1697,   31.0490,   30.3155,   31.0720,   30.6990,   32.2504,   32.4724,   33.2814,   34.5701,   34.8574,   34.9445,  999.0000,   37.8237,   38.5651,   40.1818,   40.3481,   40.5651,   40.1131,   40.6685,   41.3413,   40.3952,   40.9755,   41.4424,   40.9694,   41.9519,   41.9257,   41.0081,   41.1594,   41.2006,   41.7756,   43.1204,   44.7942,   46.0563,  999.0000,  999.0000,  999.0000,   44.8782,   44.4323,
  1-NOV-1996 12:41:53.35,   18.3807,   19.0713,   18.9198,  999.0000,  999.0000,  999.0000,  999.0000,  999.0000,  999.0000,  999.0000,  999.0000,   25.7118,   25.9129,   26.2828,   26.0992,  999.0000,  999.0000,  999.0000,  999.0000,  999.0000,  999.0000,  999.0000,  999.0000,   28.6024,   29.6673,   29.9243,   31.2471,   31.5059,   31.5403,   32.0609,   31.0999,   32.2336,   33.3748,   34.8091,   34.4050,   35.4874,   35.5033,   37.6249,   39.1733,   40.1780,   40.5168,   40.1380,   41.2377,   40.8409,   41.1043,   41.9774,   42.2855,  999.0000,  999.0000,   43.0879,   42.2354,   42.0073,   41.6021,  999.0000,   41.3934,   40.6118,   42.3521,   42.2256,   44.1077,   45.2670,   44.5939,   43.2275,   42.7848,   44.5575,   45.0246,
  1-NOV-1996 12:46:27.38,   18.1191,   18.9858,   19.1071,   18.7884,   19.6448,   20.7083,  999.0000,  999.0000,  999.0000,  999.0000,  999.0000,  999.0000,   24.7824,   24.7550,  999.0000,  999.0000,  999.0000,  999.0000,  999.0000,  999.0000,  999.0000,  999.0000,  999.0000,   29.1318,   29.2541,   29.0845,   31.0462,   30.9784,   32.0831,   32.4062,   31.7450,   31.6095,   32.6681,   34.8119,   34.7474,   34.8081,   36.2871,   36.9079,   37.9916,   39.4523,   40.5776,   40.8332,   41.6057,   41.0667,   42.6362,   43.1767,   42.9007,   42.7116,   43.2631,   42.5002,   42.8311,   42.9636,   42.3260,   43.4954,   41.9926,  999.0000,   41.4404,   41.6625,   42.8283,   45.4611,  999.0000,  999.0000,  999.0000,  999.0000,   46.8058,
  1-NOV-1996 12:51:01.84,   18.6062,   18.8918,   18.6066,   18.7775,   19.5715,  999.0000,  999.0000,  999.0000,  999.0000,  999.0000,  999.0000,  999.0000,  999.0000,  999.0000,  999.0000,  999.0000,  999.0000,  999.0000,  999.0000,  999.0000,  999.0000,  999.0000,  999.0000,   28.9393,   28.1104,   27.6456,   28.6285,   29.3719,   28.5231,   30.4073,   30.4500,   30.0228,   30.4888,   32.9078,   33.4280,   34.2307,   34.6061,   35.9339,   36.8006,   37.9578,   38.9020,   39.2189,   40.8905,   41.3975,   41.7586,   42.1326,   41.6251,   40.8188,   41.4831,   41.9006,   41.1433,   40.5356,   42.9516,  999.0000,   41.5815,   39.8939,   40.2344,   40.0667,   40.9886,  999.0000,  999.0000,  999.0000,  999.0000,  999.0000,  999.0000,
  1-NOV-1996 12:55:37.40,   18.1842,   17.9785,   18.6272,   19.7902,  999.0000,  999.0000,  999.0000,  999.0000,  999.0000,  999.0000,  999.0000,  999.0000,  999.0000,  999.0000,  999.0000,  999.0000,  999.0000,  999.0000,  999.0000,  999.0000,  999.0000,  999.0000,  999.0000,   27.8864,   28.1806,   26.1356,   26.2448,   27.4458,   26.6053,   28.5206,   29.1789,   27.8472,   28.6240,   29.4725,   30.3394,   31.7595,   32.7480,   34.3615,   35.6386,   35.6814,   36.2490,   37.1584,   38.9833,   39.9049,   39.5173,   40.4353,   40.1551,   39.0950,   40.2226,   40.6131,   39.5166,   39.3746,   39.7229,   39.0068,   38.8613,   39.2847,   39.2192,   38.5709,   39.9680,   43.1833,   44.2312,   43.3390,   43.5636,   43.8387,   43.4169,
  1-NOV-1996 13:00:11.23,   19.6643,   20.2490,   21.5512,   21.6990,  999.0000,  999.0000,  999.0000,  999.0000,  999.0000,  999.0000,  999.0000,  999.0000,  999.0000,   24.7240,   24.7844,  999.0000,  999.0000,  999.0000,   29.9030,   30.1850,   29.4934,  999.0000,   29.6292,   27.2009,   26.1377,   26.0634,   28.2330,   27.9268,   28.5073,   29.1947,   29.2793,   30.2005,   30.5073,   31.0354,   32.6906,   34.5395,   35.2383,   36.5993,   36.1292,   36.1561,   37.4816,   38.9969,   39.5040,   39.5050,   39.5846,   40.4537,   40.8443,   41.2295,   41.5140,   41.5234,   40.6670,   40.0394,   40.6602,   40.7207,   41.0589,  999.0000,  999.0000,  999.0000,  999.0000,  999.0000,  999.0000,  999.0000,  999.0000,  999.0000,  999.0000,
  1-NOV-1996 13:04:45.24,   19.0681,   20.2128,   21.5231,   21.4165,   21.5922,  999.0000,  999.0000,  999.0000,  999.0000,  999.0000,  999.0000,  999.0000,  999.0000,   24.4069,   24.8547,   25.4130,   25.9110,   25.7374,   25.6815,  999.0000,  999.0000,   26.8507,   27.3242,   27.9748,   27.6978,   27.7442,   28.6858,   28.4865,   29.5933,   28.9714,   29.4998,   30.0136,   31.3920,   31.1799,   32.3018,   34.4248,   34.9609,   35.1043,   35.4696,   35.8835,   37.2100,   38.2841,   38.7222,   38.7674,   40.1920,   39.8409,   40.0446,   40.7074,   40.3746,   40.6021,   40.6338,   40.1812,   40.1269,   40.7386,   40.9770,   39.0167,   39.3994,   39.5495,   41.9625,   42.6905,  999.0000,   40.7141,   41.4560,   42.5015,  999.0000,
  1-NOV-1996 13:09:22.45,   19.2223,   19.5321,  999.0000,  999.0000,  999.0000,  999.0000,  999.0000,  999.0000,  999.0000,  999.0000,  999.0000,  999.0000,  999.0000,  999.0000,  999.0000,   25.8603,   26.0490,  999.0000,  999.0000,  999.0000,  999.0000,  999.0000,  999.0000,   28.1119,   28.1106,   27.9348,   28.1721,   27.8263,   27.9045,   28.4419,   28.5695,   28.9738,   30.2792,   30.3757,   31.9250,   33.8548,   34.9800,   34.7906,   35.1838,   36.3132,   37.2465,   37.7976,   38.4649,   37.6237,   38.1050,   38.9441,   39.9533,   40.1088,   39.5315,   39.5805,   39.7785,   39.7328,   39.0632,   39.2241,   39.5508,   38.3652,   39.2711,   38.7025,   39.0146,   42.8519,  999.0000,   41.4152,   42.7825,   42.7805,   43.7599,
  1-NOV-1996 13:13:58.17,   18.7440,  999.0000,  999.0000,  999.0000,  999.0000,  999.0000,  999.0000,  999.0000,  999.0000,  999.0000,  999.0000,  999.0000,  999.0000,  999.0000,  999.0000,   25.3399,   24.8452,  999.0000,   24.8012,   25.2874,   24.9293,  999.0000,   26.3185,   27.2158,   27.0291,   27.2018,   27.8139,   27.2978,   28.2769,   28.6706,   28.8955,   29.9825,   29.2330,   30.2419,   30.9475,   33.3912,   34.4434,   34.0801,   34.4547,   35.6900,   36.7307,   36.9052,   36.9791,   36.5070,   37.3278,   38.5346,   39.0365,   39.2406,   39.0159,   39.2814,   38.9480,   37.8261,   37.6062,   38.5006,   37.7113,   36.7968,   37.5582,   36.5154,   37.4555,   40.1519,   42.2141,   41.6841,   41.7949,   41.8394,   42.8907,
  1-NOV-1996 13:18:32.32,   18.2309,   18.9323,   20.1968,  999.0000,  999.0000,  999.0000,  999.0000,  999.0000,  999.0000,   25.3603,   27.0167,   27.6837,   26.9591,   26.1028,   25.5627,  999.0000,   26.3861,   26.8178,  999.0000,   25.0040,   25.1215,   26.1030,   25.9887,   26.5332,   27.4668,   27.1431,   28.3157,   29.2786,   29.8029,   30.0258,   30.2236,   31.0873,   30.7478,   30.6751,   31.6096,   32.8510,   34.9829,   34.7358,   34.7682,   36.7369,   37.1919,   36.3948,   36.8650,   35.8687,   37.1396,   38.3359,   38.8690,   39.1470,   39.2391,   39.4560,   38.2272,   38.0542,   39.6603,   38.8352,  999.0000,   37.3030,   38.2112,   36.8017,   37.0512,   39.9651,   42.1716,   42.1755,  999.0000,  999.0000,  999.0000,
  1-NOV-1996 13:23:06.16,   16.6501,   16.9306,   18.8848,   20.5604,  999.0000,  999.0000,  999.0000,  999.0000,  999.0000,   24.6453,   25.6448,  999.0000,   25.9915,   25.2808,   24.8752,  999.0000,  999.0000,  999.0000,   27.2236,   27.6415,   27.5006,   26.7975,  999.0000,   27.2398,   26.9496,   26.4429,   27.3168,   28.8561,   29.6657,   29.8409,   30.0805,   30.3611,   30.6707,   31.0665,   31.3267,   31.6115,   32.7500,   33.2549,   33.7692,   35.6537,   36.3526,   36.0792,   35.6633,   34.8822,   36.9847,   37.3197,   37.6452,   37.6402,   37.4750,   37.9245,   37.3242,   37.9881,   37.7614,   35.8105,   36.5499,   37.6183,   38.5735,   36.9967,  999.0000,   38.7038,   40.6180,   41.2381,   40.6258,   40.2490,   41.7648,
  1-NOV-1996 13:27:40.45,   18.6115,   18.4804,   19.6834,   21.3580,  999.0000,  999.0000,  999.0000,  999.0000,  999.0000,   24.5238,   25.4894,   25.7287,   25.8524,   25.6227,   25.6785,   26.4292,   26.9480,   27.5231,   28.7173,  999.0000,  999.0000,  999.0000,   28.0704,   27.7460,   27.3823,   28.4024,   29.7317,   30.7872,   30.8206,   30.4797,   32.4193,   31.8376,   32.6604,   32.4371,   32.4841,   33.8149,   34.6614,   35.0732,   35.9928,   36.6641,   36.1399,   34.8246,   34.9968,   36.9854,   37.7080,   38.1870,   38.1561,   38.2553,   37.8941,   38.0618,   37.8114,   36.6711,   36.4145,   37.0099,   37.6753,   37.6398,   38.4235,   37.5683,   38.2650,   39.8011,   41.2789,   42.3520,  999.0000,  999.0000,   41.8264,
  1-NOV-1996 13:32:14.85,  999.0000,  999.0000,  999.0000,  999.0000,  999.0000,  999.0000,  999.0000,  999.0000,  999.0000,   23.3699,   23.6955,  999.0000,   24.0125,   24.3512,  999.0000,  999.0000,   25.5374,   25.5171,   26.4870,  999.0000,  999.0000,  999.0000,   27.7216,   29.0341,   28.6666,   29.2803,   30.6567,   31.3667,   31.1183,   30.3454,   31.9234,   32.5083,   32.5869,   33.3264,   32.3220,   33.9047,   34.0538,   35.2459,   35.5304,   35.6604,   34.9216,   34.5498,   36.1226,   35.8844,   35.6104,   36.4256,   36.7145,   36.9295,   36.5466,   37.3032,   37.1022,   35.7387,   35.4408,   36.8065,   38.1604,   37.9310,   36.9456,   37.2916,   39.8353,   39.2627,   40.6659,   41.2801,   40.3488,  999.0000,  999.0000,
  1-NOV-1996 13:36:49.13,   21.6339,   21.5512,   21.2726,  999.0000,  999.0000,  999.0000,  999.0000,  999.0000,  999.0000,   22.8994,   24.2958,   23.8947,   24.2605,   24.9700,  999.0000,   26.1638,   26.2518,  999.0000,   26.5094,   26.3513,   26.9927,  999.0000,  999.0000,   29.8956,   29.9854,   30.2186,   31.2516,   31.3568,   30.2764,   31.2186,   30.5990,   31.4774,   32.5385,   33.8878,   33.6324,   34.6382,   34.8024,   35.3467,   34.9168,   34.6720,   34.7267,   35.7386,   36.5014,   35.7434,   35.2771,   36.8962,   37.2888,   36.6181,   35.6289,   36.3544,   36.0873,   36.0131,   35.6451,   36.2403,   36.2539,   35.9272,   35.6407,   37.4181,   38.4330,   38.6683,   39.9334,   41.0381,   40.0183,  999.0000,   42.6416,
  1-NOV-1996 13:41:23.84,   20.8337,   21.4184,   22.2321,   23.2292,  999.0000,  999.0000,  999.0000,  999.0000,  999.0000,  999.0000,   23.0606,   21.9517,   21.7889,   22.4989,   23.9022,   25.1612,   25.5320,   25.8011,   25.9792,   25.8607,   26.1269,   26.1159,   27.7716,   29.7991,   31.0304,   30.0574,   30.2692,   29.8706,   31.0547,   29.5825,   30.8369,   31.3459,   32.0182,   33.8074,   33.6655,   33.8299,   34.5568,   35.0033,   34.0150,   33.5473,   34.7554,   35.6760,   35.4148,   35.0308,   35.7788,   37.2548,   37.2814,   35.8882,   35.1065,   35.6538,   35.3623,   35.6808,   35.4986,   35.6328,   37.0691,   37.0361,   37.4524,   38.4503,   38.8440,   39.5066,   40.5292,  999.0000,   40.3158,   40.5681,  999.0000,
  1-NOV-1996 13:46:00.33,   21.0758,   22.1166,   23.1372,   23.2744,  999.0000,  999.0000,  999.0000,  999.0000,  999.0000,  999.0000,  999.0000,  999.0000,   22.2971,   23.1355,   24.4561,   25.8699,   25.7359,   26.0887,   25.3274,   25.0623,   25.4365,   25.9579,   26.9856,   29.9560,   31.0879,   30.5652,   30.0350,   29.5106,   29.8876,   28.9836,   29.8605,   31.1091,   32.3299,   32.9866,   34.1137,   33.6540,   34.0759,   34.6610,   34.3528,   34.5533,   34.7454,   34.9975,   35.0163,   35.1230,   35.8758,   37.1625,   37.1979,   35.0160,   34.3856,   34.9310,   35.1392,   34.6682,   34.6517,   34.8071,   35.3427,   36.1236,   37.0638,   37.9347,   37.5377,   38.0040,   40.0758,   39.7469,   40.5586,   40.3083,  999.0000,
  1-NOV-1996 13:50:36.42,   21.0094,   21.9208,   22.5035,   22.8208,   23.1908,   23.2747,  999.0000,  999.0000,  999.0000,  999.0000,  999.0000,  999.0000,  999.0000,  999.0000,  999.0000,   26.4221,   25.6451,   26.1840,   26.3768,   26.9781,   27.0156,   27.9552,   28.9702,   30.2999,   30.4871,   30.4016,   30.0921,   29.6678,   28.4737,   29.1007,   29.4178,   31.1804,   33.3033,   33.4914,   33.9181,   34.1802,   33.7427,   34.6253,   34.8569,   34.7437,   34.9470,   35.1643,   35.7624,   36.7875,   37.3581,   37.3069,   36.5979,   36.5845,   35.8783,   36.0560,   36.3454,   35.3739,   34.7278,   35.2990,   36.0050,   36.8882,   36.9711,   37.4340,   37.9031,   38.7957,   40.2561,   40.1375,   41.5522,   41.1559,   41.9384,
  1-NOV-1996 13:55:11.35,   20.8648,   21.5670,   22.0404,   22.3737,   21.9859,  999.0000,  999.0000,  999.0000,  999.0000,  999.0000,   24.5221,   24.8716,  999.0000,  999.0000,  999.0000,  999.0000,  999.0000,   25.4452,   26.4145,   27.1816,   27.3469,   27.7730,   28.7835,   30.6490,   29.9152,   30.2546,   29.6800,   28.6355,   28.0319,   29.2274,   29.7784,   31.6628,   33.3045,   33.9310,   33.7288,   33.5355,   34.6539,   36.4311,   36.5256,   36.0512,   35.9702,   37.4796,   38.3334,   36.7629,   36.6598,   37.9063,   37.1406,   37.1290,   36.9605,   36.1667,   36.0132,   35.9271,   35.8516,   35.9899,   36.7338,   37.5752,   38.1769,   38.5857,   38.5653,   39.1980,   41.1211,   41.3980,   42.2281,  999.0000,  999.0000,
  1-NOV-1996 13:59:45.36,   20.8170,   21.4943,   21.9700,   21.9984,  999.0000,  999.0000,  999.0000,  999.0000,  999.0000,   25.0395,   25.8557,   26.3095,   26.2588,   26.2029,   26.4555,  999.0000,   26.5717,   25.8567,   25.6695,   26.5139,   27.7351,   28.4754,   29.5836,   31.3962,   29.8926,   30.3446,   29.3760,  999.0000,   28.1576,   28.7910,  999.0000,   31.5265,   32.5884,   32.9459,   33.6232,   33.2531,   34.0685,   35.0139,   35.5543,   35.6974,   36.1842,   37.4287,   37.6355,   37.5027,   36.5925,   36.0828,   35.0139,   35.7848,   35.7866,   35.4531,   35.1845,   35.5544,   36.3492,   36.6788,   36.6639,   36.8833,   36.5975,   37.3930,   38.6923,   39.9303,  999.0000,   40.9043,   40.8405,   41.5087,   41.1533,
  1-NOV-1996 14:04:22.38,   20.8085,   21.6028,   22.1453,   22.3533,  999.0000,  999.0000,  999.0000,  999.0000,  999.0000,   26.7158,   26.6343,   26.2995,  999.0000,  999.0000,   25.9346,   26.5408,   26.2612,   25.5505,   25.8582,   26.6261,   27.4957,   27.7801,  999.0000,   30.7055,   29.6950,   29.8158,   28.1748,  999.0000,   27.4074,   27.5945,   28.0415,   29.4754,   30.2804,   31.2748,   32.0249,   32.3421,   32.5727,   32.5380,   34.0048,   34.4278,   34.5465,   35.6563,   36.2145,   36.5797,   36.2012,   35.7647,   35.6635,   35.1174,   34.8410,   34.3082,   34.6350,   34.7350,   34.9446,   35.3743,   35.8058,   36.4212,   36.3823,   36.6488,   38.4923,   39.6712,   40.6235,   39.7253,   40.0144,  999.0000,   41.5948,
  1-NOV-1996 14:08:56.99,   20.7402,   21.7896,   22.2140,   21.9970,  999.0000,  999.0000,  999.0000,  999.0000,  999.0000,   26.5354,   25.6796,   25.6602,  999.0000,  999.0000,   23.8732,   25.2771,   25.2343,   26.1538,  999.0000,   27.9662,   28.5745,  999.0000,  999.0000,  999.0000,   30.0282,   29.3373,   28.2443,   28.7566,  999.0000,   27.9409,   29.0532,   30.1351,   30.7148,   31.4758,   32.5281,   32.2464,   31.9675,   33.8049,   34.5919,   34.3337,   34.3266,   35.6697,   35.9130,   36.3251,   36.6124,   35.9305,   35.8886,   35.7916,   35.1437,   35.0278,   34.8985,   35.6369,   36.7453,   36.6514,   36.3114,   36.5953,   36.5708,   37.4343,   39.0371,   39.7910,   40.8483,   39.9874,   41.5674,   42.6258,   42.5839,
  1-NOV-1996 14:14:29.02,   20.1684,  999.0000,   21.5277,   21.8500,   21.7871,  999.0000,  999.0000,   25.4156,   25.2759,  999.0000,   23.6124,   23.7848,  999.0000,   24.6918,   24.8939,   25.9752,   26.5786,   27.1370,   28.3680,   29.0903,  999.0000,  999.0000,  999.0000,   29.9030,   29.5845,   29.6224,   28.4989,   28.3659,   27.7262,   28.6172,   29.5666,   30.2472,   30.3926,   31.1232,   31.8576,   31.2644,   32.2956,   33.9228,   34.3302,   34.6456,   35.6546,   35.8799,   36.0469,   36.0739,   36.0806,   36.7016,   36.3264,   35.7841,   34.9602,  999.0000,   36.2351,   35.1727,   36.7839,   36.6936,   36.0647,   36.0562,   35.7513,   37.0382,   39.2993,   40.2120,   41.2573,   41.4274,   42.2312,   42.2674,   42.3023,
  1-NOV-1996 14:19:03.28,   20.4159,   21.7835,   22.8812,   23.3623,  999.0000,  999.0000,  999.0000,   26.4537,   27.0256,  999.0000,   24.8388,   24.8119,  999.0000,   26.4432,   26.8514,   27.4882,   27.1359,   27.1576,   27.6171,  999.0000,  999.0000,   28.7285,   28.2855,   28.9240,   28.4710,   28.2366,   27.4472,   28.3753,   27.2658,   28.6025,   29.1666,   29.3043,   30.3276,   30.3365,   30.2128,   30.0064,   32.0773,   34.1974,   34.5502,   34.5261,   35.8786,   35.9981,   35.7472,   35.5942,   35.8888,   36.4399,   36.2852,   35.4347,   34.9746,   34.4486,   33.9694,   34.6270,   35.1474,   35.1935,   35.6309,   34.6646,   35.2687,   36.6553,   38.3969,   39.6673,   41.4882,   41.6073,   42.7078,   42.8461,   42.1932,
  1-NOV-1996 14:23:37.69,   20.2708,  999.0000,   22.5223,   23.1367,  999.0000,  999.0000,  999.0000,  999.0000,  999.0000,  999.0000,  999.0000,  999.0000,  999.0000,  999.0000,  999.0000,   27.7205,   26.9874,   26.6695,   27.2407,   27.9396,   28.1373,  999.0000,   27.8726,   28.7071,   28.4284,   28.4261,   28.9672,   28.9188,  999.0000,   28.4270,   29.6065,   30.2580,   31.5479,   31.1521,   30.5141,   31.8609,   33.7307,   34.1911,   34.0099,   35.0173,   35.8825,   36.2611,   36.2463,   36.4332,   36.7227,   36.8235,   36.7058,   36.6850,   36.0393,   35.1016,   34.6630,   34.2578,   34.8980,   35.7047,   36.1284,   36.9972,   38.0027,   37.2653,   37.9829,   40.2787,   42.8623,   43.8094,   43.0654,   42.9549,   43.4813,
  1-NOV-1996 14:28:13.58,   20.6850,   21.4172,   21.7280,   22.6926,  999.0000,  999.0000,  999.0000,  999.0000,  999.0000,  999.0000,  999.0000,  999.0000,  999.0000,  999.0000,  999.0000,   27.7321,   26.7563,   26.1211,   26.9324,  999.0000,  999.0000,   28.6290,   29.0377,   28.4409,   28.9239,   28.7205,   27.2824,   27.3646,   27.0275,   28.8719,   29.3309,   29.9777,   29.7932,   31.1107,   30.4445,   31.8699,   33.5071,   33.6702,   33.9737,   35.5157,   34.8895,   35.6123,   36.3743,   36.1910,   37.0328,   36.9191,   36.7716,   36.3236,   35.6551,   35.0474,   33.7252,   33.5954,   34.7451,   35.3143,   35.1258,   35.3878,   36.4769,   37.1323,   38.0431,   39.9206,  999.0000,  999.0000,  999.0000,  999.0000,  999.0000,
  1-NOV-1996 14:32:50.10,   20.9615,   21.6055,   21.8829,   21.7487,  999.0000,  999.0000,  999.0000,  999.0000,  999.0000,  999.0000,  999.0000,  999.0000,   27.0662,   27.0517,  999.0000,  999.0000,   26.0641,   26.6193,   27.7036,   28.1773,  999.0000,   28.4485,   27.2301,   28.5695,   29.8533,   29.2493,   29.0136,   27.6344,   28.0176,   28.3582,   29.6647,   30.9690,   30.2032,   30.3999,   31.1932,   31.7181,   32.6587,   33.4098,   34.0684,   35.0634,   34.5110,   35.3630,   36.2783,   36.8800,   37.3170,   36.1853,   35.8819,   35.8211,   35.0216,   34.4951,   33.6913,   33.6154,   34.6368,   34.1781,   34.1580,   35.2773,   35.9418,   36.5989,   37.4078,   38.1138,  999.0000,  999.0000,   43.6131,   43.7115,  999.0000,
  1-NOV-1996 14:37:26.11,  999.0000,   20.5485,   21.4456,   21.9043,  999.0000,  999.0000,  999.0000,   25.7244,   25.2519,  999.0000,  999.0000,  999.0000,  999.0000,  999.0000,   25.9393,   25.6339,   26.0187,   26.8001,   27.5810,   27.6715,  999.0000,   28.6166,   28.9021,   28.6124,   29.9910,   29.1025,   29.2249,   28.3497,   29.2273,   28.9974,   28.6910,   29.2470,   30.9279,   30.8520,   31.4775,   32.1353,   32.9090,   33.8365,   35.3383,   35.3649,   35.3428,   36.3820,   37.1002,   37.2376,   36.7694,   35.3515,   35.7159,   34.9456,   33.8304,   33.8211,   33.7591,   33.7180,   34.1973,   33.7490,   34.5824,   35.2375,   35.5073,   36.7780,   36.9727,   39.0918,   43.1373,   44.4076,   43.9610,   44.2952,   45.2528,
  1-NOV-1996 14:42:02.55,   21.3210,   21.9955,   22.5154,   22.5999,  999.0000,  999.0000,  999.0000,  999.0000,  999.0000,  999.0000,   24.4199,   24.1621,  999.0000,  999.0000,  999.0000,   25.5918,   25.3886,   26.7685,   27.0909,   27.6510,   27.9970,   28.2016,   28.0457,  999.0000,  999.0000,   29.4467,   28.8547,   28.4275,   30.0151,   29.4989,   30.1195,   30.7176,   31.5192,   30.6680,   31.4332,   32.3484,   33.8926,   34.8605,   35.4424,   35.0495,   35.6361,   35.8869,   36.2364,   36.4627,   35.5160,   34.2008,   34.8385,   34.5532,   34.7149,   33.5713,   33.4074,   33.4233,   33.8593,   34.1800,   34.8789,   35.8811,  999.0000,   35.7691,   37.0052,   39.8493,  999.0000,   43.4525,   42.7460,   44.0509,  999.0000,
  1-NOV-1996 14:46:39.26,   20.9673,   21.2891,   22.6305,  999.0000,  999.0000,  999.0000,  999.0000,   27.2218,   25.7770,  999.0000,  999.0000,  999.0000,  999.0000,  999.0000,  999.0000,  999.0000,   25.5007,   27.2357,  999.0000,  999.0000,  999.0000,   29.7887,   29.1736,   29.1140,   28.7232,   28.4333,   29.3787,   27.8807,   28.8154,   30.3182,   31.6638,   31.2980,   32.0164,   31.1278,   31.3052,   32.8530,   34.8723,   34.9698,   35.7169,   35.2147,   34.9748,   35.7466,   36.9392,   36.5747,   34.9279,   34.7452,   34.5264,   34.4842,   33.3105,   32.5518,   33.0741,   33.1774,   33.9358,   33.4717,   33.6104,   33.4984,   33.5319,   34.5257,   36.2541,   39.9408,   43.0866,   43.8827,   43.4924,   44.0139,   44.0791,
  1-NOV-1996 14:51:13.95,  999.0000,  999.0000,  999.0000,  999.0000,  999.0000,  999.0000,  999.0000,  999.0000,  999.0000,  999.0000,  999.0000,  999.0000,   26.6188,   25.9706,   25.9811,   26.0995,   25.9342,  999.0000,  999.0000,   29.3051,   29.3944,   29.3212,   29.7823,   24.9507,   26.0201,   26.3644,   27.4034,   27.6333,   27.6610,   29.7712,   30.5735,   31.5253,   32.4777,  999.0000,   32.3023,   33.3193,   35.2769,   36.1000,  999.0000,   36.6290,   36.9975,   37.0851,   35.3230,   36.9270,   35.8478,   35.0498,   34.6214,   34.0599,  999.0000,  999.0000,   33.8370,   33.5869,   32.9531,   33.3175,   33.4151,   33.0476,   34.0521,   35.3538,   36.9836,   39.6386,   42.3047,  999.0000,   43.1237,   42.6448,   44.1243,
  1-NOV-1996 14:55:50.43,   20.6251,   21.4609,   21.2951,  999.0000,  999.0000,  999.0000,  999.0000,  999.0000,  999.0000,  999.0000,   24.4112,   25.1192,   25.0111,   25.5957,   24.9358,   25.0639,   25.7851,   27.7511,  999.0000,  999.0000,  999.0000,  999.0000,  999.0000,   27.8632,   28.2910,   28.4668,   28.6339,   28.4385,   28.4521,   30.5449,   31.1164,   30.3080,   30.6383,   30.9968,   31.5583,   32.7375,   35.3696,   35.6383,   36.1054,   37.2307,   37.0319,   37.7870,  999.0000,   35.9974,   34.9461,   33.7837,   34.0660,   33.9017,   33.2019,   32.9547,   32.9262,   32.9649,   33.2444,   33.9827,   33.3169,  999.0000,  999.0000,  999.0000,  999.0000,  999.0000,  999.0000,  999.0000,  999.0000,  999.0000,  999.0000,
  1-NOV-1996 15:00:24.26,   19.4612,  999.0000,  999.0000,  999.0000,  999.0000,  999.0000,  999.0000,  999.0000,  999.0000,  999.0000,  999.0000,   24.0608,   22.4309,  999.0000,   22.7915,   22.2990,   21.9625,  999.0000,  999.0000,  999.0000,  999.0000,  999.0000,  999.0000,   27.4783,   28.9535,   28.4388,   28.7646,   27.7715,   28.4103,   29.6376,   29.5037,   29.3529,   29.5950,   30.0708,   31.7941,   33.6425,   34.8312,   35.5229,   35.8721,   35.4957,   36.2191,   36.0383,   36.1994,   35.8911,   34.3130,   33.2721,   33.7756,   34.2346,   34.0539,   33.6360,   34.1907,   34.5910,   34.3371,   33.8200,   32.8176,   32.7980,   33.6306,   35.6324,   38.6068,   41.0375,   41.6136,   41.6880,   42.8961,   42.5163,   41.9479,
  1-NOV-1996 15:05:00.03,   20.2294,   20.9902,   21.5500,   21.8891,  999.0000,  999.0000,  999.0000,  999.0000,   26.9750,   26.9628,   27.0931,   26.5837,  999.0000,   26.3385,   26.0171,   24.7761,  999.0000,  999.0000,  999.0000,  999.0000,  999.0000,  999.0000,  999.0000,   29.1945,   28.8431,   29.9722,   30.8783,   29.3040,   30.6314,   30.3372,   30.8079,   30.4099,   29.6755,   30.7897,   31.7245,   32.4824,   33.7678,   35.4408,   36.2420,   36.1753,   35.3357,   35.6718,   36.4061,   35.3749,   34.9500,   34.2285,   34.2021,   34.0944,   33.6563,   33.6295,   34.4823,   35.2214,   33.7677,   32.1475,   31.9605,   32.4175,   33.2374,   35.8760,   38.1117,   39.3386,   40.3895,   41.7739,   42.5531,  999.0000,  999.0000,
  1-NOV-1996 15:09:34.05,   19.0812,   19.9631,  999.0000,   22.6826,   23.6669,   24.8778,  999.0000,  999.0000,  999.0000,  999.0000,  999.0000,   25.1296,   25.0400,   24.4328,  999.0000,  999.0000,  999.0000,   26.4488,   26.5573,   27.6741,  999.0000,  999.0000,  999.0000,   29.5331,   28.6595,   30.6543,   29.8784,   29.7068,   31.0203,   29.7915,   31.0421,   30.5462,   29.9991,   31.0833,   31.4542,   33.3698,   35.2517,   35.7283,   35.3925,   36.1527,   35.4030,   34.8413,   37.1154,   35.6186,   35.0281,   34.4406,   34.6373,   33.5444,   33.2818,   33.6743,   34.6240,   33.8205,   32.5589,   32.3203,   31.9530,   32.2840,  999.0000,  999.0000,   37.8568,   39.0005,   40.7222,   43.1978,   43.8235,   43.3965,   43.5645,
  1-NOV-1996 15:14:08.30,   19.7151,   21.2976,   21.9677,  999.0000,  999.0000,   26.3714,   26.5884,   26.3205,  999.0000,  999.0000,  999.0000,  999.0000,  999.0000,  999.0000,  999.0000,  999.0000,  999.0000,   27.1527,   27.4608,   27.5728,   28.9822,  999.0000,  999.0000,   30.2021,   30.0008,   30.9349,   31.1190,   31.3619,   32.5687,   31.5505,  999.0000,  999.0000,   30.5246,   31.1884,   32.8811,   34.6392,   34.9812,   36.2367,   36.6516,   36.1698,   36.2085,   36.4806,   36.5121,   35.5392,   35.6843,   34.9997,   35.4283,   34.6575,   34.0548,   34.2135,   35.0903,   34.8785,   34.0864,   33.8307,   33.6582,   33.8951,   35.2152,   37.1855,   39.2293,   40.0259,   41.7700,   43.9958,   43.8055,   42.8277,   44.0209,
  1-NOV-1996 15:18:44.71,   20.9627,   22.4627,   23.0017,   24.2447,   25.0909,   24.6032,  999.0000,  999.0000,   24.1242,   23.6248,   23.5164,   23.7890,   23.6531,   22.5821,   22.2484,   23.6434,   26.1494,   27.2888,   27.3353,   27.8331,  999.0000,  999.0000,  999.0000,   30.1567,   29.9529,   29.6468,   29.0945,   30.5411,   32.3267,   31.2779,   31.7143,   30.7340,   30.5922,   30.3858,   32.5005,   33.2530,   33.6393,   35.9967,   36.0672,   35.9955,   35.6472,   34.8280,   34.7043,   34.6120,   34.3259,   34.6303,   34.2647,   34.5004,   35.3519,   36.1452,   36.5176,   35.5101,   34.3072,   32.4600,   31.7558,   33.0235,   34.8181,   36.8052,   38.6971,   40.3723,   42.2802,   44.3399,   45.1808,   43.9731,   43.5738,
  1-NOV-1996 15:23:18.67,   19.6779,   21.0968,   21.9925,  999.0000,  999.0000,  999.0000,  999.0000,  999.0000,  999.0000,   23.7890,   23.9786,   24.3092,   24.1992,   23.8899,   24.0434,  999.0000,   27.6354,   28.1929,   27.9777,   28.0284,   27.8458,   29.0236,  999.0000,   30.8858,   30.5934,  999.0000,   30.4371,   30.3344,   29.1768,   30.0230,  999.0000,   30.4175,   30.5562,   32.6907,   33.7839,   33.5386,   34.3328,   35.7435,   36.2536,   35.8315,   35.4297,   35.1469,   35.8210,   34.9418,   34.9817,   36.1883,  999.0000,   35.7117,   35.6755,   37.0269,   37.2721,   37.4176,   36.7322,   34.5822,   33.3689,   32.8633,   33.9874,   36.1554,   36.8491,   39.0241,   41.2284,   43.3390,   44.2494,   44.9121,   43.2087,
  1-NOV-1996 15:27:54.88,   19.6156,   21.2439,  999.0000,  999.0000,  999.0000,  999.0000,  999.0000,  999.0000,  999.0000,  999.0000,   24.1203,   24.0469,   23.2733,   23.8724,   24.6496,  999.0000,  999.0000,   28.2153,   28.2090,   27.7341,   28.6242,   28.9908,   29.4911,   30.7171,   30.9073,   29.5791,   30.5873,   29.1728,   28.6734,   30.1575,  999.0000,   31.2455,   31.7262,   33.8509,   33.9599,   34.6817,   35.0140,   36.0298,   36.2183,   36.6342,   36.1168,   35.3946,   35.4611,   35.4328,   35.8002,   36.3395,   35.6545,   36.0432,   36.4127,   37.6108,   38.1098,   37.8859,   37.6404,  999.0000,  999.0000,  999.0000,   33.7916,   35.4339,   36.4909,   39.0391,   42.2641,   44.2598,   45.3649,  999.0000,  999.0000,
  1-NOV-1996 15:32:30.11,   18.9299,   20.1324,   21.3447,  999.0000,  999.0000,  999.0000,   21.5246,   21.6648,   22.2051,   22.8734,   22.6230,   21.9149,   22.5005,   23.7658,   24.1240,   24.9590,   26.1569,   27.3995,   27.6314,   27.0039,   27.0023,   27.0473,   27.6408,   29.7458,   30.0384,   29.6858,   28.8471,   28.2570,   28.8753,   30.3875,   30.4338,   30.8251,   31.8426,   32.7849,   32.6516,   33.7225,   34.2030,   33.4645,   34.0579,   35.6187,   34.8019,   35.0162,   35.2137,   34.9795,   34.7077,   35.0725,   35.5407,   36.5237,   37.2986,   37.5441,   37.5474,   37.6165,   37.5712,   36.8441,  999.0000,  999.0000,   33.3320,   34.5489,  999.0000,  999.0000,  999.0000,  999.0000,  999.0000,  999.0000,  999.0000,
  1-NOV-1996 15:37:04.66,   21.0517,  999.0000,  999.0000,  999.0000,  999.0000,  999.0000,  999.0000,  999.0000,  999.0000,  999.0000,  999.0000,   21.6772,   22.6560,   23.8945,   24.3008,   24.3761,  999.0000,  999.0000,   28.8369,   28.3195,   27.4339,   27.4309,  999.0000,   29.8522,   28.5023,   29.1427,   28.2249,   27.9143,   28.7801,   30.5251,   31.9189,   32.3202,   32.8807,   33.1970,   33.3495,   34.8799,   35.2340,   34.8034,   35.1045,   35.2788,   34.8030,   33.8299,   34.3708,   34.6361,   35.2677,   36.6328,   38.3611,   38.9787,   38.3506,   38.0170,   38.2565,   38.1592,   37.5723,   36.7567,   34.7606,   33.2122,   34.3703,   36.2978,   38.2009,   40.4086,   42.5532,   44.2060,   45.5349,   45.3469,   43.7592,
  1-NOV-1996 15:41:38.79,   20.0538,   20.3372,  999.0000,  999.0000,   22.9937,   24.0351,  999.0000,  999.0000,  999.0000,   23.7762,   23.5930,   23.6494,   24.2702,   24.0590,  999.0000,   25.5154,   26.1408,   26.5487,  999.0000,  999.0000,  999.0000,   27.1030,   27.7582,   28.6662,   28.1236,   28.0809,   28.6853,   27.8184,   29.8975,   30.7315,  999.0000,   33.5973,   33.1358,   33.3203,   34.2186,   35.0346,   34.1863,   35.2577,   36.6992,   35.7435,   35.9410,   34.9514,   35.7260,   34.7245,   35.5429,   36.3569,   37.1135,   37.3207,   37.2585,   37.2653,   37.2170,   36.9018,   36.6064,   36.1485,   33.7868,   33.1446,   35.3398,   37.9518,   38.7880,   40.9556,   43.8606,   45.1455,   44.4701,   45.6407,   46.4796,
  1-NOV-1996 15:46:13.05,   21.0014,   21.1121,   21.8217,   21.7642,   21.8752,  999.0000,  999.0000,  999.0000,  999.0000,   24.7249,   24.7183,   24.6336,   25.0891,   25.4613,   25.8026,   25.8441,   26.7775,  999.0000,   27.8194,   27.3806,   26.5420,   27.2136,   27.8965,   29.3597,   28.2376,   28.2458,   27.0836,   27.9111,   29.6390,   30.5150,   32.6896,   34.4092,   34.0528,   33.4617,   34.2770,   35.1421,   34.8313,   34.4373,   35.3721,   35.7385,   35.5351,   35.7606,   36.2160,   35.9453,   35.3315,   35.7583,   36.0925,   38.1604,   38.4907,   38.7620,   38.3675,   36.8613,   35.8608,   35.5941,   34.6380,   34.2158,   35.5466,   37.6506,   38.1371,   39.7570,   42.5033,   43.9199,   43.4345,   44.0200,   45.0865,
  1-NOV-1996 15:50:50.19,   21.4555,   21.0529,   21.1740,  999.0000,  999.0000,  999.0000,  999.0000,  999.0000,  999.0000,  999.0000,   22.7547,   24.2458,   25.4363,   26.2483,   27.4205,   27.1164,   27.2353,   27.9726,   29.0293,   27.8985,   27.8724,  999.0000,  999.0000,   29.3917,   28.7663,   28.8086,   28.0670,   28.0534,  999.0000,   31.1807,   32.8107,   34.5972,   34.6036,   34.5075,   34.8316,   36.3347,   35.3259,   34.7522,   35.5852,   35.8061,   35.5360,   35.5432,   35.4763,   35.2745,   35.8977,   36.7415,   38.2140,   38.9641,   38.6519,   37.7388,   37.6843,   37.2028,   36.4791,   35.0143,   34.5601,   35.2357,   36.2701,   38.1132,   38.3700,   39.8035,   41.4868,   43.0461,  999.0000,  999.0000,  999.0000,
  1-NOV-1996 15:55:25.64,   21.4984,   20.9791,   20.7939,   21.8326,  999.0000,  999.0000,  999.0000,  999.0000,   25.1911,   24.9238,  999.0000,   24.7439,   24.7388,   25.2924,   25.8296,   26.3034,   27.4136,  999.0000,  999.0000,   27.5250,   28.3720,  999.0000,   29.7790,   30.0028,   28.3923,   29.6297,   29.6270,   30.4984,   31.1609,   32.0694,   33.4024,   35.0389,   33.2541,   34.4694,  999.0000,   34.4360,   35.3960,   35.5300,   33.8937,   34.5335,   34.1761,   33.8760,   34.3624,   35.8280,   37.6582,   38.7761,   38.2788,   37.9471,   37.4483,   36.5419,   36.1531,   35.7210,   35.0359,   34.5891,   35.0030,   35.3357,   35.4344,   35.8373,   39.2499,   40.2064,  999.0000,  999.0000,  999.0000,  999.0000,   43.9363,
  1-NOV-1996 15:59:59.49,   22.4295,   22.1720,   21.9265,   22.1788,  999.0000,  999.0000,  999.0000,  999.0000,  999.0000,  999.0000,   24.3687,   24.7506,   24.4798,   24.3718,   24.9501,   25.5287,   26.7474,   27.1682,   27.3161,   27.0271,  999.0000,  999.0000,   28.1485,   28.2695,   27.8314,   29.7929,   30.3463,   30.0967,   30.9412,   30.9150,   32.7466,   34.5126,  999.0000,   35.8311,   35.7671,   35.2915,   35.8412,   35.9376,   35.7707,   36.8792,   37.4434,   36.2052,   36.6687,   38.3464,   38.8913,   38.8390,   39.8929,   39.0910,   37.6820,   37.0266,   36.4132,   35.4364,  999.0000,   34.5856,   34.1147,   34.7785,   35.6450,   37.2133,   39.4423,   41.1950,   42.3413,  999.0000,   43.4531,  999.0000,  999.0000,
  1-NOV-1996 16:04:33.66,   22.0567,   22.6381,   23.5864,   24.2100,   24.5595,  999.0000,  999.0000,  999.0000,  999.0000,  999.0000,  999.0000,   23.6929,   24.2645,   24.7954,   25.0014,   25.1796,   25.8616,   26.5349,   26.5256,   26.9119,  999.0000,   29.6632,   29.8865,   29.7302,  999.0000,   29.9743,   30.1147,   30.0680,   30.5412,   32.3412,   33.6329,   33.3078,   34.1799,   35.0581,   35.8030,   35.7380,   35.3296,   36.1788,   34.9900,   36.0127,   37.3949,   37.2242,   36.6212,   37.1591,   37.9918,   37.9844,   38.2835,   37.3105,   37.2724,   36.6990,   35.8527,   34.9951,   34.5144,   34.4139,   34.3017,   34.5197,   35.4362,   37.4369,   39.8943,   41.8315,  999.0000,  999.0000,  999.0000,  999.0000,  999.0000,
  1-NOV-1996 16:09:10.73,   22.4655,   22.4489,   22.2957,   21.9956,   21.6210,   22.1209,  999.0000,  999.0000,  999.0000,  999.0000,  999.0000,   22.8683,   23.1035,   24.0473,   24.5931,   25.1665,   26.0913,  999.0000,  999.0000,  999.0000,  999.0000,  999.0000,  999.0000,   31.0965,   30.0528,   29.1205,   29.7589,   29.7175,   30.7726,   32.5603,   31.6668,   32.2266,   33.4873,   33.9424,   34.3738,  999.0000,   34.9600,   36.4919,   36.9947,   37.2617,   38.3268,   37.6898,   37.2905,   38.3728,   39.6431,   39.2559,   37.9435,   38.0527,   39.0674,   38.0725,   36.3255,   35.2111,   34.2336,   33.7638,   33.2293,   33.2520,   34.1812,   39.4830,   41.0416,   43.5859,   44.7860,   43.1059,   42.7363,   43.1189,   42.4261,
  1-NOV-1996 16:13:46.48,   23.1198,   23.5525,   23.0743,   22.6008,  999.0000,  999.0000,  999.0000,  999.0000,   24.7988,   25.2983,  999.0000,   22.1638,   22.5619,   23.3294,   24.0898,   24.3093,  999.0000,   26.4789,   26.9649,  999.0000,   28.8987,   30.2956,   30.9262,   30.0474,   28.5609,   28.5270,   28.9939,   30.8897,   31.9705,   31.8037,   32.3871,   33.2890,   34.6589,   34.1984,   35.1619,   35.1430,   35.8164,   37.1092,   36.7918,   37.9172,   38.8040,   38.4401,   39.3205,   38.6444,   38.5234,   39.1571,   38.5265,   38.1095,   37.5984,   36.4001,   35.1595,   34.6456,   34.0869,   34.1489,   35.0945,   35.9154,   37.2557,   39.5046,   39.9097,   41.2732,  999.0000,  999.0000,  999.0000,  999.0000,  999.0000,
  1-NOV-1996 16:18:20.76,   21.7556,   22.0865,   22.0693,   22.3951,  999.0000,   22.7458,   23.2952,  999.0000,  999.0000,   24.6358,   25.2102,  999.0000,   23.9555,   24.5257,   24.2494,   24.2291,   25.7877,  999.0000,   27.2054,   27.2409,  999.0000,   28.9660,   29.9894,   29.1402,   28.2732,   27.9524,   28.9212,   29.7409,   30.5870,   31.2995,   32.4156,   33.5307,   34.8002,   35.3173,   35.4857,   34.8917,   36.1589,   36.5563,   37.2762,   37.1185,   38.5995,   38.3175,   38.3866,   37.8789,   38.5884,   38.9957,   38.0411,   38.7151,   38.0394,   36.7003,   35.9101,   35.1531,   34.9899,   35.6910,   36.1357,   35.9515,   36.5675,   38.4509,   38.9946,  999.0000,   43.0082,   43.3198,   43.1826,  999.0000,  999.0000,
  1-NOV-1996 16:22:54.56,   21.0002,  999.0000,   21.3657,   21.5136,  999.0000,  999.0000,   22.9459,   23.5994,   24.2095,   23.4230,  999.0000,   22.3946,   22.6854,   23.7138,   23.6529,   24.3211,  999.0000,  999.0000,   27.0464,   27.1842,   27.6418,   29.0017,   28.7366,   28.1336,   28.4048,   28.5208,   30.5836,   31.4871,   30.5111,   31.7709,   33.3917,   35.7123,   36.5622,   35.1216,   35.8901,   35.1904,   36.7024,   37.4477,   38.2242,   39.1302,   39.2732,   38.7025,   38.4265,   37.9435,   38.7803,   38.5522,   37.0816,   37.9908,   37.9389,   37.2277,   36.9516,   35.3863,  999.0000,   35.3774,   35.7479,   36.6910,   38.3998,   39.5550,   40.4182,   41.5590,  999.0000,  999.0000,  999.0000,  999.0000,  999.0000,
  1-NOV-1996 16:27:30.66,   20.3073,   20.2679,   20.2903,   20.4914,  999.0000,   21.8651,   22.2245,   22.6777,   23.8173,   24.7687,   23.9905,   22.9114,   22.9073,   23.3066,  999.0000,   22.6988,   24.5796,  999.0000,   26.4136,   26.8934,   27.0368,   27.5347,   27.7285,   28.5196,   28.0828,   28.7951,   30.9913,   31.8453,  999.0000,   31.3295,   32.6583,   34.8269,   35.2392,   35.0322,   33.9373,   35.3927,   36.9291,   36.9607,   38.7799,   39.4088,   39.8679,  999.0000,   38.4129,   37.9024,   38.3038,   38.5379,   36.9884,   37.3755,   37.5009,   36.7214,   37.6161,  999.0000,  999.0000,   34.6509,   35.2379,   36.1407,   37.3882,   37.6009,   38.6202,   40.8657,   40.7375,  999.0000,  999.0000,   45.4346,  999.0000,
  1-NOV-1996 16:32:04.46,   19.4670,   19.6777,   19.5751,   19.3643,  999.0000,   21.4226,   21.7555,   22.6285,   24.1554,   24.8156,   24.9264,   24.5231,   24.3916,   23.5864,   22.4782,  999.0000,  999.0000,  999.0000,  999.0000,   27.6731,   28.3077,   28.9110,   29.2884,   29.3159,   27.7480,   29.4327,   29.5427,   29.7307,   30.0264,   31.4480,   32.8146,   34.3497,   35.1168,   34.5284,   34.0580,   35.9788,   36.5927,   36.8734,   37.5529,   39.4062,   39.1938,   38.9795,   37.6085,   36.6094,   36.5882,   37.7493,   37.3475,   36.8148,   36.8220,   35.7772,   35.2859,   35.4646,   35.1718,   34.8408,   34.9955,   36.1419,   37.2325,   38.0795,   40.0587,   41.6129,   41.5426,   43.4781,   45.2155,   46.0493,  999.0000,
  1-NOV-1996 16:36:38.55,   20.9524,   20.8225,   20.6546,   20.5451,  999.0000,   21.6668,   21.8211,   21.9865,  999.0000,  999.0000,   24.6586,   23.9150,   24.2197,   24.0241,   24.4261,  999.0000,  999.0000,  999.0000,  999.0000,   27.5912,   28.5488,   28.6500,   28.0379,   28.8608,   29.4132,   29.7842,   31.4227,   30.8900,   30.3280,   31.9806,   33.9022,   34.9085,   35.6597,   35.4716,   35.3126,   36.1057,   36.9903,   37.0544,   38.4596,   39.3025,   37.8106,   38.6719,   38.5365,   37.7304,   37.8646,   37.9132,   37.0162,   37.2705,   36.6726,   36.5116,   36.1700,   35.5180,   35.5596,   35.5907,   37.1730,   37.9510,   38.5184,   38.8806,   40.5023,   41.5500,   42.5425,   45.0853,   47.9366,   49.4057,  999.0000,
  1-NOV-1996 16:41:12.69,   20.2247,   20.7573,   20.2314,   19.9509,  999.0000,  999.0000,  999.0000,  999.0000,   24.3516,   24.8711,   24.4041,  999.0000,   25.8249,   25.2016,   25.6266,   27.5304,   28.2407,   27.5738,   27.9857,   28.4507,   27.5725,   27.4733,   28.1073,   28.5412,   28.5867,   29.6759,   30.1676,   30.3075,   30.5388,   31.5200,   34.2703,   33.6951,   35.2103,   36.4853,   35.6754,   35.0679,   36.4416,   36.7254,   37.8737,   39.2472,   39.4424,   37.8900,   36.9798,   36.6400,   37.6447,   37.6852,   36.9261,   36.3911,   35.3644,   35.1445,   35.5817,   35.7168,   35.6518,   34.6031,   36.4077,   37.1700,   37.0329,   37.5055,   39.3144,   40.2754,  999.0000,   43.3020,   44.6503,  999.0000,  999.0000,
  1-NOV-1996 16:45:50.06,   20.9312,   21.9646,   21.6550,  999.0000,  999.0000,  999.0000,   22.0621,   23.2653,   24.7026,   24.8594,   24.5406,   24.2486,   24.5064,   24.2192,   25.4515,   27.2574,   27.7792,  999.0000,   28.1690,   28.6184,   27.6236,   26.8606,   27.2046,   27.9747,   28.5751,   29.2873,   29.7423,   29.8239,   30.9427,   31.7012,   33.5512,   33.7677,   35.0777,   36.4165,   35.8912,   35.9243,   36.5458,   36.1370,   36.8713,   38.9755,   39.0560,   36.8932,   35.8299,   35.8559,   36.7086,   37.3972,   36.9538,   36.5175,   36.3691,   35.2490,   35.1882,   34.5810,   33.8360,   34.2470,   35.6878,   36.5632,   35.7416,   36.5469,   38.9169,   40.9942,  999.0000,  999.0000,  999.0000,  999.0000,  999.0000,
  1-NOV-1996 16:50:26.61,   20.7425,   21.5080,   21.1885,   20.7392,   21.0671,   22.4881,  999.0000,  999.0000,   25.2964,   25.9447,  999.0000,   24.3823,   23.9655,   24.2600,  999.0000,  999.0000,  999.0000,  999.0000,  999.0000,  999.0000,   28.5795,   27.3715,   27.2343,   27.7098,   28.5253,   28.8537,   29.8902,   30.2317,   31.1552,   32.1234,   32.5881,   33.7786,   34.4131,   35.6329,   36.0507,   36.1997,   35.5582,   36.3296,   36.2944,   37.8599,   37.9661,   36.0603,   34.8303,   35.2356,   36.3193,   36.0956,   36.1385,   35.8016,   35.9716,   35.4062,   35.1360,   34.2173,   33.6564,   34.8124,   36.1052,   36.0766,   35.8628,   37.2148,  999.0000,  999.0000,  999.0000,  999.0000,   46.6923,   47.6805,  999.0000,
  1-NOV-1996 16:55:02.53,   19.6581,  999.0000,  999.0000,   19.1106,   19.8587,  999.0000,  999.0000,  999.0000,   25.2009,   25.3304,   24.6952,   24.0315,   23.9791,   25.5805,   26.5327,  999.0000,  999.0000,  999.0000,  999.0000,  999.0000,   28.9513,   28.3436,   29.0073,   28.7028,   28.4794,   28.8482,   29.8047,   30.4134,   31.8020,   32.6665,   34.1302,   34.8473,   34.7432,   36.5762,   35.8917,   35.6120,   36.1904,   36.7316,   36.9787,   38.3274,   37.5831,   37.3157,   35.8444,   36.8314,   37.2178,   36.1522,   36.7843,   36.7688,   35.6569,   35.5731,   35.6688,   34.1217,  999.0000,  999.0000,   36.2659,   36.4832,   37.2575,   38.2078,   40.8715,  999.0000,   43.1266,  999.0000,  999.0000,  999.0000,  999.0000,
  1-NOV-1996 16:59:38.55,   20.0527,   19.5104,   18.9539,   18.8505,  999.0000,  999.0000,  999.0000,  999.0000,  999.0000,  999.0000,  999.0000,  999.0000,  999.0000,   25.9132,   27.2315,   28.3592,   29.9888,   29.7660,   29.7950,   30.2877,   30.8041,   29.6632,   29.4466,   29.0507,   29.1231,   28.6258,   28.8884,   29.5541,   30.9666,   31.6684,   33.8561,   35.3946,   35.8187,   36.9428,   36.5534,   37.4136,   35.5203,   37.2510,   37.4652,   39.0061,   37.6693,   37.8420,   36.7302,   37.4732,   38.3199,   37.3994,  999.0000,  999.0000,   34.2730,   34.9364,   34.7934,   34.5801,   35.7348,   37.0482,   38.1523,   38.0203,   38.2799,   40.5232,   43.4158,   44.2813,  999.0000,  999.0000,   45.1912,   44.7462,   45.5252,
  1-NOV-1996 17:04:14.18,   19.5370,  999.0000,   18.7537,   18.6161,  999.0000,  999.0000,  999.0000,  999.0000,  999.0000,  999.0000,   22.8904,   21.8531,   22.3199,   24.9646,   27.1555,   27.2215,   28.5759,  999.0000,  999.0000,  999.0000,  999.0000,  999.0000,  999.0000,   29.1918,   29.4579,   28.9858,   28.8312,   29.2887,   30.5522,   32.2200,   34.0216,   35.3769,   35.5205,   36.1060,   36.7413,   36.6289,   35.4024,   36.1843,   36.4695,   38.4854,   38.5432,   38.2627,   37.0495,   38.4369,   39.1245,   38.1848,   37.0605,   37.0277,   34.5160,   34.5903,   34.8725,   35.5892,   35.5125,   36.4913,   37.3063,   37.5712,   39.1134,   42.0902,   43.4844,   43.2524,  999.0000,   44.1729,   44.3389,   45.3867,   45.2725,
  1-NOV-1996 17:08:50.12,  999.0000,  999.0000,   19.1515,   19.2444,  999.0000,  999.0000,  999.0000,   25.0025,   25.5009,   25.1677,  999.0000,   22.9106,   23.0101,   23.8789,  999.0000,   27.3004,   27.4379,  999.0000,  999.0000,  999.0000,  999.0000,   31.0466,   31.5970,   30.5010,   29.4013,   28.5426,   29.1342,   30.1940,   30.9832,   31.4775,   33.2793,   35.1577,   35.4359,   35.9228,   36.6126,   35.8021,   36.3915,   36.0261,   36.5473,   37.4646,   37.7574,   38.1834,   37.2567,   38.3598,   38.7003,   38.7711,   37.9718,   36.5141,   34.6785,   34.3042,   34.8995,   35.4731,   35.8452,   35.7720,   36.5378,   38.3867,   39.9078,   42.2718,   44.0957,   45.1892,  999.0000,  999.0000,  999.0000,   44.9519,  999.0000,
  1-NOV-1996 17:13:23.77,   19.1472,   19.3407,   19.3074,  999.0000,  999.0000,  999.0000,  999.0000,  999.0000,   25.2016,   24.5484,   23.2923,   22.3681,  999.0000,   25.4013,   27.3332,   28.0815,   28.6687,   29.4841,   30.9442,   31.4307,   31.9749,   32.4833,   32.2182,   29.5553,   28.4459,   28.9676,   30.1631,   30.2555,   30.4097,   30.7613,   33.6974,   35.4817,   35.2153,   35.8332,   36.6470,   37.0973,   37.3867,   36.8489,   37.6978,   38.5699,   38.0619,   38.0682,   37.3326,   38.1772,   38.6412,   37.9866,   37.6936,   36.2956,   35.4824,   35.3202,   34.6666,   34.3601,   35.2425,   35.2712,   35.9794,   38.5901,   41.1648,   43.9963,   45.1849,   44.6146,  999.0000,  999.0000,  999.0000,  999.0000,  999.0000,
  1-NOV-1996 17:17:59.64,   19.5287,   19.7757,   20.3049,  999.0000,  999.0000,  999.0000,  999.0000,   25.7218,   26.2826,   26.2187,   25.1943,  999.0000,  999.0000,  999.0000,   27.5438,   28.8473,   29.9316,   30.8660,  999.0000,   31.0916,   31.6187,  999.0000,  999.0000,   31.2082,   29.6702,   28.8261,   29.5832,   30.3759,   31.5028,   31.7820,   34.2228,   35.2754,   34.5417,   35.0856,   36.2353,   37.1148,   36.7271,   36.8885,   38.4337,   38.8288,   37.7739,   36.7995,   36.1744,   36.5777,   36.2546,   36.1703,   36.5473,   35.3143,   35.2634,   35.0578,   33.7663,   33.7531,   34.3063,   34.3328,   35.8226,   37.0953,  999.0000,   41.3056,   42.6789,   43.7481,   42.6954,   43.2100,  999.0000,   42.8451,   42.6295,
  1-NOV-1996 17:22:33.46,   20.5962,   20.7660,   21.4520,  999.0000,  999.0000,  999.0000,   27.6350,   27.7647,   27.8067,   27.1348,   26.2631,   25.2216,   25.5520,   27.0961,  999.0000,  999.0000,  999.0000,   30.7550,   32.3638,  999.0000,  999.0000,   32.9047,   32.4024,   32.0820,   30.5074,   29.3936,   30.0108,   30.2920,   32.0995,   32.4847,   34.0754,   35.4164,   34.4769,   36.0687,   36.0251,  999.0000,   37.0559,   37.8285,   38.0517,   38.1302,   37.4318,   36.6524,   35.9661,   36.2553,   35.8839,   36.9031,   36.6365,   36.0904,   35.5285,   34.8801,   34.3515,   33.6893,   34.6385,   34.4356,   35.0699,   37.0494,   38.3127,   40.2400,   41.7099,   42.7557,   43.2110,  999.0000,  999.0000,  999.0000,  999.0000,
  1-NOV-1996 17:27:07.65,   18.4658,   19.9066,   21.2981,   22.4109,  999.0000,  999.0000,  999.0000,   27.2036,   26.0056,   25.1493,   24.1049,   23.2660,   23.9904,  999.0000,  999.0000,  999.0000,   30.4225,   31.4672,   31.4428,   32.5831,   33.0640,   33.3320,   33.3293,   31.9418,   31.0130,   28.3565,   31.7803,   31.6742,   31.8226,   33.5701,   34.3791,   35.0415,   35.7987,   35.3257,   36.5304,   36.5917,   37.1900,   37.9169,   38.0549,   38.0812,   37.8076,   37.1038,   36.9611,   37.4111,   36.8904,   35.7814,   35.4514,   35.8602,   35.5216,   34.4032,   33.5107,   34.1005,   34.1342,   34.3717,   36.4653,   37.6420,   38.4139,   40.9383,   41.6246,   41.8878,  999.0000,   40.7760,   40.8410,   42.2601,   43.4025,
  1-NOV-1996 17:31:42.71,   17.7200,  999.0000,  999.0000,  999.0000,  999.0000,  999.0000,  999.0000,  999.0000,  999.0000,  999.0000,  999.0000,  999.0000,  999.0000,  999.0000,  999.0000,  999.0000,  999.0000,  999.0000,  999.0000,  999.0000,  999.0000,   33.4564,   32.3919,   32.7495,   31.2351,   29.0632,   29.3802,   30.4418,   31.1435,   32.3948,   34.2447,   34.9673,   35.2341,   35.3403,   36.0595,   36.8084,   37.3631,   37.3504,   37.0223,   37.2204,   37.6260,   36.9226,   37.1186,   37.6926,   35.9754,   34.6485,   34.9738,   35.5510,   34.5534,   33.2447,   33.8809,   35.4108,   35.1207,   36.0723,   37.9805,   39.6121,   41.4884,   43.1964,   43.6677,   44.3415,   43.9652,   43.6703,  999.0000,  999.0000,  999.0000,
  1-NOV-1996 17:36:16.88,   18.1140,  999.0000,  999.0000,  999.0000,  999.0000,  999.0000,  999.0000,  999.0000,  999.0000,  999.0000,   24.5466,   23.1247,   22.6800,  999.0000,  999.0000,  999.0000,  999.0000,   31.1038,   32.0391,   32.3816,  999.0000,  999.0000,  999.0000,   31.3183,   32.0041,   30.7913,   30.9680,   30.6788,   30.7728,   32.7772,   33.9840,   33.8150,   34.3328,   33.5983,   34.6175,   36.4602,   37.7067,   36.4773,   36.5758,   36.6825,   37.5300,   36.9712,   37.0331,   37.0779,   35.8467,   35.7877,   34.6183,   35.1711,   34.7543,   34.0915,   34.6035,   35.3446,   36.2151,   36.8506,   38.5177,   41.0325,   41.6194,   43.9510,   44.7638,   44.4514,   44.1287,   43.7807,   43.7098,   44.7247,   44.3114,
  1-NOV-1996 17:40:51.76,   17.9310,   18.8082,  999.0000,  999.0000,  999.0000,  999.0000,  999.0000,  999.0000,  999.0000,   25.6684,   25.3649,   24.5011,   24.5026,  999.0000,  999.0000,  999.0000,   30.1006,   29.7356,  999.0000,   31.0637,   31.4733,   31.2091,   31.3528,   31.5128,   31.6940,   29.5105,   30.5774,   29.8586,   30.0948,   32.6311,   32.8092,   33.5089,   34.5786,   35.0356,   34.7506,   36.3526,   37.4200,   36.3238,   36.6574,   36.8545,   37.4825,   36.4254,   37.0063,   37.6546,   36.4828,   35.4989,   33.5167,   33.3247,   33.0000,   33.3535,   33.1486,  999.0000,  999.0000,  999.0000,  999.0000,   41.1070,   42.9437,   43.8940,   43.9671,   44.3017,   43.4921,   41.9487,   41.4750,   42.7340,  999.0000,
  1-NOV-1996 17:45:28.22,  999.0000,  999.0000,   22.5835,   23.8611,  999.0000,  999.0000,   26.6714,   25.8949,   25.4029,   25.9781,   26.4730,   27.3266,  999.0000,   31.3455,   31.0567,   31.2898,   31.6724,   31.6002,   31.7273,   31.4734,  999.0000,   31.7446,   31.2156,   30.5446,   30.6388,   30.1077,   30.6920,   30.0937,   30.2665,   32.4251,   32.5075,   33.8746,   34.3318,   33.8454,   34.6438,   36.2422,   37.0574,   35.9566,   36.8586,   36.6156,   36.4288,   36.0260,   36.5148,   37.3036,   35.9799,   34.8609,   34.3371,   33.8523,   33.5744,   34.5342,   34.8441,   34.8243,   35.6895,   36.7229,   38.9346,   41.5671,   43.2798,   44.8591,   45.9057,  999.0000,   42.5322,   41.9756,  999.0000,   44.3081,   45.3390,
  1-NOV-1996 17:50:04.54,   18.8106,  999.0000,   23.0867,   23.9314,   24.3545,  999.0000,   25.3282,   25.1171,   25.4070,   25.4239,   25.4005,  999.0000,   27.6642,   28.4177,   28.6719,   29.0276,  999.0000,  999.0000,   31.4809,   29.8785,   29.9662,   30.0431,  999.0000,   29.9602,   29.9363,   29.7399,   29.4563,   30.3851,   31.4908,   32.4352,   34.3042,   35.1582,   35.1833,   35.0590,   34.2165,   35.9126,   37.2268,  999.0000,   38.0006,   37.8492,   37.0716,   36.9184,   37.6737,   38.0577,   36.7759,   35.8050,   34.2610,   34.2424,   34.0740,   34.5752,   35.0961,   36.2712,   37.1477,   37.8790,   39.5483,   41.9747,   43.4253,   45.0770,   45.6448,   45.0465,  999.0000,  999.0000,  999.0000,   44.2028,   45.2105,
  1-NOV-1996 17:54:39.60,   19.5194,   20.7108,  999.0000,   23.3644,   24.1148,  999.0000,  999.0000,  999.0000,   26.9351,   27.0890,   26.9883,   27.6003,   28.4692,   27.7994,   27.6776,   28.1503,   29.3144,   30.1608,   30.1106,  999.0000,  999.0000,   28.6191,   28.6131,   30.4993,   30.4586,   31.0005,   29.9144,   30.0865,   31.4412,   32.3526,   33.5584,   35.0717,   33.5319,   35.1819,  999.0000,   37.2752,   37.2499,   36.6621,   35.6506,   36.3453,   37.1120,   36.9468,   36.8303,   37.8742,   37.0911,   35.4796,   33.9088,   33.6990,   34.4351,   34.5774,   34.8403,   36.7709,   38.3274,   38.8924,   39.9329,   41.9852,   42.8551,   43.9528,   44.8505,   45.0460,   42.6126,   41.4462,   41.8646,  999.0000,  999.0000,
  1-NOV-1996 17:59:15.76,   18.5125,   20.7787,   22.7195,   24.0215,  999.0000,  999.0000,  999.0000,  999.0000,   25.0591,   26.2880,   27.2274,   28.1860,   28.6945,   27.4734,   27.2547,   28.5342,   29.3970,   29.5923,   30.2360,   30.5089,   30.3398,  999.0000,  999.0000,   30.2134,   30.3371,   30.8357,   29.2232,   30.0900,   31.8476,   33.4851,   33.7488,   34.7783,   35.2036,   35.5579,   35.2930,   38.6193,   36.7429,   36.0482,   35.7423,   36.2566,   36.6266,   36.1563,   36.8246,   37.5473,   36.1038,   35.4378,   34.1874,   33.6893,   34.5305,   34.8577,   35.7298,   37.0583,   38.4318,   39.4552,   40.6757,   42.1886,   43.8400,   45.0144,   45.5076,   44.6124,   42.9653,   41.9459,   42.8074,  999.0000,   44.0710,
  1-NOV-1996 18:03:51.07,   19.2417,   21.2624,   22.8971,   24.0925,   24.5646,   24.8301,   25.0446,   24.8101,   25.6662,   26.0612,   26.7087,   28.9386,   29.5995,   28.2600,  999.0000,  999.0000,   26.9366,   26.6948,  999.0000,   28.9670,   28.9967,  999.0000,  999.0000,   28.9834,   29.5453,   29.1760,   28.2068,   29.2585,   31.4514,   32.9755,   34.2249,   34.2093,   35.6941,   36.0414,   33.8406,   36.7944,   35.3878,   36.2466,   36.0852,   34.3498,   35.3923,   37.1784,   38.1280,   37.3639,   35.4917,   34.8429,   34.4039,   34.3507,   34.9323,   35.6110,   35.2842,   36.4160,   38.0184,   38.7446,   40.7311,   42.1341,   43.4817,   44.9281,   45.4443,   44.0076,  999.0000,  999.0000,   44.0871,   43.2739,  999.0000,
  1-NOV-1996 18:08:25.25,   20.2718,   22.6587,  999.0000,  999.0000,  999.0000,  999.0000,   26.9919,   25.7822,   26.5139,   27.9976,   29.2509,   30.1171,   30.4174,   29.6758,   29.7126,   29.5231,   28.0737,   29.0281,   29.1926,   29.0594,   29.1538,   29.1286,   28.9171,   27.8043,   28.0124,   27.8181,   27.9362,   29.3540,   29.1316,   32.5867,   34.0472,   33.5357,   36.2670,   32.4851,   30.2707,   35.3359,   34.9676,   35.2438,   35.5144,   35.0025,   35.3427,   36.3238,   37.0154,   37.0471,   35.6109,   33.5974,   32.9195,   33.7578,   35.2168,  999.0000,  999.0000,   35.8775,   37.6800,   39.1774,   40.2741,   41.4760,   43.4898,   44.9206,  999.0000,  999.0000,  999.0000,  999.0000,  999.0000,  999.0000,  999.0000,
  1-NOV-1996 18:12:58.81,   19.3658,   20.8017,   21.5695,   22.5357,  999.0000,  999.0000,  999.0000,   24.8981,   26.2191,   27.3999,   27.8067,   29.1489,   30.4000,   30.1282,   30.0692,   29.7148,  999.0000,  999.0000,  999.0000,   29.5170,   29.6854,   30.3975,   29.5848,   28.9836,   28.2336,   27.3051,   27.4740,   28.4578,   30.2296,   31.7450,   32.9909,   34.0216,   35.6363,   34.8635,   33.6101,   34.6326,   35.0173,   35.0881,   35.3594,   35.9402,   35.7226,   36.6884,   37.2286,   35.9994,   35.9149,   36.5117,   35.3463,   35.3391,   35.6970,   35.9545,   37.0193,   37.8526,   39.0287,   39.2258,   40.3647,   43.2074,  999.0000,   45.4144,   44.2476,   45.1135,  999.0000,  999.0000,   43.7107,  999.0000,   42.2406,
  1-NOV-1996 18:17:35.28,   19.3082,   21.0926,   22.1596,  999.0000,  999.0000,  999.0000,  999.0000,  999.0000,  999.0000,  999.0000,   23.6679,   24.3555,  999.0000,  999.0000,   28.5903,   28.6845,  999.0000,  999.0000,  999.0000,   26.9021,   26.2531,   26.4356,   26.2472,   29.0548,   28.2358,   28.0715,   28.2894,   29.7660,   31.4940,   31.7140,   33.3933,   35.4297,   34.7301,   35.2631,   35.0816,   36.2189,   35.8308,   35.8986,   35.3532,   35.3624,   36.5532,   37.2155,   37.9920,   37.0854,   36.5535,   36.5062,   36.3605,   36.4204,   36.6561,   37.1034,   37.5224,   37.6717,   37.9561,   39.1361,   41.1508,   43.6323,   45.4499,   45.5105,   44.5660,   44.3889,   44.9231,  999.0000,   44.2128,   43.8145,  999.0000,
  1-NOV-1996 18:22:11.20,   19.1575,   20.5279,   22.2896,   24.1290,  999.0000,  999.0000,   25.7487,   25.2954,   25.6761,   26.3221,   27.2677,   28.5505,   29.1695,   29.6930,   30.3059,   30.1140,   29.3358,   29.4969,   29.4441,   30.0551,   30.3158,   29.0366,   28.8146,   29.1755,   29.5253,   29.0385,   29.6323,   31.7863,   33.0946,   33.1374,   34.0164,   36.2782,   36.9053,   36.0778,   35.2327,   36.6986,   36.7479,   36.8195,   37.3988,   36.8018,   37.1779,   37.1426,   37.6612,   37.3606,   36.6034,   35.3026,   35.7976,   35.9505,   36.8780,   37.5249,   37.2262,   37.4689,   38.0315,   39.6676,   41.8150,   44.4508,   45.6076,   44.9726,   44.7230,   44.3449,   43.8799,   42.4108,  999.0000,  999.0000,  999.0000,
  1-NOV-1996 18:26:47.26,   15.4819,   16.3448,  999.0000,  999.0000,  999.0000,  999.0000,  999.0000,   23.5267,   23.3381,   23.4468,   24.0129,  999.0000,   26.6421,   27.7806,   28.9283,   28.9457,   28.5695,   29.2000,   29.1591,   28.7229,  999.0000,   27.4596,   27.7240,   28.5527,   28.2156,   27.9220,   28.8148,   31.2043,   32.2303,   33.4989,  999.0000,   33.9030,   34.6935,   35.3742,   35.4443,   35.8250,   37.8372,   38.4435,   36.8236,   36.6821,   36.4880,   36.5563,  999.0000,   36.3337,   36.1096,   35.7428,   36.2990,   35.8402,   35.8306,   36.7506,   36.8483,   37.0338,   38.1792,   39.7095,   41.4164,   43.6304,   44.6818,   44.3847,   43.4435,   43.4941,   42.8203,   43.5393,   43.7924,  999.0000,  999.0000,
  1-NOV-1996 18:31:21.33,   18.5848,   19.7810,   20.6618,  999.0000,  999.0000,  999.0000,   25.0446,   24.4984,  999.0000,  999.0000,  999.0000,   28.5650,   29.2622,   29.8729,   30.2685,   29.4421,   30.2670,   31.2829,   31.0266,   30.2019,   30.0983,   29.6693,   28.8063,   27.4960,   27.5532,   28.5032,   30.2284,   31.5851,   32.6175,   32.7964,   33.3517,   33.1329,   34.2922,   36.0757,   36.3015,   35.9484,   37.3795,   38.5389,   35.5038,   37.4526,   37.0587,  999.0000,   36.2592,   37.5689,   37.9608,   36.7874,   37.4269,   37.5089,   37.2655,   37.2993,   36.7884,   37.5111,   38.6877,   39.8779,   41.7706,   43.6633,   43.3547,   43.7921,   43.0622,   43.1881,   43.2009,   43.4471,   43.2125,   43.4309,  999.0000,
  1-NOV-1996 18:35:55.48,   17.0650,   18.3960,   19.8884,   20.2824,   20.7706,  999.0000,  999.0000,   23.4896,   24.6247,   24.3058,  999.0000,   27.6477,   28.0879,   28.2428,   27.5723,   27.5472,   28.7047,   30.0771,   29.6140,   28.5441,   27.9016,   28.1981,   28.7467,   30.0013,   29.4434,   30.0136,   31.1626,   31.8368,   33.3082,   34.6864,   34.5973,   35.6556,   35.4149,   37.3262,   38.9862,  999.0000,   35.2205,   36.1083,   35.2925,   35.2565,   37.2437,   36.9751,   38.6518,   39.8081,   39.5941,   37.9353,   38.8290,   39.3354,   40.0744,   39.3037,   37.7100,   38.6469,   39.2011,   39.8838,   42.4862,   42.9018,   42.5394,   43.6842,   43.2013,   43.0002,  999.0000,  999.0000,   43.9287,   44.8917,   46.1672,
  1-NOV-1996 18:40:29.98,   18.9031,   19.2766,  999.0000,  999.0000,  999.0000,  999.0000,  999.0000,  999.0000,  999.0000,  999.0000,   25.4927,   26.7271,   26.9051,   27.4178,   27.5841,   27.5774,   28.4640,   29.5495,   29.7284,   28.3870,   28.1647,   27.6418,   28.7925,   29.1994,   29.8899,   29.6562,   30.5727,   31.9138,   33.1866,   34.5018,   35.0078,   35.3559,   35.4055,   37.0688,   38.3919,   36.5195,   36.2092,   36.8081,   36.3792,   35.4507,   35.7203,   34.9949,   35.9621,   36.8680,   37.9621,   37.8362,   37.6813,   37.3803,   37.6005,   38.0102,   36.3098,   36.2193,   39.1421,   39.8757,   41.8597,   42.8525,   43.0133,   44.1515,   43.3484,   43.1572,  999.0000,   42.6988,   44.5398,  999.0000,  999.0000,
  1-NOV-1996 18:45:04.12,   19.1441,   20.1139,   20.7386,   21.5359,   21.8311,  999.0000,  999.0000,  999.0000,  999.0000,  999.0000,  999.0000,  999.0000,   27.1914,   27.1048,   27.4982,   27.6996,   28.8257,   30.0174,   30.3351,  999.0000,  999.0000,  999.0000,   27.4700,   28.6826,   29.9639,   30.6211,   31.3743,   32.4160,   33.7541,   34.1752,   34.4865,   34.0775,   34.8474,   36.5498,   37.5613,   37.0479,   37.7118,   36.8785,   36.6364,   36.3590,   35.6704,   35.0428,   35.8221,   37.1589,   38.1448,   37.1771,   37.2523,   36.1879,   36.5012,   36.6930,   36.2468,   37.1889,   38.0392,   40.4143,   41.8688,   43.0949,   42.6727,   43.4363,   43.9834,   43.8849,   42.9079,   42.7654,   44.8959,   45.6709,  999.0000,
  1-NOV-1996 18:49:37.80,   18.8823,  999.0000,   20.9283,   21.7277,   21.9201,   21.8674,  999.0000,  999.0000,  999.0000,  999.0000,   26.2659,   26.9028,   26.7060,   26.1390,   27.0149,   27.0915,   27.4595,   28.1788,   29.1008,   28.1740,  999.0000,   25.4562,   26.8019,   28.9181,   29.6146,   29.8266,   30.7889,   32.2370,   33.6842,   34.4828,   35.4375,   34.5410,   35.4562,   37.9189,   38.9627,   39.6065,   38.8624,  999.0000,   37.2649,   36.2746,   35.6028,   36.3620,   38.0586,   38.5535,   36.6397,   35.4794,   36.0615,   36.5967,   35.9581,   35.4582,   35.7992,   36.8126,   38.4716,   41.4288,   42.0684,   41.7103,   41.3772,   41.3593,   41.9184,   43.4044,   42.8633,   41.4999,   42.1290,  999.0000,  999.0000,
  1-NOV-1996 18:54:13.77,   18.2874,   18.7531,   20.0927,   21.1319,   21.3874,   21.7388,  999.0000,   22.7047,   23.0180,  999.0000,   26.4279,   26.7328,   26.7166,   27.0450,   26.6145,   26.8047,   28.1592,   29.3289,   30.0426,  999.0000,  999.0000,  999.0000,   28.0195,   28.4927,   28.7395,   29.4815,   30.3511,   31.7079,   33.7165,   34.3768,   34.9567,   35.9995,   37.6567,   39.5287,   39.4283,   39.7266,   39.9233,   38.6254,   38.0873,   37.6000,   39.1102,   37.8934,   38.5832,   38.9062,   37.8419,  999.0000,   35.0869,   35.4091,   35.5795,   35.7038,   36.4605,   37.2398,   38.6650,   40.8452,   41.5811,   41.4992,   41.6157,   41.6574,   41.5011,   41.5163,  999.0000,  999.0000,  999.0000,  999.0000,  999.0000,
  1-NOV-1996 18:59:37.18,   19.6669,   19.8918,   19.8211,   20.3985,   21.8498,   22.2089,   22.5988,  999.0000,  999.0000,  999.0000,  999.0000,   24.8249,   25.4534,   26.1412,   26.6238,   27.9296,   29.6470,   31.2960,   30.7846,  999.0000,  999.0000,   26.9229,   28.3253,   29.0721,   29.6378,   30.0530,   30.9154,   31.5748,   32.3286,   33.6887,   35.2981,   37.7145,   38.9510,   40.2860,   40.2901,   40.1786,   39.4571,   38.3940,   37.9875,   36.8972,   37.2155,   37.1247,   36.5704,   37.0367,   36.4507,   36.0109,   35.5285,   35.3762,   35.8550,   35.7909,   36.0504,   37.0889,   39.4758,   40.2194,   40.7905,   42.0947,   41.7109,   41.6311,   43.1211,   42.9856,   40.7020,   40.9048,  999.0000,   42.8599,   43.2373,
  1-NOV-1996 19:04:12.09,   21.0822,   21.5435,   21.8143,   22.2905,   23.1668,  999.0000,  999.0000,  999.0000,  999.0000,  999.0000,   24.2885,   24.6145,   24.8863,  999.0000,  999.0000,   27.7576,   29.3505,   30.7077,   31.4108,  999.0000,  999.0000,  999.0000,   28.4738,   30.4420,   31.4813,   32.0680,   30.9144,   32.1053,   35.2990,   33.7655,   34.9807,   35.7639,   37.3568,   37.4467,   39.5174,   40.3128,   38.8893,   39.0397,   38.8706,   39.4025,   39.8212,   39.4333,   38.4214,   38.6653,   37.9265,   37.3396,   36.9809,   36.7788,   36.8178,   36.2035,   36.8521,   38.3096,   40.3719,   41.5367,   42.8617,   43.9271,   42.0534,   41.6841,   43.1412,   43.2842,   41.5909,   42.3490,   43.4049,   42.8832,   43.6421,
  1-NOV-1996 19:08:46.30,   20.9362,   20.8993,   20.9757,   21.6399,   22.1325,   22.5019,  999.0000,  999.0000,  999.0000,  999.0000,  999.0000,  999.0000,   23.6310,   24.7378,   25.6079,   25.8458,   26.3409,   27.0252,   28.9386,  999.0000,   25.7552,   26.1995,   26.7769,   30.9828,   31.5813,   32.0896,   31.0862,   32.6508,   33.6785,   35.1483,   36.8307,   36.4372,   38.0675,   37.7584,   40.1369,   39.8756,   39.6724,   39.0034,   38.5720,   39.1424,   39.5829,   38.5020,   37.4856,   37.5528,   37.0095,   36.0154,   35.5589,   36.0450,   35.7659,   34.9495,   35.9825,   39.7092,   40.9670,   41.9499,   41.7647,   40.8393,   40.4881,   41.3865,   42.3811,   43.0979,   41.7744,  999.0000,   41.5245,   42.1069,   42.1716,
  1-NOV-1996 19:13:20.13,   21.3739,   21.8767,   21.9322,   21.9139,  999.0000,   21.8733,   23.1146,   22.5970,  999.0000,   19.5392,   19.2961,  999.0000,  999.0000,  999.0000,   26.6458,   26.8591,   27.7312,  999.0000,   29.8938,   30.8911,  999.0000,  999.0000,  999.0000,   29.7752,   30.4316,   32.3456,   32.5444,   32.3145,   32.2964,   33.4247,   35.2721,   36.5773,   37.6025,   37.1758,   38.4600,   39.3002,   39.7805,   38.0987,   37.3115,   37.9195,   38.2675,   36.9502,   37.6704,   36.4862,   36.3073,   35.3266,   34.6915,   34.7461,   34.6755,   34.8230,   35.6050,   38.2751,   40.0403,   41.2791,   41.5947,   40.0277,   39.8002,   40.7802,   41.7933,   42.7791,   41.7993,   41.8314,   42.5657,   42.9210,   42.6412,
  1-NOV-1996 19:17:53.92,   21.6261,   22.0312,   22.3807,   22.3031,  999.0000,  999.0000,   25.0604,   24.2469,  999.0000,  999.0000,  999.0000,   25.5864,   26.5192,   26.3282,   25.8561,   26.4453,   28.1522,   29.2796,   29.5639,   30.1416,   29.1257,  999.0000,  999.0000,   33.6814,   32.4212,   31.9325,   32.1655,   31.8244,   33.2763,   35.1632,   35.4847,   36.5505,   37.6123,   37.6339,   38.1608,   41.8082,   40.4692,   38.7575,   37.7439,   37.6174,   36.6910,   36.8640,   36.5922,   35.6335,   35.0717,   35.3196,   36.0613,   36.1826,   35.1518,   35.3057,   37.4174,   39.9013,   41.1884,   41.6069,   41.2623,   41.5988,   41.5144,   42.0712,   43.2909,   43.2427,   41.8131,   42.1561,   43.1778,   44.8304,   43.9359,
  1-NOV-1996 19:22:29.59,   21.2770,   21.2424,   21.2890,   21.6313,   21.7124,  999.0000,   22.2400,   22.2438,  999.0000,   22.0904,   22.3833,   22.6835,  999.0000,   23.1221,   23.6469,   24.8594,  999.0000,  999.0000,   27.9952,   28.3133,   30.0636,  999.0000,  999.0000,   34.3642,   32.5770,   32.4680,   31.7912,   31.7392,   33.5121,   35.0094,   35.9100,  999.0000,   38.1069,   38.1062,   38.5141,   39.3280,   39.6391,   39.2535,   37.6884,   37.2813,   37.0576,   36.3109,   35.5582,   34.8077,   35.3380,   36.2402,   36.0263,  999.0000,  999.0000,   36.2835,  999.0000,   40.5019,   40.3663,   41.5678,   41.8712,   40.1329,   40.0000,   41.9533,   43.8267,   43.3580,  999.0000,   43.4479,   43.1409,   44.5433,   43.9954,
  1-NOV-1996 19:27:03.45,   21.5086,   21.4744,   21.4032,   21.6395,  999.0000,  999.0000,   22.5583,   22.6970,   22.3112,  999.0000,   22.7539,   23.7473,   24.4747,   24.4959,   24.5446,  999.0000,  999.0000,  999.0000,   28.7095,   29.2568,   30.6596,   31.5352,   31.8952,   34.4102,   34.0771,   32.8022,   31.9040,   33.6417,   34.0182,   34.5153,   35.8906,   36.1560,   37.1465,   38.5254,   37.9063,   36.6945,   38.2904,   38.0894,   36.9609,   37.2101,   36.4412,   35.9394,   35.3219,   34.4217,   34.3657,   35.1077,   34.9152,   35.4823,   35.7254,   38.1816,   39.5271,   40.8555,   41.8403,   41.5528,   41.0080,   41.0747,   42.3048,  999.0000,  999.0000,   42.0209,   41.3745,   42.8324,   43.6636,   43.5883,   42.4696,
  1-NOV-1996 19:31:37.87,   20.9219,  999.0000,   21.3019,   21.7399,  999.0000,   21.9491,   22.5563,   22.6970,   22.7575,  999.0000,   22.2295,   22.2418,   23.6485,   25.0127,   26.9476,   27.5379,   28.3964,  999.0000,  999.0000,  999.0000,   28.6693,   30.1988,   30.9130,   32.7288,   32.6182,   32.6240,   32.8877,   33.4717,   34.9935,   35.1582,   36.2829,   37.9658,   39.2222,   39.2104,   39.3489,   39.0411,   39.4295,   37.6673,   36.7281,   37.0673,   36.5506,   36.1148,   35.5852,   34.4536,   35.3721,   36.7025,   35.9435,   36.8143,   38.4983,   39.7608,   40.4941,   41.2560,   42.4993,   42.3059,   42.4839,   42.1376,   43.6249,   44.6361,   44.2144,   42.6864,  999.0000,   42.7248,   44.3044,  999.0000,  999.0000,
  1-NOV-1996 19:36:12.17,   19.2178,   19.7892,   20.4824,   21.0442,   21.5472,  999.0000,  999.0000,  999.0000,  999.0000,  999.0000,   22.3560,   22.5395,   23.4867,   25.0467,   27.0524,   28.4907,  999.0000,   29.7171,   28.9447,   27.3203,   27.7027,  999.0000,  999.0000,   32.3231,   31.5901,   30.6834,   30.9444,   31.9251,   32.9947,   32.9348,   33.9677,   35.8727,   37.5129,   37.5670,   37.5067,   36.9025,   35.9914,   36.9242,   34.7846,   34.9626,   35.0696,   34.4458,   33.7771,   33.7571,   33.5167,   34.7113,   34.2427,   35.4456,   37.6523,   38.2744,   38.7918,   40.5542,   41.5504,   43.1274,   42.5509,   41.1978,   42.6016,   44.4033,   43.8682,   43.2182,   42.9240,   43.6684,   44.7662,   44.9285,   43.6715,
  1-NOV-1996 19:40:46.34,   20.9806,   20.8058,   20.8862,   21.1297,  999.0000,   21.6813,   21.8251,   21.8275,  999.0000,   23.1407,   23.4316,  999.0000,   26.2387,   27.1157,  999.0000,   30.1987,   30.6963,  999.0000,   28.5241,   28.9770,   29.5134,   30.5843,   30.1957,   31.4514,   31.0918,   30.7929,   30.8317,   31.9864,   32.2321,   32.3275,   34.4786,   36.7937,   37.1528,   37.4710,   37.6680,   38.0934,   38.2661,   37.8612,   36.0839,   35.3306,   34.4107,   34.0068,   32.5599,   34.1184,   33.9941,   34.2484,   33.3982,   33.9318,   37.0740,   38.1511,   38.4722,   40.4294,   41.1487,   42.4793,   43.9272,   43.7598,  999.0000,   42.4860,   42.4549,   42.1196,   42.2524,   41.8671,   42.5021,   43.2051,   42.4004,
  1-NOV-1996 19:45:20.09,   20.5294,   20.4932,   19.9957,   19.9364,  999.0000,  999.0000,  999.0000,  999.0000,  999.0000,   23.4276,   22.8392,  999.0000,  999.0000,  999.0000,  999.0000,  999.0000,   28.6911,   28.9736,   27.9649,   27.9773,   28.2791,  999.0000,  999.0000,   29.5209,   29.3160,   28.8014,   29.8702,   29.8482,   30.8216,   32.3317,   35.6672,   37.1552,   36.8788,   37.3583,   37.3067,   36.3606,   35.8194,   36.4493,   35.8484,   34.5172,   33.8122,   33.5253,   33.3526,   33.1560,   32.6171,   32.6552,   33.5933,   34.9293,   37.0530,   38.1332,   38.4825,   40.1914,   41.2539,   42.3327,   44.0131,   42.6167,   42.0918,   42.3211,   42.4074,   42.1819,   43.1971,   43.5916,   43.9930,   45.0903,  999.0000,
  1-NOV-1996 19:49:54.53,   19.8114,   20.4976,  999.0000,   21.2815,   20.8991,   20.8017,  999.0000,  999.0000,   23.0471,   24.3915,   24.8724,   25.0115,   25.3124,   25.9316,  999.0000,  999.0000,   29.9112,   30.6027,   29.0465,   28.9053,   29.2318,   29.8611,   30.0498,   28.9319,   29.6586,   29.1492,   29.7019,   30.0495,   31.2392,   35.1155,   35.9600,   36.6178,   38.0394,   38.5657,   38.5641,   36.9694,   36.7674,   36.4687,   35.2557,   34.1942,   33.9565,   34.0480,   33.2305,   32.5399,   32.5047,   33.8430,   35.5378,   36.8531,   37.8848,   38.0902,   39.9247,   41.1955,   41.4759,   41.9744,   42.6954,   41.8545,   41.7674,   41.6243,   42.2082,   42.1107,   42.7590,   43.7003,  999.0000,  999.0000,   42.4728,
  1-NOV-1996 19:54:31.92,  999.0000,  999.0000,  999.0000,  999.0000,  999.0000,  999.0000,  999.0000,  999.0000,  999.0000,  999.0000,  999.0000,  999.0000,  999.0000,  999.0000,  999.0000,  999.0000,   29.2419,   29.4983,   28.8869,   29.2177,   28.8186,  999.0000,  999.0000,   29.4376,   29.4972,   29.2198,   28.9552,   29.0312,   29.9417,   32.7039,   35.0395,   36.1887,   36.4532,   36.2128,   36.3783,   35.7228,   35.7545,   35.5540,   34.5059,   34.1813,   33.1508,   32.6452,   32.2620,   32.0140,   31.8455,   33.6903,   36.6505,   38.1460,   38.3677,   39.5727,   39.8584,   39.5859,   40.5146,   41.2836,  999.0000,  999.0000,   40.9822,   41.5463,   42.3828,   42.7255,   42.8755,   43.6435,  999.0000,   44.4186,   44.5440,
  1-NOV-1996 19:59:07.95,   21.2935,   21.5283,   21.7835,   21.9321,  999.0000,  999.0000,  999.0000,  999.0000,  999.0000,  999.0000,  999.0000,  999.0000,  999.0000,  999.0000,   29.9003,   30.1551,   29.7788,   30.1483,   29.6365,  999.0000,  999.0000,  999.0000,   30.5101,   31.2508,   30.4376,   30.0328,   29.5930,   29.5811,   31.5605,   34.5852,   36.0994,   36.4316,   37.2248,   36.3909,   35.8069,   35.6200,   36.0525,   36.4058,   34.5235,   33.8567,   32.5221,   33.6129,   31.9289,   32.5178,   33.1342,   33.3943,  999.0000,  999.0000,   37.5372,   38.8309,   39.2221,   39.3252,   40.3568,   42.2938,   42.1725,   40.2189,   40.3969,   41.5675,   42.3823,   42.8022,   42.8057,   43.5249,   44.5830,   44.4866,   45.3262,
  1-NOV-1996 20:03:44.19,   21.8744,   21.9315,   21.8608,  999.0000,   21.8070,   21.7871,  999.0000,  999.0000,  999.0000,   24.2567,   24.4004,  999.0000,  999.0000,  999.0000,   29.3283,   30.6782,   30.8604,   30.4792,  999.0000,  999.0000,   27.4386,   28.8977,   29.4528,   30.4623,   29.3450,   29.4064,   29.5693,   29.3421,   31.2762,   34.7391,   35.8553,   35.0754,   35.4471,  999.0000,   33.9063,   33.2282,   34.3060,   34.2550,   32.7661,   32.7080,   32.5621,   32.7149,   33.5894,   34.9902,   35.1100,  999.0000,   38.3452,   39.0505,   38.9740,   39.4929,   38.8005,   39.6846,   41.5911,   43.1246,   43.5967,   42.0320,   42.2963,   43.7753,   43.8768,   44.6043,   44.1653,   44.5386,   46.3890,   45.9105,  999.0000,
  1-NOV-1996 20:08:18.91,   22.9956,   22.8137,   22.2658,   22.1652,   21.8888,  999.0000,  999.0000,  999.0000,  999.0000,  999.0000,  999.0000,  999.0000,  999.0000,  999.0000,   28.8318,   30.6277,   31.5357,   31.5041,  999.0000,  999.0000,  999.0000,  999.0000,   28.7509,   28.7334,   28.2913,   27.6066,   28.5060,  999.0000,   31.5568,   35.4179,   36.9974,   36.7565,   35.5932,   35.2788,   34.1570,   33.5483,   34.0489,   33.7176,   34.0671,   33.5403,   32.7929,   32.6992,   33.8561,   34.5566,   34.6306,   36.0775,   39.0296,   39.9049,   38.9427,   39.2001,  999.0000,  999.0000,   41.7475,   42.0021,   42.0688,   41.9010,   43.5034,   44.4471,   44.5691,   43.3778,   43.7634,   45.4733,   45.9541,  999.0000,   45.2780,
  1-NOV-1996 20:12:54.49,   22.6186,   21.8830,   21.1934,   21.1144,   21.5089,  999.0000,  999.0000,  999.0000,  999.0000,  999.0000,  999.0000,  999.0000,  999.0000,  999.0000,   29.1942,   30.6237,   31.4795,   31.4837,   30.4244,   29.3034,   29.8537,   30.2422,  999.0000,   28.1834,   28.1224,   28.0759,   28.1963,   30.6221,   33.7292,   36.4599,   37.1461,   37.2793,   34.6454,   34.8932,   34.9424,   34.0204,   33.9680,   34.9020,   34.3479,   33.0418,   33.2552,   33.6966,   34.1802,   35.0358,   35.3876,   36.6956,   39.7928,   40.4593,   39.1656,   38.8211,   40.5485,   41.7786,   42.1064,   41.0281,   40.5892,   41.3571,   43.4383,   44.7701,   45.8281,   44.3868,   44.1303,   45.8746,  999.0000,  999.0000,  999.0000,
  1-NOV-1996 20:17:30.15,   22.7678,   21.7680,   21.4017,   21.0547,  999.0000,   21.0556,   21.9087,   22.6441,   23.7077,  999.0000,  999.0000,  999.0000,  999.0000,  999.0000,   28.1411,   29.2275,   30.1505,   30.3596,   29.6556,   30.0810,   30.5643,  999.0000,  999.0000,   27.3880,   27.9664,   28.8109,   29.9946,   31.5370,   34.5250,   35.7636,   35.5808,   35.3881,   34.7614,   35.1792,   36.5079,   36.5746,   35.6170,   35.2797,   35.2121,   34.8880,   34.1923,  -15.2993,   35.1405,   36.5666,   37.7358,   38.7015,   39.6507,   40.1367,   40.0265,  999.0000,  999.0000,   40.2211,   39.8930,   40.1064,   40.8073,   42.0467,   43.3107,  999.0000,  999.0000,  999.0000,  999.0000,  999.0000,  999.0000,  999.0000,  999.0000,
  1-NOV-1996 20:22:06.03,   22.6293,   22.0683,   21.6566,   21.4120,   20.4349,   19.5301,  999.0000,   21.9581,   22.6302,   21.9635,   22.2009,  999.0000,  999.0000,  999.0000,  999.0000,   26.7459,   28.0856,   27.7844,   27.8775,   28.1122,   28.4275,   28.3856,   27.4368,   27.6880,   27.9988,   28.5340,   30.1291,   32.7823,   34.6009,   34.0638,   34.3205,   33.4551,   33.9146,   34.7073,   36.5828,   37.8162,   36.4104,   34.9861,   34.6543,   33.9480,   34.1419,   25.4904,   36.4606,   36.7872,   36.5592,   37.0259,   38.8259,   39.9343,   38.2623,   38.4760,   38.5127,   39.2878,   39.1295,   39.3549,   40.6756,   41.2128,   41.7004,   42.6538,   42.3030,   44.9290,  999.0000,  999.0000,  999.0000,  999.0000,  999.0000,
  1-NOV-1996 20:26:41.84,   22.9858,   22.8913,   21.8463,   21.1871,   20.8442,   20.6440,   21.0014,   21.5615,  999.0000,  999.0000,   24.0444,   24.2587,   25.2125,   25.9894,   27.0669,   29.0518,   29.8570,   28.8297,   28.8985,   29.0758,   28.5781,   28.1280,   28.5030,   28.8134,   29.8804,   29.2658,   30.8795,   32.1700,   34.4648,   32.8725,   33.0847,   32.6972,   33.9836,   35.4439,   37.3183,   36.8979,   35.8784,   35.6343,   35.7404,   35.5133,   34.6890,   36.5151,   38.0191,   38.2994,   37.7769,   37.2885,   38.1713,   38.8098,   39.1737,   39.2066,   38.4418,   38.3014,   39.0103,   39.5786,   40.9847,   41.7761,   42.3311,   43.7393,   44.1949,   45.4718,  999.0000,   46.3528,  999.0000,   45.8404,   44.9131,
  1-NOV-1996 20:31:18.27,   23.0039,   22.6243,   22.0464,  999.0000,   20.5069,   20.7184,  999.0000,  999.0000,  999.0000,  999.0000,  999.0000,  999.0000,  999.0000,  999.0000,  999.0000,   28.0805,   28.5584,   28.9141,   28.9843,   29.1622,   29.0864,   28.8753,   29.2523,   30.3037,   30.4539,   30.7560,   32.3617,   33.2425,   32.3721,   31.2719,   32.2243,   32.4705,   34.0508,   35.6324,   37.1662,   36.3536,   35.2847,   35.4184,   35.6697,   35.6740,   35.7096,   37.3742,   37.1481,   37.0316,   37.4025,   37.5762,   38.1034,   38.4980,   38.2608,   38.2070,   39.1049,   39.8935,   40.3178,   40.4171,   40.9784,   41.2892,   42.0444,   44.2034,   44.4720,   42.7817,   42.1888,   43.7809,   42.3892,   44.2009,  999.0000,
  1-NOV-1996 20:35:54.26,   23.1402,   22.4353,  999.0000,  999.0000,  999.0000,  999.0000,  999.0000,  999.0000,  999.0000,  999.0000,  999.0000,  999.0000,  999.0000,  999.0000,  999.0000,  999.0000,   27.0501,   27.7750,   27.8622,   28.1364,   28.9977,   30.3449,   30.9187,   31.3066,   31.1584,   31.7960,   32.6001,   32.1162,   31.3421,   31.8615,   32.5249,   33.8224,   35.5530,   35.9388,   37.3985,   37.1686,   36.6309,   36.2001,   36.5113,   36.8500,   37.5277,   38.6297,   38.1462,   37.4645,   38.4278,   38.6562,   38.7694,   39.5443,   39.2313,   39.9668,  999.0000,  999.0000,   41.4428,   40.8386,   40.5538,   41.4066,   42.2132,   42.9557,   43.2834,   43.1233,   44.1753,   44.4479,   42.6908,  999.0000,  999.0000,
  1-NOV-1996 20:40:30.26,   23.4028,   23.2629,   22.5667,   21.8567,   22.5463,  999.0000,   22.2699,   21.8114,   21.8236,  999.0000,  999.0000,  999.0000,  999.0000,  999.0000,  999.0000,   26.8568,   26.8453,   27.0143,   27.1745,   27.7867,   28.7905,   30.2962,   30.8550,   31.0043,   30.2186,   31.4939,   31.4890,   30.7299,   30.0667,   31.4427,   32.7503,   33.0603,   34.4061,   34.9148,   36.2762,   36.7709,   36.2731,   36.1527,   35.9123,   36.6976,   37.7328,   37.5765,   37.5464,   37.5976,   37.8079,   38.1587,   37.8344,   37.5091,   37.1595,   38.0831,   38.3013,   39.3054,   40.6910,   41.3003,   42.2528,   42.6330,   41.9531,   42.3946,   44.1729,   44.2534,   44.2444,   44.6803,  999.0000,   44.2248,  999.0000,
  1-NOV-1996 20:45:04.29,   22.2744,  999.0000,  999.0000,  999.0000,  999.0000,  999.0000,  999.0000,  999.0000,  999.0000,  999.0000,  999.0000,  999.0000,  999.0000,  999.0000,  999.0000,   27.3243,   27.8471,   28.2220,  999.0000,  999.0000,  999.0000,  999.0000,  999.0000,   31.3553,   32.3400,   32.3450,   31.3114,   30.8122,   31.4586,   32.3473,   33.4487,  999.0000,   34.6701,   35.3693,   36.8402,   37.3962,   36.8635,   36.0501,   36.3655,   37.5198,   38.3359,   38.3833,   39.0601,   38.3927,   38.4787,   38.1656,   37.7824,   38.1918,   38.7382,   38.7231,   38.5678,   39.5825,   40.7238,   41.3643,   42.1272,   43.0407,   42.4273,  999.0000,   43.3037,  999.0000,   46.3054,   46.1856,   45.3844,   44.9396,  999.0000,
  1-NOV-1996 20:49:39.24,   20.6371,   20.1245,   19.6956,   19.7120,  999.0000,  999.0000,  999.0000,  999.0000,  999.0000,  999.0000,   23.0612,   21.8437,  999.0000,   23.3005,   23.7382,   23.9932,   23.7358,   24.4668,   24.0948,   24.8838,   26.3675,   27.6299,   28.2323,   29.4600,   30.7230,   29.4886,   29.4313,   30.5033,   31.5679,   31.8562,   32.4412,   32.6385,   33.3535,   35.3998,   37.0516,   37.9303,   37.8737,   36.8533,   36.0991,   37.1231,   38.2720,   38.0615,   36.4619,   36.9788,   37.0262,   37.1798,   36.1210,   36.1789,   36.4205,   36.6785,   38.0794,   39.3880,   39.6690,  999.0000,  999.0000,   40.6724,   41.3966,   41.7861,   42.4885,   44.1118,   45.2431,   44.9705,   45.3810,   44.9075,   44.1496,
  1-NOV-1996 20:54:16.23,  999.0000,  999.0000,  999.0000,  999.0000,   22.4257,   23.5153,   24.9909,  999.0000,  999.0000,  999.0000,  999.0000,  999.0000,   26.3723,   26.7145,   27.6477,   27.3505,   27.1231,   26.9529,  999.0000,   29.2993,   30.9491,   31.8421,   32.1349,   31.3555,   30.6627,   30.6513,   30.5840,   30.8128,   31.7615,   32.9048,   33.1089,   33.5408,   33.8851,   34.9173,   36.8095,   37.6764,   38.4856,   38.2119,   36.5321,   37.1149,   38.0668,   37.6727,   36.9630,   36.0497,   36.1373,   36.8635,   36.6416,   37.2312,   37.6193,   37.4340,   38.1803,   39.0482,   39.4978,   40.0308,   40.9158,   41.0564,   41.6050,   42.3379,   43.3404,  999.0000,   45.8333,   45.4287,   46.2620,   44.4254,   45.0379,
  1-NOV-1996 20:58:52.38,   21.9519,  999.0000,  999.0000,  999.0000,  999.0000,  999.0000,  999.0000,  999.0000,  999.0000,   21.3806,   21.3432,   21.2926,  999.0000,  999.0000,  999.0000,  999.0000,  999.0000,   23.5409,   24.4918,   25.9192,   27.4641,   28.1282,   28.8487,   30.0306,   31.4828,   32.5851,   32.9450,   32.6743,   32.4782,   32.7352,   34.0880,   34.7162,   34.4919,   34.8390,   35.9945,   37.7379,   38.0002,   36.7280,   35.9344,   36.7756,   37.5784,   36.8006,   35.4435,   34.8433,   35.7819,   36.3072,   36.5117,   36.7803,   37.7271,   38.0115,   37.2648,   38.2467,   39.5313,   40.1831,   40.7946,   41.7810,   42.2558,   42.8883,   44.2583,   45.6591,   45.4807,   45.4660,   44.7580,  999.0000,  999.0000,
  1-NOV-1996 21:03:28.96,   19.6731,   20.0696,   20.8886,   21.5483,  999.0000,  999.0000,  999.0000,  999.0000,  999.0000,  999.0000,  999.0000,  999.0000,  999.0000,   23.1585,   23.4946,   23.7510,   24.2164,  999.0000,   26.7396,   28.4796,   29.2721,   28.7697,   30.0187,   32.1453,   32.6448,   33.7493,   33.1566,   33.1399,   33.4933,   34.0957,   35.0849,   35.3271,   34.8851,   34.7939,   36.1332,   37.4126,   38.0504,   36.3023,   36.2153,   37.2483,   37.7027,   36.3538,   35.8240,   36.3172,   36.5054,   36.5259,   36.4757,   37.2471,   38.0137,   37.8179,   37.9179,   38.2468,   39.4997,   40.6578,   42.0905,   42.2562,   41.6406,   42.0354,   44.0900,   45.7884,   45.1996,   46.2236,   45.4228,   45.6126,  999.0000,
  1-NOV-1996 21:08:02.57,   20.4940,   20.6969,   20.9948,   21.5344,  999.0000,  999.0000,  999.0000,  999.0000,  999.0000,  999.0000,  999.0000,  999.0000,   24.1886,   23.4420,   23.8100,   24.2646,   25.1206,   26.2958,   28.0990,   29.7692,   31.5760,  999.0000,   31.2520,   32.1392,   33.1371,   33.7408,   33.4213,   33.8869,   34.4408,   35.1861,   36.0872,   36.3841,   35.3907,   35.1768,   37.1182,   38.4118,   38.7076,   37.0583,   36.0620,   36.8817,   37.4664,   36.5991,   35.5715,   34.9347,   35.3134,   35.8296,   35.5298,   36.4477,   37.2205,   37.6547,   37.9051,   38.3947,   40.3425,   41.8704,   42.2071,   41.7218,   41.1942,   41.9015,   44.3236,   45.5378,   44.9161,   45.7197,   44.6631,   44.8312,   43.9051,
  1-NOV-1996 21:12:39.35,   20.3594,   20.1805,   20.4062,   21.1025,  999.0000,  999.0000,  999.0000,  999.0000,  999.0000,  999.0000,   22.4453,   22.1104,  999.0000,   21.7231,   22.4281,   22.0822,   23.2112,   25.6483,  999.0000,  999.0000,  999.0000,  999.0000,  999.0000,   33.2278,   34.7106,   33.9576,   33.4378,   33.9006,   35.2784,   36.4198,   36.6397,   36.7434,   36.3488,   35.2874,   36.2118,   38.2846,  999.0000,  999.0000,   35.8943,   36.0276,   35.6709,   35.0411,   34.5077,   35.3231,   34.1910,   34.3473,   34.8167,   36.0802,   37.0836,   37.7411,   37.9094,   38.8349,   40.9382,   40.8739,   40.5174,   40.9145,   42.4510,   42.8415,   43.0158,   42.5405,   42.0410,  999.0000,   43.8967,   44.7647,   44.0167,
  1-NOV-1996 21:17:15.57,   21.4859,   21.0308,   20.4882,   20.2836,   20.6403,  999.0000,  999.0000,  999.0000,  999.0000,  999.0000,  999.0000,  999.0000,   21.6678,   21.8256,  999.0000,  999.0000,  999.0000,  999.0000,  999.0000,  999.0000,   31.0006,   31.7347,   33.1417,   33.7675,   34.7799,   34.5993,   35.5167,   36.1394,   36.2534,   35.9398,   35.8337,   35.1849,   35.3194,   35.3797,   35.7201,   36.2498,   37.6789,   37.5926,   36.1216,   35.4373,   35.0252,   34.6159,   35.0384,   35.1074,   34.7877,   34.6199,   34.9460,   36.2950,   37.4557,   37.8378,   37.8433,   39.1999,   39.6893,   40.2748,   41.2439,   41.0374,   40.8816,   42.0042,   42.4427,   42.3609,   42.3844,   42.4645,   42.6332,   43.7165,   43.3427,
  1-NOV-1996 21:21:49.51,   21.0798,  999.0000,  999.0000,   20.8559,   19.7413,   19.1781,  999.0000,  999.0000,  999.0000,  999.0000,  999.0000,  999.0000,  999.0000,  999.0000,  999.0000,  999.0000,  999.0000,  999.0000,  999.0000,   30.5914,   30.2400,   30.6530,  999.0000,   33.3509,   34.5269,  999.0000,   37.0070,   37.4299,   37.2007,   37.1539,   36.8031,   35.8157,   36.0778,   35.2967,   35.2808,   35.8762,   36.3142,   35.8287,   34.6864,   35.6435,   35.8098,   35.0186,   34.0325,   34.7717,   34.7842,   35.2045,   35.1127,   35.5060,   37.0623,   37.7300,   38.6857,   39.1385,   40.2452,   41.0512,   40.4967,   40.9467,   42.5262,   43.0855,   43.4918,   43.8725,   43.3649,   42.9743,   42.5673,   43.3882,   44.4426,
  1-NOV-1996 21:26:27.91,   21.4747,   20.6489,   20.2036,   20.4186,   20.2777,   19.2823,   18.6269,  999.0000,  999.0000,  999.0000,  999.0000,  999.0000,  999.0000,  999.0000,  999.0000,  999.0000,  999.0000,  999.0000,   30.0982,   30.6741,   30.8206,   30.9820,   31.9121,   32.6029,   33.2010,   33.8267,   35.5061,   35.2730,   35.6619,   35.9365,   37.3662,   36.6960,   36.4054,  999.0000,   36.3336,   36.2940,   36.3039,   35.7631,   35.4408,   36.3592,   35.5439,   34.7433,   34.6902,   35.0432,   34.5703,   35.3301,   35.3925,   35.1953,   36.2454,   36.5795,   39.0079,   40.1663,   40.2473,   40.5674,   39.9376,   40.3145,   42.1757,   43.8631,   43.9821,   44.1234,   44.2954,   44.2862,   44.9495,   44.6866,   44.9498,
  1-NOV-1996 21:31:02.13,   21.9897,   21.8183,   21.6773,   21.0225,   19.5175,  999.0000,  999.0000,  999.0000,  999.0000,   21.2393,   21.7689,  999.0000,  999.0000,   22.3965,   22.8829,   24.3529,  999.0000,   28.5127,   29.3300,   30.1168,   30.6888,   30.6444,  999.0000,   32.0495,   33.2533,   32.5592,   33.9725,   34.8466,   34.8994,   36.1713,   36.9438,   36.3301,   36.2689,   38.7506,   35.7450,   35.6256,   35.7841,   35.3439,   35.8634,   35.5363,   35.2985,   34.9823,   34.8414,   34.4832,   34.0717,   35.3994,   36.0284,   36.0586,   36.8539,   39.2698,   41.5895,   41.2117,   40.9244,   41.3039,   40.3959,   41.0213,   42.4812,   42.2941,   43.4865,   44.0341,   44.0308,   44.0636,   44.6488,  999.0000,   44.2455,
  1-NOV-1996 21:35:36.73,   22.1488,   22.5414,   21.9681,  999.0000,   19.6289,   18.5116,   17.3307,   16.8378,  999.0000,  999.0000,  999.0000,  999.0000,  999.0000,  999.0000,  999.0000,  999.0000,  999.0000,   29.3017,   30.2798,   30.6244,   31.1443,   30.7550,   31.4465,   33.6935,   34.4962,   34.0812,   33.9355,   34.2157,   34.3562,   35.7108,   35.4852,  999.0000,   36.7452,   37.6549,   37.1397,   35.9252,   34.7516,   34.4426,   34.4606,   33.2250,   33.8338,   34.6161,   34.4648,   33.6765,   32.3493,   33.4654,   35.4261,   36.0959,   37.3235,   40.3642,   41.3297,   40.9162,   40.1496,   39.4722,   40.5214,   41.5690,   42.0089,   43.4418,   44.9806,   44.4090,   43.8971,   44.9480,   45.5396,   44.2706,   44.8136,
  1-NOV-1996 21:40:12.59,   22.0723,   22.5757,  999.0000,   22.0688,   21.0225,  999.0000,  999.0000,  999.0000,   19.7623,   20.8229,  999.0000,   22.1607,   22.3561,   22.5210,  999.0000,  999.0000,  999.0000,  999.0000,  999.0000,   30.3799,   31.4517,   31.8234,   32.8500,   32.5352,   34.0881,   35.2655,   34.6071,   35.2294,   34.5824,   34.1591,  999.0000,   35.8633,   36.7840,   37.4018,   35.1760,   34.6506,   33.9754,   34.1933,   35.5800,   34.4626,   32.6191,   32.4713,   34.2661,   34.3516,   33.3262,   33.5765,   34.8056,   36.0945,   39.3094,   40.8787,   40.2654,   40.5239,   40.1387,   40.1929,   41.1851,   40.8463,   41.6056,   44.3065,   44.8047,   43.9050,   44.5396,   45.3035,   45.7697,   44.5866,   44.8597,
  1-NOV-1996 21:44:48.63,   21.8447,   22.2573,   22.7483,   22.5244,   20.9323,  999.0000,  999.0000,   17.0732,   18.0542,   19.6458,  999.0000,  999.0000,  999.0000,  999.0000,   25.2377,   25.8187,   26.7084,   28.1498,   29.1990,   30.9843,   32.0821,   32.0884,   32.3912,   32.9502,   33.8379,   34.5823,   34.7855,   34.6497,   35.5642,   36.6968,   37.0638,  999.0000,   38.0920,  999.0000,   35.5752,   35.2607,   36.9934,   34.1514,   34.3478,   34.0831,   33.7972,   32.6730,   32.4092,   32.8385,   32.2141,   33.4826,   36.0036,   39.1313,   41.1260,   40.9598,   38.4988,   38.0649,   40.2256,   40.0897,   40.0782,   40.8121,   42.7073,   44.3554,   44.9025,   44.3051,   43.3584,   44.0980,   45.6203,   45.1855,   44.5282,
  1-NOV-1996 21:49:22.75,   21.7012,   22.3185,   22.6520,   22.4402,   20.7458,   19.2743,  999.0000,  999.0000,   19.1657,   19.8108,   20.2152,  999.0000,  999.0000,  999.0000,  999.0000,  999.0000,  999.0000,  999.0000,  999.0000,   30.3489,   30.7113,   30.1428,  999.0000,   32.4194,   32.9011,   33.8099,   35.2107,   35.1209,   35.5055,   35.8150,   35.1811,   34.7287,   36.7766,   36.1308,   34.8662,   34.4081,   34.0671,   33.4089,   33.8579,   35.6158,   36.2812,   34.3452,   33.2945,   33.2668,   33.0516,   34.0046,   37.2895,   39.7610,   40.3308,   40.2204,   38.2724,   38.6362,   39.4113,   39.4001,   39.5732,   41.3474,   43.9100,   44.4333,   43.5562,   43.7806,  999.0000,   44.4879,   44.7532,   43.9081,   45.1889,
  1-NOV-1996 21:53:59.73,   21.4360,   22.2560,   22.8998,   22.6246,  999.0000,   19.4596,   18.7145,   18.9418,   19.5549,  999.0000,   20.4914,   21.0953,  999.0000,  999.0000,  999.0000,  999.0000,  999.0000,  999.0000,  999.0000,  999.0000,  999.0000,  999.0000,   32.6049,   32.4243,   33.2107,   33.3282,   34.5104,   34.9938,   35.5693,   35.4113,   34.9178,   34.7954,   35.7332,   35.0278,   32.5921,   32.7351,   33.9957,   34.4952,   35.2499,   36.2740,   36.1056,   34.8551,   33.6997,   33.4539,   33.4274,   34.0895,   35.8024,   38.2258,   39.2956,   39.4029,   39.1267,   39.1041,   38.8890,   38.0570,   39.2848,   41.4220,   43.2298,   43.7843,   43.8165,   43.9311,   42.7418,   43.2978,   44.0827,   45.0652,   45.7304,
  1-NOV-1996 21:58:35.57,   21.4809,   21.9602,   22.2528,  999.0000,  999.0000,  999.0000,   19.6896,   18.1024,   18.5778,  999.0000,   20.6405,   21.1233,   21.7873,   22.8333,   23.4515,  999.0000,  999.0000,  999.0000,   29.4002,   30.8469,   31.0959,   31.2063,  999.0000,   32.4644,   32.8288,   33.5301,   34.5616,   35.2319,   35.0335,   36.1294,   37.4051,   36.9733,   35.4813,   34.5050,   33.8414,   33.6153,   33.5060,   33.7310,   34.4490,   34.6917,   34.4665,   34.9599,   34.6252,   34.2791,   33.4263,   34.5559,  999.0000,   38.7746,   39.2883,   39.4657,   39.2618,   39.2970,   38.7222,   38.8831,   40.3458,   41.6033,   43.2873,   44.6631,   45.4083,   45.2263,   45.2009,   44.6070,   44.9598,   46.5628,   46.2208,
  1-NOV-1996 22:03:12.03,   21.5281,   21.7366,   21.9397,   22.1356,   21.5348,   21.1335,   21.1914,  999.0000,  999.0000,   20.6620,   20.9725,   21.3684,   22.5626,  999.0000,   24.5937,   25.3852,  999.0000,  999.0000,  999.0000,  999.0000,  999.0000,  999.0000,   31.5567,   32.1366,   31.9381,   32.7160,   33.6757,   34.7621,   35.0097,   36.4085,   37.4139,   37.2430,   37.2490,  999.0000,  999.0000,   34.2264,   34.0883,   32.8038,   33.1748,   35.0765,   35.9226,   36.0342,   36.1182,   36.3306,   36.0023,   36.5810,   36.8194,   37.3077,   37.7393,   37.9178,   38.3698,   37.8763,   37.2084,   38.6399,   40.3924,   42.2999,   42.7250,   44.1263,   44.9334,   44.5199,   43.8533,   43.7337,   43.8649,   43.6147,   43.8800,
  1-NOV-1996 22:07:48.71,   21.2312,   21.6788,   21.7003,   21.3771,   20.8217,   20.3157,   19.8508,   19.4311,   19.2911,   19.6526,  999.0000,   20.9801,   22.0756,  999.0000,  999.0000,  999.0000,  999.0000,  999.0000,  999.0000,   29.9027,   30.3888,   30.9977,  999.0000,   32.6180,   33.1190,   32.7898,   33.4365,   34.3631,   34.8846,   35.1634,   35.6628,   36.3432,   35.7374,   35.8508,   35.9918,   34.1680,   33.3235,   31.9808,   32.4699,   34.6268,   35.5410,   35.7305,   35.6047,   37.9581,   38.6852,   37.5395,   37.3461,   37.4098,   36.7691,   36.9924,   37.2215,   37.2763,   37.6161,   38.4279,   39.8215,   41.3860,   42.1924,   43.6808,   44.9110,   44.5840,   43.6213,   42.6068,   43.1167,   44.2445,   43.4168,
  1-NOV-1996 22:12:24.70,   21.1899,   21.7867,   20.8997,   20.8982,   20.3566,   19.9515,  999.0000,  999.0000,  999.0000,   20.8388,   21.5787,   21.9015,   21.9948,  999.0000,  999.0000,  999.0000,  999.0000,  999.0000,  999.0000,   31.1299,   31.8064,   32.3427,   32.4482,   32.4920,   32.8645,   33.4188,   33.6918,   34.4387,   35.8643,   35.2239,   34.9141,   34.2753,   34.9773,   35.7276,   35.2042,   34.7887,   34.5662,   33.5126,   34.6259,   35.9635,   36.8053,   36.8348,   36.5136,   37.5847,   37.7374,   37.4569,   37.2365,   38.2257,   37.5853,   36.7880,   36.8158,   36.9762,   37.2800,   38.5296,   39.8458,   40.9230,   42.4662,  999.0000,   45.3708,   45.1746,   44.1286,   42.7898,   42.6733,   44.3506,  999.0000,
  1-NOV-1996 22:16:58.72,   20.9000,  999.0000,   21.3089,   21.5266,  999.0000,  999.0000,  999.0000,  999.0000,  999.0000,  999.0000,  999.0000,  999.0000,  999.0000,  999.0000,  999.0000,  999.0000,  999.0000,  999.0000,  999.0000,  999.0000,   31.9197,   32.9749,   33.1627,   32.9698,   33.3898,   33.7086,   32.8674,   33.0400,   32.9152,   34.1711,   34.7711,   34.0769,   34.0484,   33.7250,   33.8803,   35.0295,   34.7373,   34.1577,   33.8770,   35.1012,   36.2560,   36.3946,   36.3370,   37.4945,   37.3556,   37.5261,   37.6238,   37.7603,   37.5560,   36.7717,   36.2181,   36.6869,   36.7612,   37.7095,   39.0522,   39.6739,   40.0215,   41.1169,   42.9100,   44.2963,   44.0530,   43.4117,   42.2971,   42.8959,   42.2832,
  1-NOV-1996 22:21:32.62,   23.0041,   23.2471,  999.0000,  999.0000,  999.0000,  999.0000,  999.0000,  999.0000,  999.0000,  999.0000,  999.0000,  999.0000,   23.3245,   24.1021,  999.0000,  999.0000,  999.0000,  999.0000,  999.0000,   31.2193,   31.6409,   32.1194,  999.0000,   33.3871,   33.1368,   33.5300,   33.3768,   34.0310,   33.8178,   35.0516,   36.3359,   36.3424,   36.0469,   36.5194,   36.2883,   35.6587,   35.5861,   35.5863,   35.3178,   35.0336,   34.5714,   34.3295,   35.3309,   36.6301,   36.3152,   36.4430,   37.1876,   37.0178,   36.4605,   35.6296,   35.5123,   36.1532,   37.3224,   39.0915,   39.3557,   39.5876,   41.1830,   42.9929,   44.4830,   44.4665,   44.3866,   44.4231,   44.0492,   43.4222,   43.5875,
  1-NOV-1996 22:26:07.43,   21.6301,   22.5012,   22.0663,   21.0039,   20.1175,   19.0370,  999.0000,  999.0000,  999.0000,  999.0000,  999.0000,  999.0000,  999.0000,  999.0000,  999.0000,  999.0000,  999.0000,  999.0000,  999.0000,  999.0000,   32.5499,   32.5671,   32.8071,   33.0219,   32.5927,   33.5159,   33.8016,   34.4278,   34.0307,   34.3219,   34.9576,   35.5386,   36.0779,   36.1560,   35.7375,   35.4642,   35.9089,   35.4939,   34.5181,   34.3797,   34.1111,   34.2494,   34.4328,   35.4484,   36.3374,   36.0792,   36.0583,   36.1458,   36.0163,   36.8362,   36.1627,  999.0000,   38.1715,   39.1260,   38.7325,   39.5286,   41.0326,   42.1647,   44.0630,   43.7789,   42.9472,   43.2289,   43.2131,   42.3337,  999.0000,
  1-NOV-1996 22:30:41.46,   22.5430,   23.5237,   23.1561,   22.0818,   21.3183,   19.4244,  999.0000,  999.0000,  999.0000,  999.0000,  999.0000,  999.0000,  999.0000,  999.0000,  999.0000,  999.0000,  999.0000,  999.0000,  999.0000,  999.0000,   32.6341,   31.8599,   32.7165,   33.0617,   32.9645,   32.4332,   32.8793,   32.4342,   32.7599,   32.9931,  999.0000,   34.5337,   33.9049,   34.5189,   36.2692,   36.7249,   36.4688,   36.5826,   36.5817,   35.7943,   34.2855,   33.9243,   34.4536,   36.4031,   37.6487,   37.4481,   37.5079,   36.8568,   36.7070,   36.5035,   36.0281,   37.7157,   39.3737,   39.6490,   40.4519,   41.3244,   42.3852,   43.8938,   44.5472,   44.3236,   44.4442,   44.1547,   45.1824,   44.3721,  999.0000,
  1-NOV-1996 22:35:15.03,  999.0000,   23.5056,   23.8717,  999.0000,  999.0000,  999.0000,  999.0000,  999.0000,  999.0000,  999.0000,  999.0000,  999.0000,   25.6294,   25.6251,  999.0000,  999.0000,  999.0000,   31.6158,   32.5468,   33.2261,   33.2983,   33.1237,   33.6134,   34.5155,   33.2717,   32.9685,   32.8227,   32.0165,   31.3626,   32.4978,   32.2967,   32.2983,   33.1019,   33.3114,   33.9956,   33.5659,   34.0511,   34.4865,   35.4185,   35.1217,   33.9598,   33.5924,   34.7949,   36.2212,   37.0136,   37.6258,   37.6536,   36.8968,   36.7824,   36.3921,   36.0861,   37.5052,   39.3360,   40.2653,   40.9336,   42.5536,   44.3723,   45.2452,   45.7687,   46.7151,   45.9194,   45.1978,   45.8849,   44.5683,   44.0871,
  1-NOV-1996 22:39:51.02,   21.7073,   22.8279,   22.9247,   22.2373,  999.0000,  999.0000,  999.0000,  999.0000,  999.0000,  999.0000,  999.0000,  999.0000,  999.0000,  999.0000,  999.0000,  999.0000,  999.0000,  999.0000,  999.0000,  999.0000,  999.0000,   33.3604,   33.5288,   33.6452,   33.1245,   33.2001,   32.8849,  999.0000,   31.8131,   32.9024,   33.2063,   33.3368,   34.8240,   33.8559,   34.5223,   34.6737,   35.2518,   35.1560,   36.2737,   35.4024,   34.4513,   33.1604,   34.2566,   35.3019,   36.9569,   36.4459,   36.3326,   36.9016,   36.6789,   36.0255,   35.9017,   36.6731,   38.2082,   39.4770,   40.7416,   42.4504,   44.0415,   44.6434,   45.5298,   46.7800,   45.2537,   44.6724,   46.0298,   45.4684,  999.0000,
  1-NOV-1996 22:44:27.59,   21.2777,   21.9468,   22.3407,   21.2127,  999.0000,  999.0000,  999.0000,  999.0000,  999.0000,  999.0000,  999.0000,  999.0000,  999.0000,  999.0000,  999.0000,  999.0000,  999.0000,  999.0000,  999.0000,  999.0000,   33.5576,   33.6479,   32.7272,   32.4665,   33.0900,   32.6012,   31.2443,   31.0344,   30.9945,   31.3469,   31.3657,   32.4847,   34.4787,   35.3081,   35.5493,   36.2945,   36.1290,   35.8758,   35.2780,   34.4825,   33.7475,   33.3464,   34.1726,   35.4000,   35.4835,   35.2630,   35.3892,   35.2312,   35.2443,   34.6297,   34.3849,   35.1190,   36.0700,   38.1312,   40.6885,   41.7353,   42.6763,   44.3529,   44.9740,   45.8675,   44.7639,   43.8503,   44.9355,   44.9366,   45.7571,
  1-NOV-1996 22:49:02.98,   21.6150,   21.9537,   21.9581,  999.0000,  999.0000,  999.0000,  999.0000,   21.7916,   22.5370,   23.2012,   23.2089,  999.0000,  999.0000,  999.0000,  999.0000,  999.0000,  999.0000,  999.0000,   30.7625,   32.6382,  999.0000,  999.0000,   34.6455,   34.0457,   33.1793,   32.5264,   31.4777,   31.9100,   32.1701,   33.0707,   34.2630,   35.5438,   36.3343,   35.8079,   35.6494,   34.4708,   35.4143,   34.9386,   34.9284,   35.0971,   34.8673,   33.8688,   34.1075,   34.1438,   33.8425,   33.5778,   34.1203,   34.3094,   34.0254,  999.0000,  999.0000,   35.1335,   36.5615,   37.9601,   39.7492,   40.8696,   41.6694,   42.6817,   43.0826,   43.9595,   43.7275,   43.1775,   43.9981,   45.2406,   45.3938,
  1-NOV-1996 22:53:38.29,   21.2376,   21.3586,  999.0000,  999.0000,  999.0000,  999.0000,  999.0000,  999.0000,  999.0000,  999.0000,  999.0000,   24.0131,   25.6279,  999.0000,   28.6042,   28.5392,   27.0141,   28.0436,   30.5275,   32.1361,  999.0000,  999.0000,   34.6597,   35.0665,   34.5542,   33.4784,   32.9603,   32.8005,   33.5714,   33.1407,   34.4209,   36.6379,   37.6100,   37.9472,   38.6110,   38.7883,   38.6295,   36.1262,   36.5767,   35.8769,   35.4695,   35.7630,   35.2941,   34.0621,   34.1838,   34.1041,   34.1955,   34.5945,   34.9108,   34.6183,   34.2221,   35.5495,   37.1350,   38.5664,   39.4484,   40.5793,   42.4190,   43.3680,   44.2578,   43.9897,   43.8685,   43.2488,   44.6014,   46.0162,   47.0762,
  1-NOV-1996 22:58:12.73,   20.0774,   21.1236,   20.4572,   19.2229,  999.0000,  999.0000,  999.0000,  999.0000,  999.0000,   22.0120,   22.4692,   23.5046,   25.2538,   26.8379,   27.2965,  999.0000,  999.0000,  999.0000,  999.0000,  999.0000,  999.0000,  999.0000,  999.0000,   35.5628,   35.6234,   34.3686,   35.6274,   34.5511,   33.5742,   33.8353,   34.6231,   35.3070,   35.8060,   36.7980,   37.1793,   37.7411,   38.9774,   37.6960,   37.0771,   37.0375,   37.0747,   35.5080,   35.0762,   34.1043,   34.0608,   34.5036,   35.0305,   34.9130,   35.0089,   35.0497,   34.8669,   36.0870,   37.5702,   38.7486,   39.3880,   40.9750,   42.3187,   42.6283,   42.7588,   43.9832,   43.7271,   44.5793,   45.2954,   45.9494,   47.5636,
  1-NOV-1996 23:02:47.70,   19.1997,   20.7742,   20.2847,   19.9139,   19.7696,   19.9881,  999.0000,  999.0000,   22.4948,   22.8164,  999.0000,  999.0000,  999.0000,  999.0000,  999.0000,  999.0000,  999.0000,  999.0000,  999.0000,  999.0000,  999.0000,  999.0000,   36.4903,   35.2566,   34.9861,   35.4411,   35.8816,   35.8937,   34.6303,   35.2568,   35.3259,   36.0376,   35.2652,   35.2683,   36.1348,   37.2414,   38.2463,   38.0934,   38.2345,   36.9919,   35.9413,   35.2309,   34.7533,   33.7897,   33.7864,   34.3891,   34.8168,   35.1397,   35.1959,   35.0286,   35.8466,   36.6286,   37.5082,   38.4973,   39.9930,   41.2259,   41.7143,   42.7990,   44.0481,   44.6746,   44.6933,   44.4037,   45.7559,   47.8328,   47.5970,
  1-NOV-1996 23:07:21.43,   18.6315,   19.6563,  999.0000,   18.5099,   18.7138,   19.5729,  999.0000,  999.0000,  999.0000,   21.2023,   20.8742,   20.9079,   21.9776,   23.2834,  999.0000,  999.0000,  999.0000,  999.0000,  999.0000,   35.2155,   35.9561,   35.4044,   34.9361,   33.9954,   33.5968,   32.8466,   33.2246,   34.6937,   34.7684,   34.7886,   33.9988,   33.2553,   34.0843,   35.0393,   35.4648,   35.7176,   36.6626,   37.9365,   38.1141,   36.8270,   35.5976,   35.5319,   35.3270,   34.2685,   33.9083,   33.5616,   33.8043,   34.4143,   35.1862,   36.0349,   36.5909,   36.7530,   38.0677,   39.2568,   40.5120,   41.3277,   41.4092,   42.8318,  999.0000,   44.2836,   44.0123,   43.3679,   45.4197,  999.0000,   48.9865,
  1-NOV-1996 23:11:57.03,   18.5750,   18.5212,   17.9542,   17.8690,   18.0177,  999.0000,  999.0000,  999.0000,  999.0000,  999.0000,  999.0000,  999.0000,  999.0000,  999.0000,  999.0000,  999.0000,  999.0000,  999.0000,  999.0000,   34.7958,   35.8931,   35.4960,   34.7866,   34.2922,   32.9283,   32.7726,   32.5668,   33.0075,   33.1353,   33.3743,   33.3017,   33.3678,   33.6635,   33.7539,   34.4849,   34.0409,   33.8472,   34.9214,   36.0635,   35.3208,   35.7162,   35.9226,   34.2980,   33.5441,   33.5318,   32.9018,   33.8177,   35.3004,   36.2632,   36.7191,   36.9467,   38.0850,   39.7048,   40.5513,   40.7253,   41.2454,   40.9304,   41.9088,   43.3141,   42.6666,   43.4173,   42.7726,   44.4918,  999.0000,   48.8448,
  1-NOV-1996 23:16:32.89,   21.1947,  999.0000,  999.0000,  999.0000,  999.0000,  999.0000,  999.0000,  999.0000,  999.0000,  999.0000,  999.0000,  999.0000,  999.0000,  999.0000,  999.0000,  999.0000,  999.0000,  999.0000,  999.0000,  999.0000,  999.0000,  999.0000,   37.3402,   38.2959,   37.5705,   36.8203,   35.0983,   33.3415,   33.1048,   33.1053,   32.2266,   33.4416,   33.6489,   32.9359,   33.4868,   34.4453,   34.3118,   34.1608,   34.7422,   34.7438,   35.2714,   34.4697,   33.1943,   34.1007,   34.5176,   34.3340,   35.0750,   36.1607,   37.1675,   37.6708,   37.5359,   37.7445,  999.0000,  999.0000,   39.8895,   40.9393,   41.2719,   41.1495,   41.0889,   41.6296,   42.6617,   42.9061,   45.3649,   48.1108,  999.0000,
  1-NOV-1996 23:21:08.54,   18.6337,   19.5974,  999.0000,   18.1659,   18.1904,  999.0000,  999.0000,   19.1053,   19.3150,  999.0000,  999.0000,  999.0000,  999.0000,  999.0000,   24.7468,   26.0677,  999.0000,  999.0000,  999.0000,  999.0000,  999.0000,  999.0000,  999.0000,   38.9624,   38.8537,   38.7107,   37.8397,   37.3973,   35.7127,   33.8393,   32.6941,   33.5757,   34.5773,   35.0322,   33.6397,   34.4296,   35.5660,   36.0384,   35.7806,   35.8911,   35.6537,   35.5700,   35.8568,   35.6651,   36.2178,   35.6380,   34.9032,   35.6842,   37.2240,   38.2361,   39.0037,   39.3399,   39.4491,   39.4957,   39.1851,   39.9986,   40.6105,   40.6181,   40.5478,   40.0453,   40.7321,   41.9027,   45.0785,   46.2461,  999.0000,
  1-NOV-1996 23:25:44.61,   17.4963,   18.7224,   18.2090,   17.5656,  999.0000,  999.0000,   18.9364,   18.8906,   18.9868,   19.0297,   19.8459,   21.5657,  999.0000,  999.0000,  999.0000,  999.0000,  999.0000,  999.0000,  999.0000,  999.0000,   37.1214,   37.9029,   38.6701,   40.3101,   40.9997,   39.7984,   39.4179,   37.5823,   36.2847,   34.4167,   33.9348,   33.5595,   33.8679,   34.7007,   34.9561,   35.6051,   35.8822,   36.2140,   36.2316,   36.0074,   35.4826,   35.3489,   35.6203,   35.6834,   35.6360,   35.4322,   35.3296,   35.9143,   36.7095,   37.8634,   39.1874,   39.7806,   40.0041,   40.0835,   39.4072,   39.3771,   40.4645,   40.3409,   40.4451,   39.9378,   40.0387,   42.5229,   45.8794,   46.3824,   46.2883,
  1-NOV-1996 23:30:20.68,   17.1806,   18.9291,   19.2970,   18.0267,   16.7589,  999.0000,  999.0000,  999.0000,   19.4016,   19.5633,   19.9207,  999.0000,   21.4185,   22.0109,  999.0000,  999.0000,  999.0000,  999.0000,  999.0000,  999.0000,  999.0000,  999.0000,  999.0000,   37.4630,   37.6175,   39.1491,   39.2596,   38.7999,   37.3754,   35.6539,   35.2357,   35.4734,   34.9839,   34.8099,   35.1056,   37.0929,   37.3543,   36.6851,   36.9431,   36.4506,   35.9929,   35.3908,   36.0875,   36.4584,   36.1979,   36.0821,   36.2923,   36.8697,   37.1585,  999.0000,  999.0000,   39.1620,   39.6728,   40.3375,   40.3547,   39.5672,   40.1132,   40.5189,   40.7644,   41.4677,   42.2209,   44.5503,  999.0000,  999.0000,  999.0000,
  1-NOV-1996 23:34:54.69,   17.4199,   19.1549,   20.2466,   19.9690,  999.0000,  999.0000,  999.0000,  999.0000,  999.0000,   21.0082,   21.7381,   22.0056,   21.8600,  999.0000,  999.0000,  999.0000,  999.0000,  999.0000,  999.0000,  999.0000,  999.0000,  999.0000,  999.0000,  999.0000,  999.0000,   39.0682,   39.5196,   38.9078,   37.2028,   36.3680,   36.4507,   36.7810,   36.5233,   36.8300,   37.5434,   38.3072,   38.7550,   37.8754,   37.2829,   37.5050,   37.4817,   36.9013,   36.2093,   34.7843,   32.5598,   32.4638,  999.0000,   37.2218,   38.8856,   39.4921,   38.9813,   38.8001,   37.8577,   37.1021,   37.0218,   36.6677,   37.1056,   37.9180,   38.4322,   39.4639,   40.6345,   41.9509,   43.7846,   44.8317,  999.0000,
  1-NOV-1996 23:39:28.41,   16.5228,   17.5704,   19.2275,   20.1250,  999.0000,  999.0000,  999.0000,   19.2657,   19.6166,   20.6677,   21.2731,  999.0000,  999.0000,  999.0000,  999.0000,  999.0000,  999.0000,  999.0000,  999.0000,   34.7349,   34.8601,   35.4416,   36.4092,   35.5942,   37.4063,   38.8542,   38.9919,   39.6506,  999.0000,   37.3903,   37.1016,   37.6770,   37.0299,   35.8423,   38.5132,   39.6625,   40.3362,   39.6341,   39.6083,   38.9310,   38.4766,   38.5320,   38.2336,   37.2184,   35.7591,   34.9590,   35.9395,   37.7924,   38.7813,   38.5358,   37.9894,   37.3961,   36.6746,   36.7217,   37.3299,   37.4264,   37.9459,   38.1746,   37.8261,   37.7665,   38.9366,   40.3375,   42.1611,   43.7217,  999.0000,
  1-NOV-1996 23:44:05.27,   16.1009,   17.6280,   18.7142,   20.2828,  999.0000,  999.0000,  999.0000,   19.8052,   20.9491,   21.7251,   21.8207,  999.0000,  999.0000,  999.0000,  999.0000,  999.0000,  999.0000,  999.0000,   32.7229,   33.5414,   34.4267,   35.7166,   36.2834,   35.7420,   36.1862,   37.6353,   38.5804,   39.5536,   37.7873,   37.6193,   36.7823,   36.7331,   37.3843,   37.3223,   36.7403,   38.0632,   39.8204,   40.6891,   39.6554,   39.5688,   39.0343,   38.1489,   37.0866,   36.9032,   36.8702,   36.7895,   37.1283,   37.6387,   37.9138,   37.4801,   37.4984,  999.0000,  999.0000,  999.0000,   36.7355,   37.1263,   37.8279,   38.2693,   37.7585,   37.8030,   38.3873,   40.1200,   42.6704,   43.0616,  999.0000,
  1-NOV-1996 23:48:39.48,   16.3143,   18.0075,  999.0000,  999.0000,  999.0000,  999.0000,  999.0000,  999.0000,  999.0000,  999.0000,  999.0000,  999.0000,  999.0000,  999.0000,  999.0000,  999.0000,  999.0000,  999.0000,  999.0000,  999.0000,  999.0000,   36.6320,   37.0266,   38.1625,   36.4155,   36.2743,   36.1198,   36.5027,   37.6585,   37.4472,   37.8899,   37.2919,   37.3145,   36.6735,   36.4567,   36.6249,   36.2434,   38.0658,   38.7415,   38.3939,   38.0035,   37.9505,   38.1245,   38.1154,   38.0990,   37.6389,   37.8168,   38.1737,   38.1617,   37.6109,   37.5842,   36.9283,   36.5444,   36.9355,   37.5127,   37.7603,   37.6884,   37.8814,   38.4961,   39.2463,   38.8237,   39.4193,   42.3007,   42.6920,   42.0604,
  1-NOV-1996 23:53:15.89,   14.6869,   16.1199,  999.0000,  999.0000,  999.0000,  999.0000,  999.0000,  999.0000,  999.0000,  999.0000,  999.0000,  999.0000,  999.0000,  999.0000,  999.0000,  999.0000,  999.0000,  999.0000,  999.0000,   34.3666,   35.3978,   35.6696,   35.5366,  999.0000,  999.0000,   37.3662,   37.2252,   36.7187,   37.5037,   36.6358,   35.7155,   35.4269,   35.4043,   35.6892,   36.5925,   37.0709,   37.2390,   39.5346,   40.2597,   40.0971,   38.7067,   38.4467,   38.4271,   38.8979,   39.7066,   39.7060,   39.2333,   38.2988,   37.8980,   38.0602,   38.0688,   37.5317,   37.7859,   37.9863,   38.0345,   37.7658,   37.2441,   37.3331,   38.0221,   38.4440,   38.7360,  999.0000,   41.0460,   41.1760,   40.9277,
  1-NOV-1996 23:57:54.10,   16.0067,   17.3486,  999.0000,   20.1515,   21.3281,   19.9747,  999.0000,  999.0000,  999.0000,   21.9407,   22.6832,  999.0000,  999.0000,  999.0000,  999.0000,  999.0000,  999.0000,   32.6337,   34.7396,  999.0000,  999.0000,  999.0000,  999.0000,   36.2921,   38.1066,  999.0000,  999.0000,   36.8803,   37.0854,   35.5423,   34.6142,   35.3311,   35.6184,   35.3876,   35.8158,   37.9279,   40.3372,   41.5258,   41.7246,   41.5858,   41.3005,   40.5246,   38.1260,   39.2608,   38.7557,   39.1402,   39.3124,   38.6962,   38.8630,   38.6379,   37.1291,   36.5765,   36.6483,   36.8553,   36.8791,   36.9091,   36.8058,   36.0985,   36.7417,   37.1451,   38.3099,   40.1908,   39.7907,   40.7895,   40.2514,
